<?xml version="1.0" encoding="UTF-8" standalone="no" ?>
<gpx xmlns="http://www.topografix.com/GPX/1/1" xmlns:xsi="http://www.w3.org/2001/XMLSchema-instance" xsi:schemaLocation="http://www.topografix.com/GPX/1/1 http://www.topografix.com/GPX/1/1/gpx.xsd" version="1.1" creator="VisuGPX - https://www.visugpx.com">
  <metadata>
    <name>Plages-et-bocage-haguais</name>
    <desc><![CDATA[Circuit VTC Plages et bocages Haguais avec un petit tour supplémentaire jusqu'à Querqueville]]></desc>
  </metadata>
  <trk>
    <name><![CDATA[La Hague cyclisme]]></name>
    <trkseg>
      <trkpt lat="49.66393" lon="-1.83484">
        <ele>165.39999389648</ele>
        <time>2019-08-08T10:27:30.000Z</time>
      </trkpt>
      <trkpt lat="49.66395" lon="-1.83489">
        <ele>165.39999389648</ele>
        <time>2019-08-08T10:27:31.000Z</time>
      </trkpt>
      <trkpt lat="49.66397" lon="-1.83494">
        <ele>165.39999389648</ele>
        <time>2019-08-08T10:27:32.000Z</time>
      </trkpt>
      <trkpt lat="49.66409" lon="-1.83521">
        <ele>165</ele>
        <time>2019-08-08T10:27:37.000Z</time>
      </trkpt>
      <trkpt lat="49.66417" lon="-1.83533">
        <ele>164.80000305176</ele>
        <time>2019-08-08T10:27:39.000Z</time>
      </trkpt>
      <trkpt lat="49.66435" lon="-1.83551">
        <ele>164.39999389648</ele>
        <time>2019-08-08T10:27:43.000Z</time>
      </trkpt>
      <trkpt lat="49.66445" lon="-1.8356">
        <ele>164.19999694824</ele>
        <time>2019-08-08T10:27:45.000Z</time>
      </trkpt>
      <trkpt lat="49.66455" lon="-1.8357">
        <ele>164</ele>
        <time>2019-08-08T10:27:47.000Z</time>
      </trkpt>
      <trkpt lat="49.66471" lon="-1.83588">
        <ele>162.60000610352</ele>
        <time>2019-08-08T10:27:50.000Z</time>
      </trkpt>
      <trkpt lat="49.66507" lon="-1.83628">
        <ele>159.80000305176</ele>
        <time>2019-08-08T10:27:56.000Z</time>
      </trkpt>
      <trkpt lat="49.66547" lon="-1.83671">
        <ele>157.60000610352</ele>
        <time>2019-08-08T10:28:03.000Z</time>
      </trkpt>
      <trkpt lat="49.66579" lon="-1.83707">
        <ele>156.80000305176</ele>
        <time>2019-08-08T10:28:08.000Z</time>
      </trkpt>
      <trkpt lat="49.66585" lon="-1.83714">
        <ele>156.80000305176</ele>
        <time>2019-08-08T10:28:09.000Z</time>
      </trkpt>
      <trkpt lat="49.66592" lon="-1.83721">
        <ele>157</ele>
        <time>2019-08-08T10:28:10.000Z</time>
      </trkpt>
      <trkpt lat="49.66616" lon="-1.83749">
        <ele>157</ele>
        <time>2019-08-08T10:28:14.000Z</time>
      </trkpt>
      <trkpt lat="49.66622" lon="-1.83756">
        <ele>156.80000305176</ele>
        <time>2019-08-08T10:28:15.000Z</time>
      </trkpt>
      <trkpt lat="49.66643" lon="-1.83778">
        <ele>155.60000610352</ele>
        <time>2019-08-08T10:28:19.000Z</time>
      </trkpt>
      <trkpt lat="49.66654" lon="-1.83787">
        <ele>155.19999694824</ele>
        <time>2019-08-08T10:28:21.000Z</time>
      </trkpt>
      <trkpt lat="49.66669" lon="-1.83799">
        <ele>155.39999389648</ele>
        <time>2019-08-08T10:28:24.000Z</time>
      </trkpt>
      <trkpt lat="49.66673" lon="-1.83803">
        <ele>155.60000610352</ele>
        <time>2019-08-08T10:28:25.000Z</time>
      </trkpt>
      <trkpt lat="49.66678" lon="-1.83807">
        <ele>155.60000610352</ele>
        <time>2019-08-08T10:28:26.000Z</time>
      </trkpt>
      <trkpt lat="49.66687" lon="-1.83815">
        <ele>155.80000305176</ele>
        <time>2019-08-08T10:28:27.000Z</time>
      </trkpt>
      <trkpt lat="49.66691" lon="-1.83819">
        <ele>156</ele>
        <time>2019-08-08T10:28:28.000Z</time>
      </trkpt>
      <trkpt lat="49.66718" lon="-1.83841">
        <ele>156.60000610352</ele>
        <time>2019-08-08T10:28:35.000Z</time>
      </trkpt>
      <trkpt lat="49.66723" lon="-1.83845">
        <ele>156.80000305176</ele>
        <time>2019-08-08T10:28:36.000Z</time>
      </trkpt>
      <trkpt lat="49.66745" lon="-1.8386">
        <ele>157.39999389648</ele>
        <time>2019-08-08T10:28:40.000Z</time>
      </trkpt>
      <trkpt lat="49.66774" lon="-1.83879">
        <ele>157.60000610352</ele>
        <time>2019-08-08T10:28:45.000Z</time>
      </trkpt>
      <trkpt lat="49.66787" lon="-1.83887">
        <ele>157.60000610352</ele>
        <time>2019-08-08T10:28:47.000Z</time>
      </trkpt>
      <trkpt lat="49.66813" lon="-1.83903">
        <ele>156</ele>
        <time>2019-08-08T10:28:51.000Z</time>
      </trkpt>
      <trkpt lat="49.66826" lon="-1.83911">
        <ele>155.19999694824</ele>
        <time>2019-08-08T10:28:53.000Z</time>
      </trkpt>
      <trkpt lat="49.66845" lon="-1.83924">
        <ele>154</ele>
        <time>2019-08-08T10:28:56.000Z</time>
      </trkpt>
      <trkpt lat="49.66857" lon="-1.83932">
        <ele>153.80000305176</ele>
        <time>2019-08-08T10:28:58.000Z</time>
      </trkpt>
      <trkpt lat="49.66869" lon="-1.8394">
        <ele>153.60000610352</ele>
        <time>2019-08-08T10:29:00.000Z</time>
      </trkpt>
      <trkpt lat="49.669" lon="-1.83961">
        <ele>153.80000305176</ele>
        <time>2019-08-08T10:29:05.000Z</time>
      </trkpt>
      <trkpt lat="49.66927" lon="-1.83988">
        <ele>151.80000305176</ele>
        <time>2019-08-08T10:29:10.000Z</time>
      </trkpt>
      <trkpt lat="49.66943" lon="-1.84002">
        <ele>151</ele>
        <time>2019-08-08T10:29:13.000Z</time>
      </trkpt>
      <trkpt lat="49.66949" lon="-1.84007">
        <ele>150.80000305176</ele>
        <time>2019-08-08T10:29:14.000Z</time>
      </trkpt>
      <trkpt lat="49.66971" lon="-1.8403">
        <ele>149.80000305176</ele>
        <time>2019-08-08T10:29:18.000Z</time>
      </trkpt>
      <trkpt lat="49.66978" lon="-1.84036">
        <ele>149.60000610352</ele>
        <time>2019-08-08T10:29:19.000Z</time>
      </trkpt>
      <trkpt lat="49.66985" lon="-1.84042">
        <ele>149.39999389648</ele>
        <time>2019-08-08T10:29:20.000Z</time>
      </trkpt>
      <trkpt lat="49.67027" lon="-1.84079">
        <ele>145.80000305176</ele>
        <time>2019-08-08T10:29:27.000Z</time>
      </trkpt>
      <trkpt lat="49.67046" lon="-1.84091">
        <ele>144.19999694824</ele>
        <time>2019-08-08T10:29:30.000Z</time>
      </trkpt>
      <trkpt lat="49.67093" lon="-1.84129">
        <ele>141</ele>
        <time>2019-08-08T10:29:36.000Z</time>
      </trkpt>
      <trkpt lat="49.67132" lon="-1.84171">
        <ele>141.39999389648</ele>
        <time>2019-08-08T10:29:42.000Z</time>
      </trkpt>
      <trkpt lat="49.67162" lon="-1.84196">
        <ele>143.80000305176</ele>
        <time>2019-08-08T10:29:50.000Z</time>
      </trkpt>
      <trkpt lat="49.67205" lon="-1.8422">
        <ele>150.60000610352</ele>
        <time>2019-08-08T10:30:04.000Z</time>
      </trkpt>
      <trkpt lat="49.67242" lon="-1.84244">
        <ele>153.39999389648</ele>
        <time>2019-08-08T10:30:17.000Z</time>
      </trkpt>
      <trkpt lat="49.67266" lon="-1.84264">
        <ele>155.19999694824</ele>
        <time>2019-08-08T10:30:25.000Z</time>
      </trkpt>
      <trkpt lat="49.67274" lon="-1.8427">
        <ele>155</ele>
        <time>2019-08-08T10:30:28.000Z</time>
      </trkpt>
      <trkpt lat="49.67286" lon="-1.84281">
        <ele>155</ele>
        <time>2019-08-08T10:30:32.000Z</time>
      </trkpt>
      <trkpt lat="49.67309" lon="-1.84301">
        <ele>154.80000305176</ele>
        <time>2019-08-08T10:30:39.000Z</time>
      </trkpt>
      <trkpt lat="49.67339" lon="-1.84321">
        <ele>155</ele>
        <time>2019-08-08T10:30:46.000Z</time>
      </trkpt>
      <trkpt lat="49.67358" lon="-1.84333">
        <ele>155</ele>
        <time>2019-08-08T10:30:50.000Z</time>
      </trkpt>
      <trkpt lat="49.67377" lon="-1.84342">
        <ele>154.60000610352</ele>
        <time>2019-08-08T10:30:54.000Z</time>
      </trkpt>
      <trkpt lat="49.67421" lon="-1.84361">
        <ele>154</ele>
        <time>2019-08-08T10:31:02.000Z</time>
      </trkpt>
      <trkpt lat="49.67458" lon="-1.84385">
        <ele>152.80000305176</ele>
        <time>2019-08-08T10:31:11.000Z</time>
      </trkpt>
      <trkpt lat="49.67504" lon="-1.84414">
        <ele>150.19999694824</ele>
        <time>2019-08-08T10:31:19.000Z</time>
      </trkpt>
      <trkpt lat="49.67542" lon="-1.84437">
        <ele>147.80000305176</ele>
        <time>2019-08-08T10:31:24.000Z</time>
      </trkpt>
      <trkpt lat="49.67591" lon="-1.84473">
        <ele>144.60000610352</ele>
        <time>2019-08-08T10:31:30.000Z</time>
      </trkpt>
      <trkpt lat="49.67635" lon="-1.84511">
        <ele>140.60000610352</ele>
        <time>2019-08-08T10:31:35.000Z</time>
      </trkpt>
      <trkpt lat="49.67678" lon="-1.84551">
        <ele>137.39999389648</ele>
        <time>2019-08-08T10:31:40.000Z</time>
      </trkpt>
      <trkpt lat="49.67717" lon="-1.84594">
        <ele>137.19999694824</ele>
        <time>2019-08-08T10:31:46.000Z</time>
      </trkpt>
      <trkpt lat="49.67753" lon="-1.84637">
        <ele>140.19999694824</ele>
        <time>2019-08-08T10:31:57.000Z</time>
      </trkpt>
      <trkpt lat="49.67773" lon="-1.84659">
        <ele>142</ele>
        <time>2019-08-08T10:32:05.000Z</time>
      </trkpt>
      <trkpt lat="49.67791" lon="-1.84678">
        <ele>143.60000610352</ele>
        <time>2019-08-08T10:32:12.000Z</time>
      </trkpt>
      <trkpt lat="49.67794" lon="-1.84681">
        <ele>143.80000305176</ele>
        <time>2019-08-08T10:32:13.000Z</time>
      </trkpt>
      <trkpt lat="49.67796" lon="-1.84684">
        <ele>144</ele>
        <time>2019-08-08T10:32:14.000Z</time>
      </trkpt>
      <trkpt lat="49.67805" lon="-1.84691">
        <ele>144.60000610352</ele>
        <time>2019-08-08T10:32:17.000Z</time>
      </trkpt>
      <trkpt lat="49.67822" lon="-1.84702">
        <ele>145.39999389648</ele>
        <time>2019-08-08T10:32:22.000Z</time>
      </trkpt>
      <trkpt lat="49.67825" lon="-1.84704">
        <ele>145.39999389648</ele>
        <time>2019-08-08T10:32:23.000Z</time>
      </trkpt>
      <trkpt lat="49.67828" lon="-1.84706">
        <ele>145.39999389648</ele>
        <time>2019-08-08T10:32:24.000Z</time>
      </trkpt>
      <trkpt lat="49.67832" lon="-1.84708">
        <ele>145.39999389648</ele>
        <time>2019-08-08T10:32:25.000Z</time>
      </trkpt>
      <trkpt lat="49.67835" lon="-1.8471">
        <ele>145.39999389648</ele>
        <time>2019-08-08T10:32:26.000Z</time>
      </trkpt>
      <trkpt lat="49.67839" lon="-1.84711">
        <ele>145.39999389648</ele>
        <time>2019-08-08T10:32:27.000Z</time>
      </trkpt>
      <trkpt lat="49.67843" lon="-1.84713">
        <ele>145.39999389648</ele>
        <time>2019-08-08T10:32:28.000Z</time>
      </trkpt>
      <trkpt lat="49.67858" lon="-1.84723">
        <ele>145.39999389648</ele>
        <time>2019-08-08T10:32:31.000Z</time>
      </trkpt>
      <trkpt lat="49.67881" lon="-1.84742">
        <ele>145.80000305176</ele>
        <time>2019-08-08T10:32:38.000Z</time>
      </trkpt>
      <trkpt lat="49.67917" lon="-1.84779">
        <ele>146.60000610352</ele>
        <time>2019-08-08T10:32:48.000Z</time>
      </trkpt>
      <trkpt lat="49.67953" lon="-1.84828">
        <ele>147.39999389648</ele>
        <time>2019-08-08T10:32:59.000Z</time>
      </trkpt>
      <trkpt lat="49.67978" lon="-1.84862">
        <ele>146.60000610352</ele>
        <time>2019-08-08T10:33:05.000Z</time>
      </trkpt>
      <trkpt lat="49.67988" lon="-1.8487">
        <ele>146</ele>
        <time>2019-08-08T10:33:07.000Z</time>
      </trkpt>
      <trkpt lat="49.67998" lon="-1.84873">
        <ele>145</ele>
        <time>2019-08-08T10:33:09.000Z</time>
      </trkpt>
      <trkpt lat="49.68013" lon="-1.84871">
        <ele>143.60000610352</ele>
        <time>2019-08-08T10:33:12.000Z</time>
      </trkpt>
      <trkpt lat="49.68023" lon="-1.84862">
        <ele>142.19999694824</ele>
        <time>2019-08-08T10:33:14.000Z</time>
      </trkpt>
      <trkpt lat="49.68029" lon="-1.8485">
        <ele>141</ele>
        <time>2019-08-08T10:33:16.000Z</time>
      </trkpt>
      <trkpt lat="49.68031" lon="-1.84837">
        <ele>140.19999694824</ele>
        <time>2019-08-08T10:33:18.000Z</time>
      </trkpt>
      <trkpt lat="49.68032" lon="-1.84801">
        <ele>138.80000305176</ele>
        <time>2019-08-08T10:33:23.000Z</time>
      </trkpt>
      <trkpt lat="49.68045" lon="-1.84726">
        <ele>136</ele>
        <time>2019-08-08T10:33:31.000Z</time>
      </trkpt>
      <trkpt lat="49.68055" lon="-1.84666">
        <ele>133</ele>
        <time>2019-08-08T10:33:36.000Z</time>
      </trkpt>
      <trkpt lat="49.68066" lon="-1.84596">
        <ele>128.60000610352</ele>
        <time>2019-08-08T10:33:42.000Z</time>
      </trkpt>
      <trkpt lat="49.68078" lon="-1.84518">
        <ele>124.19999694824</ele>
        <time>2019-08-08T10:33:48.000Z</time>
      </trkpt>
      <trkpt lat="49.68089" lon="-1.84442">
        <ele>119.80000305176</ele>
        <time>2019-08-08T10:33:53.000Z</time>
      </trkpt>
      <trkpt lat="49.68092" lon="-1.84373">
        <ele>116</ele>
        <time>2019-08-08T10:33:57.000Z</time>
      </trkpt>
      <trkpt lat="49.68091" lon="-1.84281">
        <ele>112.19999694824</ele>
        <time>2019-08-08T10:34:01.000Z</time>
      </trkpt>
      <trkpt lat="49.68081" lon="-1.84202">
        <ele>112.59999847412</ele>
        <time>2019-08-08T10:34:07.000Z</time>
      </trkpt>
      <trkpt lat="49.68066" lon="-1.84135">
        <ele>114.40000152588</ele>
        <time>2019-08-08T10:34:15.000Z</time>
      </trkpt>
      <trkpt lat="49.68066" lon="-1.84065">
        <ele>117</ele>
        <time>2019-08-08T10:34:28.000Z</time>
      </trkpt>
      <trkpt lat="49.68075" lon="-1.84005">
        <ele>120.40000152588</ele>
        <time>2019-08-08T10:34:39.000Z</time>
      </trkpt>
      <trkpt lat="49.68088" lon="-1.83933">
        <ele>124.40000152588</ele>
        <time>2019-08-08T10:34:52.000Z</time>
      </trkpt>
      <trkpt lat="49.68099" lon="-1.83863">
        <ele>127.40000152588</ele>
        <time>2019-08-08T10:35:03.000Z</time>
      </trkpt>
      <trkpt lat="49.681" lon="-1.83856">
        <ele>127.59999847412</ele>
        <time>2019-08-08T10:35:04.000Z</time>
      </trkpt>
      <trkpt lat="49.681" lon="-1.83849">
        <ele>127.80000305176</ele>
        <time>2019-08-08T10:35:05.000Z</time>
      </trkpt>
      <trkpt lat="49.68101" lon="-1.83837">
        <ele>128.39999389648</ele>
        <time>2019-08-08T10:35:07.000Z</time>
      </trkpt>
      <trkpt lat="49.68099" lon="-1.83823">
        <ele>129</ele>
        <time>2019-08-08T10:35:09.000Z</time>
      </trkpt>
      <trkpt lat="49.68099" lon="-1.83817">
        <ele>129.19999694824</ele>
        <time>2019-08-08T10:35:10.000Z</time>
      </trkpt>
      <trkpt lat="49.68098" lon="-1.83811">
        <ele>129.19999694824</ele>
        <time>2019-08-08T10:35:11.000Z</time>
      </trkpt>
      <trkpt lat="49.68082" lon="-1.83771">
        <ele>130.39999389648</ele>
        <time>2019-08-08T10:35:23.000Z</time>
      </trkpt>
      <trkpt lat="49.68078" lon="-1.83745">
        <ele>132.19999694824</ele>
        <time>2019-08-08T10:35:29.000Z</time>
      </trkpt>
      <trkpt lat="49.68049" lon="-1.83689">
        <ele>135.80000305176</ele>
        <time>2019-08-08T10:35:43.000Z</time>
      </trkpt>
      <trkpt lat="49.68017" lon="-1.83639">
        <ele>138.39999389648</ele>
        <time>2019-08-08T10:35:57.000Z</time>
      </trkpt>
      <trkpt lat="49.68007" lon="-1.83623">
        <ele>138.80000305176</ele>
        <time>2019-08-08T10:36:01.000Z</time>
      </trkpt>
      <trkpt lat="49.67994" lon="-1.83604">
        <ele>139.60000610352</ele>
        <time>2019-08-08T10:36:08.000Z</time>
      </trkpt>
      <trkpt lat="49.67976" lon="-1.83576">
        <ele>141.39999389648</ele>
        <time>2019-08-08T10:36:16.000Z</time>
      </trkpt>
      <trkpt lat="49.67951" lon="-1.83519">
        <ele>143.80000305176</ele>
        <time>2019-08-08T10:36:33.000Z</time>
      </trkpt>
      <trkpt lat="49.67941" lon="-1.83492">
        <ele>144.60000610352</ele>
        <time>2019-08-08T10:36:40.000Z</time>
      </trkpt>
      <trkpt lat="49.67933" lon="-1.83469">
        <ele>144.19999694824</ele>
        <time>2019-08-08T10:36:46.000Z</time>
      </trkpt>
      <trkpt lat="49.67913" lon="-1.83407">
        <ele>144.39999389648</ele>
        <time>2019-08-08T10:37:01.000Z</time>
      </trkpt>
      <trkpt lat="49.67891" lon="-1.83342">
        <ele>145.19999694824</ele>
        <time>2019-08-08T10:37:14.000Z</time>
      </trkpt>
      <trkpt lat="49.67869" lon="-1.83278">
        <ele>145</ele>
        <time>2019-08-08T10:37:26.000Z</time>
      </trkpt>
      <trkpt lat="49.67863" lon="-1.83262">
        <ele>144.39999389648</ele>
        <time>2019-08-08T10:37:29.000Z</time>
      </trkpt>
      <trkpt lat="49.67831" lon="-1.8321">
        <ele>144.39999389648</ele>
        <time>2019-08-08T10:37:44.000Z</time>
      </trkpt>
      <trkpt lat="49.67819" lon="-1.83193">
        <ele>144.39999389648</ele>
        <time>2019-08-08T10:37:50.000Z</time>
      </trkpt>
      <trkpt lat="49.67821" lon="-1.83186">
        <ele>144.39999389648</ele>
        <time>2019-08-08T10:37:52.000Z</time>
      </trkpt>
      <trkpt lat="49.67866" lon="-1.83152">
        <ele>144</ele>
        <time>2019-08-08T10:38:02.000Z</time>
      </trkpt>
      <trkpt lat="49.67913" lon="-1.83121">
        <ele>140.80000305176</ele>
        <time>2019-08-08T10:38:08.000Z</time>
      </trkpt>
      <trkpt lat="49.67941" lon="-1.83105">
        <ele>138.80000305176</ele>
        <time>2019-08-08T10:38:11.000Z</time>
      </trkpt>
      <trkpt lat="49.67961" lon="-1.83095">
        <ele>137.39999389648</ele>
        <time>2019-08-08T10:38:13.000Z</time>
      </trkpt>
      <trkpt lat="49.67972" lon="-1.83089">
        <ele>136.60000610352</ele>
        <time>2019-08-08T10:38:14.000Z</time>
      </trkpt>
      <trkpt lat="49.67982" lon="-1.83084">
        <ele>135.60000610352</ele>
        <time>2019-08-08T10:38:15.000Z</time>
      </trkpt>
      <trkpt lat="49.68015" lon="-1.8307">
        <ele>133.19999694824</ele>
        <time>2019-08-08T10:38:18.000Z</time>
      </trkpt>
      <trkpt lat="49.68037" lon="-1.83062">
        <ele>131.80000305176</ele>
        <time>2019-08-08T10:38:20.000Z</time>
      </trkpt>
      <trkpt lat="49.68069" lon="-1.83048">
        <ele>130.39999389648</ele>
        <time>2019-08-08T10:38:23.000Z</time>
      </trkpt>
      <trkpt lat="49.68122" lon="-1.83027">
        <ele>128.39999389648</ele>
        <time>2019-08-08T10:38:28.000Z</time>
      </trkpt>
      <trkpt lat="49.68132" lon="-1.83024">
        <ele>128.19999694824</ele>
        <time>2019-08-08T10:38:29.000Z</time>
      </trkpt>
      <trkpt lat="49.68162" lon="-1.83015">
        <ele>127.40000152588</ele>
        <time>2019-08-08T10:38:31.000Z</time>
      </trkpt>
      <trkpt lat="49.68162" lon="-1.83015">
        <ele>127.40000152588</ele>
        <time>2019-08-08T10:38:32.000Z</time>
      </trkpt>
      <trkpt lat="49.68171" lon="-1.83012">
        <ele>127.19999694824</ele>
        <time>2019-08-08T10:38:33.000Z</time>
      </trkpt>
      <trkpt lat="49.68218" lon="-1.82989">
        <ele>125.40000152588</ele>
        <time>2019-08-08T10:38:38.000Z</time>
      </trkpt>
      <trkpt lat="49.68264" lon="-1.82961">
        <ele>123.80000305176</ele>
        <time>2019-08-08T10:38:43.000Z</time>
      </trkpt>
      <trkpt lat="49.68302" lon="-1.82936">
        <ele>122</ele>
        <time>2019-08-08T10:38:47.000Z</time>
      </trkpt>
      <trkpt lat="49.68322" lon="-1.82922">
        <ele>120.80000305176</ele>
        <time>2019-08-08T10:38:49.000Z</time>
      </trkpt>
      <trkpt lat="49.68331" lon="-1.82914">
        <ele>120.40000152588</ele>
        <time>2019-08-08T10:38:50.000Z</time>
      </trkpt>
      <trkpt lat="49.68341" lon="-1.82907">
        <ele>119.80000305176</ele>
        <time>2019-08-08T10:38:51.000Z</time>
      </trkpt>
      <trkpt lat="49.68351" lon="-1.829">
        <ele>118.80000305176</ele>
        <time>2019-08-08T10:38:52.000Z</time>
      </trkpt>
      <trkpt lat="49.6837" lon="-1.82883">
        <ele>117</ele>
        <time>2019-08-08T10:38:54.000Z</time>
      </trkpt>
      <trkpt lat="49.6838" lon="-1.82875">
        <ele>116.19999694824</ele>
        <time>2019-08-08T10:38:55.000Z</time>
      </trkpt>
      <trkpt lat="49.68408" lon="-1.82846">
        <ele>113.80000305176</ele>
        <time>2019-08-08T10:38:58.000Z</time>
      </trkpt>
      <trkpt lat="49.68452" lon="-1.8281">
        <ele>110.19999694824</ele>
        <time>2019-08-08T10:39:03.000Z</time>
      </trkpt>
      <trkpt lat="49.68461" lon="-1.82804">
        <ele>110</ele>
        <time>2019-08-08T10:39:04.000Z</time>
      </trkpt>
      <trkpt lat="49.68484" lon="-1.82789">
        <ele>109.40000152588</ele>
        <time>2019-08-08T10:39:07.000Z</time>
      </trkpt>
      <trkpt lat="49.68501" lon="-1.82775">
        <ele>108.80000305176</ele>
        <time>2019-08-08T10:39:10.000Z</time>
      </trkpt>
      <trkpt lat="49.68508" lon="-1.82759">
        <ele>107.80000305176</ele>
        <time>2019-08-08T10:39:12.000Z</time>
      </trkpt>
      <trkpt lat="49.68508" lon="-1.82739">
        <ele>106.59999847412</ele>
        <time>2019-08-08T10:39:14.000Z</time>
      </trkpt>
      <trkpt lat="49.68503" lon="-1.82718">
        <ele>105.59999847412</ele>
        <time>2019-08-08T10:39:16.000Z</time>
      </trkpt>
      <trkpt lat="49.68497" lon="-1.82701">
        <ele>104.80000305176</ele>
        <time>2019-08-08T10:39:18.000Z</time>
      </trkpt>
      <trkpt lat="49.68494" lon="-1.82694">
        <ele>104.19999694824</ele>
        <time>2019-08-08T10:39:19.000Z</time>
      </trkpt>
      <trkpt lat="49.68488" lon="-1.82679">
        <ele>103.19999694824</ele>
        <time>2019-08-08T10:39:21.000Z</time>
      </trkpt>
      <trkpt lat="49.68484" lon="-1.82671">
        <ele>102.59999847412</ele>
        <time>2019-08-08T10:39:22.000Z</time>
      </trkpt>
      <trkpt lat="49.6848" lon="-1.82663">
        <ele>102</ele>
        <time>2019-08-08T10:39:23.000Z</time>
      </trkpt>
      <trkpt lat="49.68477" lon="-1.82654">
        <ele>101.59999847412</ele>
        <time>2019-08-08T10:39:24.000Z</time>
      </trkpt>
      <trkpt lat="49.68473" lon="-1.82646">
        <ele>101</ele>
        <time>2019-08-08T10:39:25.000Z</time>
      </trkpt>
      <trkpt lat="49.68469" lon="-1.82638">
        <ele>100.59999847412</ele>
        <time>2019-08-08T10:39:26.000Z</time>
      </trkpt>
      <trkpt lat="49.68464" lon="-1.82629">
        <ele>100</ele>
        <time>2019-08-08T10:39:27.000Z</time>
      </trkpt>
      <trkpt lat="49.6846" lon="-1.8262">
        <ele>99.400001525879</ele>
        <time>2019-08-08T10:39:28.000Z</time>
      </trkpt>
      <trkpt lat="49.68429" lon="-1.82559">
        <ele>97.199996948242</ele>
        <time>2019-08-08T10:39:34.000Z</time>
      </trkpt>
      <trkpt lat="49.68404" lon="-1.82517">
        <ele>98.199996948242</ele>
        <time>2019-08-08T10:39:38.000Z</time>
      </trkpt>
      <trkpt lat="49.68377" lon="-1.82479">
        <ele>102.80000305176</ele>
        <time>2019-08-08T10:39:42.000Z</time>
      </trkpt>
      <trkpt lat="49.68355" lon="-1.82414">
        <ele>106.40000152588</ele>
        <time>2019-08-08T10:39:51.000Z</time>
      </trkpt>
      <trkpt lat="49.68346" lon="-1.82381">
        <ele>108</ele>
        <time>2019-08-08T10:39:58.000Z</time>
      </trkpt>
      <trkpt lat="49.68333" lon="-1.82351">
        <ele>110.19999694824</ele>
        <time>2019-08-08T10:40:06.000Z</time>
      </trkpt>
      <trkpt lat="49.68308" lon="-1.82302">
        <ele>113.40000152588</ele>
        <time>2019-08-08T10:40:19.000Z</time>
      </trkpt>
      <trkpt lat="49.68297" lon="-1.82284">
        <ele>114.19999694824</ele>
        <time>2019-08-08T10:40:24.000Z</time>
      </trkpt>
      <trkpt lat="49.68281" lon="-1.82252">
        <ele>114.80000305176</ele>
        <time>2019-08-08T10:40:31.000Z</time>
      </trkpt>
      <trkpt lat="49.68268" lon="-1.82231">
        <ele>114.80000305176</ele>
        <time>2019-08-08T10:40:37.000Z</time>
      </trkpt>
      <trkpt lat="49.6825" lon="-1.82214">
        <ele>115.19999694824</ele>
        <time>2019-08-08T10:40:43.000Z</time>
      </trkpt>
      <trkpt lat="49.68248" lon="-1.82209">
        <ele>115</ele>
        <time>2019-08-08T10:40:44.000Z</time>
      </trkpt>
      <trkpt lat="49.68244" lon="-1.82196">
        <ele>114.59999847412</ele>
        <time>2019-08-08T10:40:46.000Z</time>
      </trkpt>
      <trkpt lat="49.68236" lon="-1.82163">
        <ele>114.59999847412</ele>
        <time>2019-08-08T10:40:51.000Z</time>
      </trkpt>
      <trkpt lat="49.68228" lon="-1.82134">
        <ele>114.80000305176</ele>
        <time>2019-08-08T10:40:56.000Z</time>
      </trkpt>
      <trkpt lat="49.68224" lon="-1.82121">
        <ele>114.59999847412</ele>
        <time>2019-08-08T10:40:58.000Z</time>
      </trkpt>
      <trkpt lat="49.68222" lon="-1.82114">
        <ele>114.40000152588</ele>
        <time>2019-08-08T10:40:59.000Z</time>
      </trkpt>
      <trkpt lat="49.68219" lon="-1.821">
        <ele>114</ele>
        <time>2019-08-08T10:41:00.000Z</time>
      </trkpt>
      <trkpt lat="49.6821" lon="-1.82069">
        <ele>113.40000152588</ele>
        <time>2019-08-08T10:41:05.000Z</time>
      </trkpt>
      <trkpt lat="49.68207" lon="-1.8206">
        <ele>113.40000152588</ele>
        <time>2019-08-08T10:41:06.000Z</time>
      </trkpt>
      <trkpt lat="49.68205" lon="-1.82053">
        <ele>113.40000152588</ele>
        <time>2019-08-08T10:41:07.000Z</time>
      </trkpt>
      <trkpt lat="49.68202" lon="-1.82045">
        <ele>113.40000152588</ele>
        <time>2019-08-08T10:41:08.000Z</time>
      </trkpt>
      <trkpt lat="49.68198" lon="-1.8204">
        <ele>113.40000152588</ele>
        <time>2019-08-08T10:41:09.000Z</time>
      </trkpt>
      <trkpt lat="49.68193" lon="-1.82037">
        <ele>113.59999847412</ele>
        <time>2019-08-08T10:41:10.000Z</time>
      </trkpt>
      <trkpt lat="49.68185" lon="-1.82038">
        <ele>114</ele>
        <time>2019-08-08T10:41:12.000Z</time>
      </trkpt>
      <trkpt lat="49.68181" lon="-1.82039">
        <ele>114.19999694824</ele>
        <time>2019-08-08T10:41:13.000Z</time>
      </trkpt>
      <trkpt lat="49.68178" lon="-1.8204">
        <ele>114.40000152588</ele>
        <time>2019-08-08T10:41:14.000Z</time>
      </trkpt>
      <trkpt lat="49.68175" lon="-1.8204">
        <ele>114.59999847412</ele>
        <time>2019-08-08T10:41:15.000Z</time>
      </trkpt>
      <trkpt lat="49.68172" lon="-1.82041">
        <ele>114.80000305176</ele>
        <time>2019-08-08T10:41:16.000Z</time>
      </trkpt>
      <trkpt lat="49.68169" lon="-1.82041">
        <ele>114.80000305176</ele>
        <time>2019-08-08T10:41:17.000Z</time>
      </trkpt>
      <trkpt lat="49.68156" lon="-1.82039">
        <ele>115.40000152588</ele>
        <time>2019-08-08T10:41:21.000Z</time>
      </trkpt>
      <trkpt lat="49.68153" lon="-1.82038">
        <ele>115.59999847412</ele>
        <time>2019-08-08T10:41:22.000Z</time>
      </trkpt>
      <trkpt lat="49.6815" lon="-1.82037">
        <ele>115.80000305176</ele>
        <time>2019-08-08T10:41:23.000Z</time>
      </trkpt>
      <trkpt lat="49.68145" lon="-1.82035">
        <ele>116</ele>
        <time>2019-08-08T10:41:25.000Z</time>
      </trkpt>
      <trkpt lat="49.68142" lon="-1.82034">
        <ele>116</ele>
        <time>2019-08-08T10:41:26.000Z</time>
      </trkpt>
      <trkpt lat="49.68139" lon="-1.82033">
        <ele>116.19999694824</ele>
        <time>2019-08-08T10:41:27.000Z</time>
      </trkpt>
      <trkpt lat="49.68136" lon="-1.82031">
        <ele>116.19999694824</ele>
        <time>2019-08-08T10:41:28.000Z</time>
      </trkpt>
      <trkpt lat="49.68133" lon="-1.8203">
        <ele>116.40000152588</ele>
        <time>2019-08-08T10:41:29.000Z</time>
      </trkpt>
      <trkpt lat="49.68103" lon="-1.82024">
        <ele>118.40000152588</ele>
        <time>2019-08-08T10:41:39.000Z</time>
      </trkpt>
      <trkpt lat="49.68079" lon="-1.82028">
        <ele>120.80000305176</ele>
        <time>2019-08-08T10:41:46.000Z</time>
      </trkpt>
      <trkpt lat="49.68069" lon="-1.82032">
        <ele>122</ele>
        <time>2019-08-08T10:41:49.000Z</time>
      </trkpt>
      <trkpt lat="49.68049" lon="-1.82041">
        <ele>124.19999694824</ele>
        <time>2019-08-08T10:41:55.000Z</time>
      </trkpt>
      <trkpt lat="49.68015" lon="-1.82066">
        <ele>127.40000152588</ele>
        <time>2019-08-08T10:42:07.000Z</time>
      </trkpt>
      <trkpt lat="49.68002" lon="-1.82077">
        <ele>128.39999389648</ele>
        <time>2019-08-08T10:42:12.000Z</time>
      </trkpt>
      <trkpt lat="49.67982" lon="-1.82097">
        <ele>129.19999694824</ele>
        <time>2019-08-08T10:42:20.000Z</time>
      </trkpt>
      <trkpt lat="49.67969" lon="-1.8211">
        <ele>130</ele>
        <time>2019-08-08T10:42:25.000Z</time>
      </trkpt>
      <trkpt lat="49.67943" lon="-1.82131">
        <ele>130.19999694824</ele>
        <time>2019-08-08T10:42:34.000Z</time>
      </trkpt>
      <trkpt lat="49.67921" lon="-1.82152">
        <ele>129</ele>
        <time>2019-08-08T10:42:41.000Z</time>
      </trkpt>
      <trkpt lat="49.67883" lon="-1.82192">
        <ele>128.80000305176</ele>
        <time>2019-08-08T10:42:51.000Z</time>
      </trkpt>
      <trkpt lat="49.67847" lon="-1.82226">
        <ele>129.19999694824</ele>
        <time>2019-08-08T10:42:59.000Z</time>
      </trkpt>
      <trkpt lat="49.67829" lon="-1.82241">
        <ele>129.80000305176</ele>
        <time>2019-08-08T10:43:03.000Z</time>
      </trkpt>
      <trkpt lat="49.67784" lon="-1.82271">
        <ele>131.60000610352</ele>
        <time>2019-08-08T10:43:13.000Z</time>
      </trkpt>
      <trkpt lat="49.67749" lon="-1.82274">
        <ele>131</ele>
        <time>2019-08-08T10:43:23.000Z</time>
      </trkpt>
      <trkpt lat="49.67721" lon="-1.82215">
        <ele>125.59999847412</ele>
        <time>2019-08-08T10:43:30.000Z</time>
      </trkpt>
      <trkpt lat="49.67692" lon="-1.82159">
        <ele>120.80000305176</ele>
        <time>2019-08-08T10:43:35.000Z</time>
      </trkpt>
      <trkpt lat="49.67659" lon="-1.82095">
        <ele>110.59999847412</ele>
        <time>2019-08-08T10:43:40.000Z</time>
      </trkpt>
      <trkpt lat="49.67649" lon="-1.82063">
        <ele>106</ele>
        <time>2019-08-08T10:43:43.000Z</time>
      </trkpt>
      <trkpt lat="49.67649" lon="-1.82043">
        <ele>103.40000152588</ele>
        <time>2019-08-08T10:43:45.000Z</time>
      </trkpt>
      <trkpt lat="49.67654" lon="-1.82024">
        <ele>103.40000152588</ele>
        <time>2019-08-08T10:43:47.000Z</time>
      </trkpt>
      <trkpt lat="49.67663" lon="-1.8201">
        <ele>103.59999847412</ele>
        <time>2019-08-08T10:43:49.000Z</time>
      </trkpt>
      <trkpt lat="49.67684" lon="-1.81993">
        <ele>104.80000305176</ele>
        <time>2019-08-08T10:43:52.000Z</time>
      </trkpt>
      <trkpt lat="49.67696" lon="-1.81972">
        <ele>103.40000152588</ele>
        <time>2019-08-08T10:43:54.000Z</time>
      </trkpt>
      <trkpt lat="49.67717" lon="-1.81906">
        <ele>98.199996948242</ele>
        <time>2019-08-08T10:43:59.000Z</time>
      </trkpt>
      <trkpt lat="49.67747" lon="-1.81841">
        <ele>95.800003051758</ele>
        <time>2019-08-08T10:44:03.000Z</time>
      </trkpt>
      <trkpt lat="49.67774" lon="-1.81777">
        <ele>91.599998474121</ele>
        <time>2019-08-08T10:44:07.000Z</time>
      </trkpt>
      <trkpt lat="49.67801" lon="-1.81715">
        <ele>88.599998474121</ele>
        <time>2019-08-08T10:44:11.000Z</time>
      </trkpt>
      <trkpt lat="49.6782" lon="-1.81655">
        <ele>90.599998474121</ele>
        <time>2019-08-08T10:44:15.000Z</time>
      </trkpt>
      <trkpt lat="49.67827" lon="-1.81595">
        <ele>88.400001525879</ele>
        <time>2019-08-08T10:44:19.000Z</time>
      </trkpt>
      <trkpt lat="49.67826" lon="-1.81582">
        <ele>89.199996948242</ele>
        <time>2019-08-08T10:44:21.000Z</time>
      </trkpt>
      <trkpt lat="49.67822" lon="-1.81531">
        <ele>92.599998474121</ele>
        <time>2019-08-08T10:44:25.000Z</time>
      </trkpt>
      <trkpt lat="49.67823" lon="-1.81523">
        <ele>93</ele>
        <time>2019-08-08T10:44:27.000Z</time>
      </trkpt>
      <trkpt lat="49.6783" lon="-1.81506">
        <ele>93</ele>
        <time>2019-08-08T10:44:29.000Z</time>
      </trkpt>
      <trkpt lat="49.67862" lon="-1.81485">
        <ele>89</ele>
        <time>2019-08-08T10:44:42.000Z</time>
      </trkpt>
      <trkpt lat="49.6791" lon="-1.81486">
        <ele>85</ele>
        <time>2019-08-08T10:44:59.000Z</time>
      </trkpt>
      <trkpt lat="49.67946" lon="-1.81487">
        <ele>82.800003051758</ele>
        <time>2019-08-08T10:45:12.000Z</time>
      </trkpt>
      <trkpt lat="49.67991" lon="-1.81464">
        <ele>85.400001525879</ele>
        <time>2019-08-08T10:45:26.000Z</time>
      </trkpt>
      <trkpt lat="49.68028" lon="-1.81423">
        <ele>92</ele>
        <time>2019-08-08T10:45:41.000Z</time>
      </trkpt>
      <trkpt lat="49.68029" lon="-1.81419">
        <ele>92.599998474121</ele>
        <time>2019-08-08T10:45:42.000Z</time>
      </trkpt>
      <trkpt lat="49.6803" lon="-1.81415">
        <ele>93.400001525879</ele>
        <time>2019-08-08T10:45:43.000Z</time>
      </trkpt>
      <trkpt lat="49.68028" lon="-1.81394">
        <ele>96.400001525879</ele>
        <time>2019-08-08T10:45:48.000Z</time>
      </trkpt>
      <trkpt lat="49.68024" lon="-1.81382">
        <ele>97.599998474121</ele>
        <time>2019-08-08T10:45:51.000Z</time>
      </trkpt>
      <trkpt lat="49.68023" lon="-1.81379">
        <ele>98</ele>
        <time>2019-08-08T10:45:52.000Z</time>
      </trkpt>
      <trkpt lat="49.68022" lon="-1.81375">
        <ele>98.400001525879</ele>
        <time>2019-08-08T10:45:53.000Z</time>
      </trkpt>
      <trkpt lat="49.6802" lon="-1.81367">
        <ele>99.199996948242</ele>
        <time>2019-08-08T10:45:55.000Z</time>
      </trkpt>
      <trkpt lat="49.68018" lon="-1.81363">
        <ele>99.599998474121</ele>
        <time>2019-08-08T10:45:56.000Z</time>
      </trkpt>
      <trkpt lat="49.6801" lon="-1.8134">
        <ele>102.59999847412</ele>
        <time>2019-08-08T10:46:02.000Z</time>
      </trkpt>
      <trkpt lat="49.68001" lon="-1.81318">
        <ele>106.19999694824</ele>
        <time>2019-08-08T10:46:08.000Z</time>
      </trkpt>
      <trkpt lat="49.67996" lon="-1.81308">
        <ele>107</ele>
        <time>2019-08-08T10:46:11.000Z</time>
      </trkpt>
      <trkpt lat="49.67975" lon="-1.81269">
        <ele>111.19999694824</ele>
        <time>2019-08-08T10:46:22.000Z</time>
      </trkpt>
      <trkpt lat="49.67957" lon="-1.81227">
        <ele>114.59999847412</ele>
        <time>2019-08-08T10:46:32.000Z</time>
      </trkpt>
      <trkpt lat="49.6794" lon="-1.81201">
        <ele>115.40000152588</ele>
        <time>2019-08-08T10:46:41.000Z</time>
      </trkpt>
      <trkpt lat="49.67933" lon="-1.81189">
        <ele>115.59999847412</ele>
        <time>2019-08-08T10:46:44.000Z</time>
      </trkpt>
      <trkpt lat="49.67926" lon="-1.81177">
        <ele>116</ele>
        <time>2019-08-08T10:46:47.000Z</time>
      </trkpt>
      <trkpt lat="49.67889" lon="-1.81138">
        <ele>119.40000152588</ele>
        <time>2019-08-08T10:47:01.000Z</time>
      </trkpt>
      <trkpt lat="49.67846" lon="-1.81117">
        <ele>121.80000305176</ele>
        <time>2019-08-08T10:47:16.000Z</time>
      </trkpt>
      <trkpt lat="49.67836" lon="-1.81093">
        <ele>122.80000305176</ele>
        <time>2019-08-08T10:47:22.000Z</time>
      </trkpt>
      <trkpt lat="49.67828" lon="-1.81062">
        <ele>125.19999694824</ele>
        <time>2019-08-08T10:47:29.000Z</time>
      </trkpt>
      <trkpt lat="49.67824" lon="-1.81043">
        <ele>126.59999847412</ele>
        <time>2019-08-08T10:47:33.000Z</time>
      </trkpt>
      <trkpt lat="49.67808" lon="-1.80975">
        <ele>131.19999694824</ele>
        <time>2019-08-08T10:47:48.000Z</time>
      </trkpt>
      <trkpt lat="49.6779" lon="-1.80906">
        <ele>135.39999389648</ele>
        <time>2019-08-08T10:48:02.000Z</time>
      </trkpt>
      <trkpt lat="49.67789" lon="-1.80901">
        <ele>135.80000305176</ele>
        <time>2019-08-08T10:48:03.000Z</time>
      </trkpt>
      <trkpt lat="49.6778" lon="-1.80874">
        <ele>136.19999694824</ele>
        <time>2019-08-08T10:48:08.000Z</time>
      </trkpt>
      <trkpt lat="49.67768" lon="-1.80831">
        <ele>136.80000305176</ele>
        <time>2019-08-08T10:48:16.000Z</time>
      </trkpt>
      <trkpt lat="49.67764" lon="-1.80814">
        <ele>137.19999694824</ele>
        <time>2019-08-08T10:48:19.000Z</time>
      </trkpt>
      <trkpt lat="49.67759" lon="-1.80784">
        <ele>136.80000305176</ele>
        <time>2019-08-08T10:48:24.000Z</time>
      </trkpt>
      <trkpt lat="49.67753" lon="-1.80753">
        <ele>137</ele>
        <time>2019-08-08T10:48:29.000Z</time>
      </trkpt>
      <trkpt lat="49.67752" lon="-1.80747">
        <ele>137.19999694824</ele>
        <time>2019-08-08T10:48:30.000Z</time>
      </trkpt>
      <trkpt lat="49.6775" lon="-1.80741">
        <ele>137.39999389648</ele>
        <time>2019-08-08T10:48:31.000Z</time>
      </trkpt>
      <trkpt lat="49.67748" lon="-1.80728">
        <ele>138</ele>
        <time>2019-08-08T10:48:32.000Z</time>
      </trkpt>
      <trkpt lat="49.67748" lon="-1.80728">
        <ele>138</ele>
        <time>2019-08-08T10:48:33.000Z</time>
      </trkpt>
      <trkpt lat="49.67733" lon="-1.80659">
        <ele>140.19999694824</ele>
        <time>2019-08-08T10:48:45.000Z</time>
      </trkpt>
      <trkpt lat="49.67727" lon="-1.80628">
        <ele>141.60000610352</ele>
        <time>2019-08-08T10:48:51.000Z</time>
      </trkpt>
      <trkpt lat="49.67725" lon="-1.80618">
        <ele>141.80000305176</ele>
        <time>2019-08-08T10:48:53.000Z</time>
      </trkpt>
      <trkpt lat="49.67721" lon="-1.80603">
        <ele>142.39999389648</ele>
        <time>2019-08-08T10:48:56.000Z</time>
      </trkpt>
      <trkpt lat="49.67717" lon="-1.80594">
        <ele>142.80000305176</ele>
        <time>2019-08-08T10:48:58.000Z</time>
      </trkpt>
      <trkpt lat="49.67712" lon="-1.80581">
        <ele>143.39999389648</ele>
        <time>2019-08-08T10:49:01.000Z</time>
      </trkpt>
      <trkpt lat="49.6771" lon="-1.80576">
        <ele>143.60000610352</ele>
        <time>2019-08-08T10:49:02.000Z</time>
      </trkpt>
      <trkpt lat="49.67708" lon="-1.80572">
        <ele>143.80000305176</ele>
        <time>2019-08-08T10:49:03.000Z</time>
      </trkpt>
      <trkpt lat="49.67701" lon="-1.80559">
        <ele>144.19999694824</ele>
        <time>2019-08-08T10:49:06.000Z</time>
      </trkpt>
      <trkpt lat="49.67697" lon="-1.80549">
        <ele>144.60000610352</ele>
        <time>2019-08-08T10:49:08.000Z</time>
      </trkpt>
      <trkpt lat="49.67673" lon="-1.80487">
        <ele>146</ele>
        <time>2019-08-08T10:49:20.000Z</time>
      </trkpt>
      <trkpt lat="49.6766" lon="-1.8046">
        <ele>145.80000305176</ele>
        <time>2019-08-08T10:49:25.000Z</time>
      </trkpt>
      <trkpt lat="49.67641" lon="-1.80431">
        <ele>146.19999694824</ele>
        <time>2019-08-08T10:49:31.000Z</time>
      </trkpt>
      <trkpt lat="49.67607" lon="-1.8038">
        <ele>146.60000610352</ele>
        <time>2019-08-08T10:49:42.000Z</time>
      </trkpt>
      <trkpt lat="49.67599" lon="-1.80366">
        <ele>146.39999389648</ele>
        <time>2019-08-08T10:49:45.000Z</time>
      </trkpt>
      <trkpt lat="49.67584" lon="-1.80329">
        <ele>145.60000610352</ele>
        <time>2019-08-08T10:49:52.000Z</time>
      </trkpt>
      <trkpt lat="49.6757" lon="-1.80297">
        <ele>145.39999389648</ele>
        <time>2019-08-08T10:49:58.000Z</time>
      </trkpt>
      <trkpt lat="49.6756" lon="-1.80275">
        <ele>145.19999694824</ele>
        <time>2019-08-08T10:50:02.000Z</time>
      </trkpt>
      <trkpt lat="49.67531" lon="-1.80208">
        <ele>143.19999694824</ele>
        <time>2019-08-08T10:50:12.000Z</time>
      </trkpt>
      <trkpt lat="49.67507" lon="-1.80143">
        <ele>140.19999694824</ele>
        <time>2019-08-08T10:50:22.000Z</time>
      </trkpt>
      <trkpt lat="49.67495" lon="-1.80109">
        <ele>139.39999389648</ele>
        <time>2019-08-08T10:50:27.000Z</time>
      </trkpt>
      <trkpt lat="49.67478" lon="-1.80093">
        <ele>138</ele>
        <time>2019-08-08T10:50:33.000Z</time>
      </trkpt>
      <trkpt lat="49.67474" lon="-1.80024">
        <ele>136.80000305176</ele>
        <time>2019-08-08T10:50:44.000Z</time>
      </trkpt>
      <trkpt lat="49.67471" lon="-1.80016">
        <ele>136.80000305176</ele>
        <time>2019-08-08T10:50:46.000Z</time>
      </trkpt>
      <trkpt lat="49.67429" lon="-1.80006">
        <ele>135.80000305176</ele>
        <time>2019-08-08T10:51:03.000Z</time>
      </trkpt>
      <trkpt lat="49.67412" lon="-1.79938">
        <ele>136.19999694824</ele>
        <time>2019-08-08T10:51:15.000Z</time>
      </trkpt>
      <trkpt lat="49.67408" lon="-1.7992">
        <ele>136.39999389648</ele>
        <time>2019-08-08T10:51:18.000Z</time>
      </trkpt>
      <trkpt lat="49.6741" lon="-1.79863">
        <ele>136</ele>
        <time>2019-08-08T10:51:26.000Z</time>
      </trkpt>
      <trkpt lat="49.67408" lon="-1.79847">
        <ele>136.19999694824</ele>
        <time>2019-08-08T10:51:28.000Z</time>
      </trkpt>
      <trkpt lat="49.67388" lon="-1.79784">
        <ele>135.39999389648</ele>
        <time>2019-08-08T10:51:36.000Z</time>
      </trkpt>
      <trkpt lat="49.67367" lon="-1.79723">
        <ele>135.39999389648</ele>
        <time>2019-08-08T10:51:43.000Z</time>
      </trkpt>
      <trkpt lat="49.67337" lon="-1.79662">
        <ele>133.60000610352</ele>
        <time>2019-08-08T10:51:50.000Z</time>
      </trkpt>
      <trkpt lat="49.67308" lon="-1.79606">
        <ele>131.60000610352</ele>
        <time>2019-08-08T10:51:56.000Z</time>
      </trkpt>
      <trkpt lat="49.67285" lon="-1.79538">
        <ele>128.80000305176</ele>
        <time>2019-08-08T10:52:02.000Z</time>
      </trkpt>
      <trkpt lat="49.67263" lon="-1.79461">
        <ele>125.40000152588</ele>
        <time>2019-08-08T10:52:08.000Z</time>
      </trkpt>
      <trkpt lat="49.67245" lon="-1.79392">
        <ele>120.59999847412</ele>
        <time>2019-08-08T10:52:13.000Z</time>
      </trkpt>
      <trkpt lat="49.67225" lon="-1.79319">
        <ele>116.59999847412</ele>
        <time>2019-08-08T10:52:18.000Z</time>
      </trkpt>
      <trkpt lat="49.67204" lon="-1.79243">
        <ele>110.40000152588</ele>
        <time>2019-08-08T10:52:23.000Z</time>
      </trkpt>
      <trkpt lat="49.67186" lon="-1.79201">
        <ele>111</ele>
        <time>2019-08-08T10:52:26.000Z</time>
      </trkpt>
      <trkpt lat="49.6717" lon="-1.79182">
        <ele>112.19999694824</ele>
        <time>2019-08-08T10:52:28.000Z</time>
      </trkpt>
      <trkpt lat="49.67133" lon="-1.79152">
        <ele>116.59999847412</ele>
        <time>2019-08-08T10:52:32.000Z</time>
      </trkpt>
      <trkpt lat="49.67128" lon="-1.79146">
        <ele>117.19999694824</ele>
        <time>2019-08-08T10:52:34.000Z</time>
      </trkpt>
      <trkpt lat="49.67122" lon="-1.79133">
        <ele>118.19999694824</ele>
        <time>2019-08-08T10:52:36.000Z</time>
      </trkpt>
      <trkpt lat="49.67107" lon="-1.79063">
        <ele>121.19999694824</ele>
        <time>2019-08-08T10:52:48.000Z</time>
      </trkpt>
      <trkpt lat="49.67106" lon="-1.79058">
        <ele>121.40000152588</ele>
        <time>2019-08-08T10:52:49.000Z</time>
      </trkpt>
      <trkpt lat="49.67103" lon="-1.79053">
        <ele>121.59999847412</ele>
        <time>2019-08-08T10:52:50.000Z</time>
      </trkpt>
      <trkpt lat="49.67101" lon="-1.79048">
        <ele>121.80000305176</ele>
        <time>2019-08-08T10:52:51.000Z</time>
      </trkpt>
      <trkpt lat="49.67099" lon="-1.79044">
        <ele>122</ele>
        <time>2019-08-08T10:52:52.000Z</time>
      </trkpt>
      <trkpt lat="49.67093" lon="-1.79036">
        <ele>122.59999847412</ele>
        <time>2019-08-08T10:52:54.000Z</time>
      </trkpt>
      <trkpt lat="49.67076" lon="-1.79016">
        <ele>124.40000152588</ele>
        <time>2019-08-08T10:53:00.000Z</time>
      </trkpt>
      <trkpt lat="49.67074" lon="-1.79013">
        <ele>124.59999847412</ele>
        <time>2019-08-08T10:53:01.000Z</time>
      </trkpt>
      <trkpt lat="49.67064" lon="-1.79001">
        <ele>125.40000152588</ele>
        <time>2019-08-08T10:53:05.000Z</time>
      </trkpt>
      <trkpt lat="49.67059" lon="-1.78996">
        <ele>126</ele>
        <time>2019-08-08T10:53:07.000Z</time>
      </trkpt>
      <trkpt lat="49.67054" lon="-1.78987">
        <ele>126.59999847412</ele>
        <time>2019-08-08T10:53:10.000Z</time>
      </trkpt>
      <trkpt lat="49.67055" lon="-1.78975">
        <ele>126.59999847412</ele>
        <time>2019-08-08T10:53:13.000Z</time>
      </trkpt>
      <trkpt lat="49.67074" lon="-1.7891">
        <ele>125.80000305176</ele>
        <time>2019-08-08T10:53:26.000Z</time>
      </trkpt>
      <trkpt lat="49.67092" lon="-1.78845">
        <ele>125.80000305176</ele>
        <time>2019-08-08T10:53:37.000Z</time>
      </trkpt>
      <trkpt lat="49.67097" lon="-1.78814">
        <ele>125.80000305176</ele>
        <time>2019-08-08T10:53:43.000Z</time>
      </trkpt>
      <trkpt lat="49.67101" lon="-1.78785">
        <ele>125.80000305176</ele>
        <time>2019-08-08T10:53:49.000Z</time>
      </trkpt>
      <trkpt lat="49.67103" lon="-1.78754">
        <ele>126</ele>
        <time>2019-08-08T10:53:56.000Z</time>
      </trkpt>
      <trkpt lat="49.671" lon="-1.78722">
        <ele>127</ele>
        <time>2019-08-08T10:54:04.000Z</time>
      </trkpt>
      <trkpt lat="49.67098" lon="-1.78703">
        <ele>127.59999847412</ele>
        <time>2019-08-08T10:54:09.000Z</time>
      </trkpt>
      <trkpt lat="49.671" lon="-1.78668">
        <ele>128.19999694824</ele>
        <time>2019-08-08T10:54:14.000Z</time>
      </trkpt>
      <trkpt lat="49.67087" lon="-1.78605">
        <ele>127.59999847412</ele>
        <time>2019-08-08T10:54:28.000Z</time>
      </trkpt>
      <trkpt lat="49.67083" lon="-1.78532">
        <ele>129</ele>
        <time>2019-08-08T10:54:43.000Z</time>
      </trkpt>
      <trkpt lat="49.67081" lon="-1.78512">
        <ele>129.19999694824</ele>
        <time>2019-08-08T10:54:47.000Z</time>
      </trkpt>
      <trkpt lat="49.6708" lon="-1.78498">
        <ele>129.39999389648</ele>
        <time>2019-08-08T10:54:50.000Z</time>
      </trkpt>
      <trkpt lat="49.67074" lon="-1.78453">
        <ele>129.39999389648</ele>
        <time>2019-08-08T10:54:59.000Z</time>
      </trkpt>
      <trkpt lat="49.6707" lon="-1.78439">
        <ele>129.19999694824</ele>
        <time>2019-08-08T10:55:02.000Z</time>
      </trkpt>
      <trkpt lat="49.67067" lon="-1.7843">
        <ele>129.19999694824</ele>
        <time>2019-08-08T10:55:04.000Z</time>
      </trkpt>
      <trkpt lat="49.67065" lon="-1.78426">
        <ele>129</ele>
        <time>2019-08-08T10:55:05.000Z</time>
      </trkpt>
      <trkpt lat="49.67064" lon="-1.78422">
        <ele>129</ele>
        <time>2019-08-08T10:55:06.000Z</time>
      </trkpt>
      <trkpt lat="49.67063" lon="-1.78417">
        <ele>128.80000305176</ele>
        <time>2019-08-08T10:55:07.000Z</time>
      </trkpt>
      <trkpt lat="49.6706" lon="-1.78409">
        <ele>128.80000305176</ele>
        <time>2019-08-08T10:55:09.000Z</time>
      </trkpt>
      <trkpt lat="49.67058" lon="-1.78405">
        <ele>128.80000305176</ele>
        <time>2019-08-08T10:55:10.000Z</time>
      </trkpt>
      <trkpt lat="49.67054" lon="-1.78397">
        <ele>128.80000305176</ele>
        <time>2019-08-08T10:55:12.000Z</time>
      </trkpt>
      <trkpt lat="49.67044" lon="-1.78383">
        <ele>128.60000610352</ele>
        <time>2019-08-08T10:55:16.000Z</time>
      </trkpt>
      <trkpt lat="49.67039" lon="-1.78376">
        <ele>128.19999694824</ele>
        <time>2019-08-08T10:55:18.000Z</time>
      </trkpt>
      <trkpt lat="49.67037" lon="-1.78372">
        <ele>128</ele>
        <time>2019-08-08T10:55:19.000Z</time>
      </trkpt>
      <trkpt lat="49.67033" lon="-1.78364">
        <ele>127.40000152588</ele>
        <time>2019-08-08T10:55:21.000Z</time>
      </trkpt>
      <trkpt lat="49.67026" lon="-1.7835">
        <ele>126.40000152588</ele>
        <time>2019-08-08T10:55:24.000Z</time>
      </trkpt>
      <trkpt lat="49.67024" lon="-1.78345">
        <ele>126.19999694824</ele>
        <time>2019-08-08T10:55:25.000Z</time>
      </trkpt>
      <trkpt lat="49.67025" lon="-1.78298">
        <ele>123</ele>
        <time>2019-08-08T10:55:34.000Z</time>
      </trkpt>
      <trkpt lat="49.67037" lon="-1.78275">
        <ele>121.80000305176</ele>
        <time>2019-08-08T10:55:38.000Z</time>
      </trkpt>
      <trkpt lat="49.67046" lon="-1.78257">
        <ele>120.80000305176</ele>
        <time>2019-08-08T10:55:41.000Z</time>
      </trkpt>
      <trkpt lat="49.67049" lon="-1.78251">
        <ele>120.59999847412</ele>
        <time>2019-08-08T10:55:42.000Z</time>
      </trkpt>
      <trkpt lat="49.67057" lon="-1.78226">
        <ele>120</ele>
        <time>2019-08-08T10:55:46.000Z</time>
      </trkpt>
      <trkpt lat="49.67057" lon="-1.7822">
        <ele>120</ele>
        <time>2019-08-08T10:55:47.000Z</time>
      </trkpt>
      <trkpt lat="49.67057" lon="-1.78214">
        <ele>119.80000305176</ele>
        <time>2019-08-08T10:55:48.000Z</time>
      </trkpt>
      <trkpt lat="49.67045" lon="-1.7819">
        <ele>117.59999847412</ele>
        <time>2019-08-08T10:55:53.000Z</time>
      </trkpt>
      <trkpt lat="49.67034" lon="-1.78177">
        <ele>116</ele>
        <time>2019-08-08T10:55:56.000Z</time>
      </trkpt>
      <trkpt lat="49.67031" lon="-1.78172">
        <ele>115.59999847412</ele>
        <time>2019-08-08T10:55:57.000Z</time>
      </trkpt>
      <trkpt lat="49.67023" lon="-1.78162">
        <ele>115.19999694824</ele>
        <time>2019-08-08T10:55:59.000Z</time>
      </trkpt>
      <trkpt lat="49.67" lon="-1.78102">
        <ele>114.19999694824</ele>
        <time>2019-08-08T10:56:06.000Z</time>
      </trkpt>
      <trkpt lat="49.66994" lon="-1.78087">
        <ele>113.80000305176</ele>
        <time>2019-08-08T10:56:08.000Z</time>
      </trkpt>
      <trkpt lat="49.66985" lon="-1.78076">
        <ele>113.80000305176</ele>
        <time>2019-08-08T10:56:10.000Z</time>
      </trkpt>
      <trkpt lat="49.66972" lon="-1.78067">
        <ele>113.80000305176</ele>
        <time>2019-08-08T10:56:13.000Z</time>
      </trkpt>
      <trkpt lat="49.66952" lon="-1.78016">
        <ele>112</ele>
        <time>2019-08-08T10:56:25.000Z</time>
      </trkpt>
      <trkpt lat="49.66926" lon="-1.77958">
        <ele>114</ele>
        <time>2019-08-08T10:56:39.000Z</time>
      </trkpt>
      <trkpt lat="49.66907" lon="-1.77924">
        <ele>116</ele>
        <time>2019-08-08T10:56:48.000Z</time>
      </trkpt>
      <trkpt lat="49.66874" lon="-1.77874">
        <ele>120.40000152588</ele>
        <time>2019-08-08T10:57:03.000Z</time>
      </trkpt>
      <trkpt lat="49.66859" lon="-1.77842">
        <ele>123.40000152588</ele>
        <time>2019-08-08T10:57:11.000Z</time>
      </trkpt>
      <trkpt lat="49.66855" lon="-1.77835">
        <ele>124</ele>
        <time>2019-08-08T10:57:13.000Z</time>
      </trkpt>
      <trkpt lat="49.66853" lon="-1.77832">
        <ele>124.19999694824</ele>
        <time>2019-08-08T10:57:14.000Z</time>
      </trkpt>
      <trkpt lat="49.6685" lon="-1.7783">
        <ele>124.59999847412</ele>
        <time>2019-08-08T10:57:15.000Z</time>
      </trkpt>
      <trkpt lat="49.66848" lon="-1.77828">
        <ele>124.80000305176</ele>
        <time>2019-08-08T10:57:16.000Z</time>
      </trkpt>
      <trkpt lat="49.66845" lon="-1.77827">
        <ele>125</ele>
        <time>2019-08-08T10:57:17.000Z</time>
      </trkpt>
      <trkpt lat="49.66843" lon="-1.77826">
        <ele>125.19999694824</ele>
        <time>2019-08-08T10:57:18.000Z</time>
      </trkpt>
      <trkpt lat="49.66826" lon="-1.77825">
        <ele>126.59999847412</ele>
        <time>2019-08-08T10:57:26.000Z</time>
      </trkpt>
      <trkpt lat="49.66805" lon="-1.77822">
        <ele>128.39999389648</ele>
        <time>2019-08-08T10:57:34.000Z</time>
      </trkpt>
      <trkpt lat="49.66802" lon="-1.77821">
        <ele>128.60000610352</ele>
        <time>2019-08-08T10:57:35.000Z</time>
      </trkpt>
      <trkpt lat="49.66798" lon="-1.77821">
        <ele>129</ele>
        <time>2019-08-08T10:57:36.000Z</time>
      </trkpt>
      <trkpt lat="49.66788" lon="-1.77818">
        <ele>129.80000305176</ele>
        <time>2019-08-08T10:57:39.000Z</time>
      </trkpt>
      <trkpt lat="49.66773" lon="-1.7776">
        <ele>130.19999694824</ele>
        <time>2019-08-08T10:57:53.000Z</time>
      </trkpt>
      <trkpt lat="49.66773" lon="-1.77742">
        <ele>129.80000305176</ele>
        <time>2019-08-08T10:57:56.000Z</time>
      </trkpt>
      <trkpt lat="49.6678" lon="-1.77673">
        <ele>129.39999389648</ele>
        <time>2019-08-08T10:58:08.000Z</time>
      </trkpt>
      <trkpt lat="49.66783" lon="-1.77627">
        <ele>129</ele>
        <time>2019-08-08T10:58:17.000Z</time>
      </trkpt>
      <trkpt lat="49.66763" lon="-1.77578">
        <ele>129.60000610352</ele>
        <time>2019-08-08T10:58:28.000Z</time>
      </trkpt>
      <trkpt lat="49.66758" lon="-1.77562">
        <ele>129.60000610352</ele>
        <time>2019-08-08T10:58:32.000Z</time>
      </trkpt>
      <trkpt lat="49.66749" lon="-1.77538">
        <ele>129.80000305176</ele>
        <time>2019-08-08T10:58:37.000Z</time>
      </trkpt>
      <trkpt lat="49.66745" lon="-1.77524">
        <ele>130</ele>
        <time>2019-08-08T10:58:40.000Z</time>
      </trkpt>
      <trkpt lat="49.66743" lon="-1.77453">
        <ele>128.60000610352</ele>
        <time>2019-08-08T10:58:53.000Z</time>
      </trkpt>
      <trkpt lat="49.66748" lon="-1.7743">
        <ele>128</ele>
        <time>2019-08-08T10:58:57.000Z</time>
      </trkpt>
      <trkpt lat="49.66761" lon="-1.7738">
        <ele>126.80000305176</ele>
        <time>2019-08-08T10:59:06.000Z</time>
      </trkpt>
      <trkpt lat="49.66737" lon="-1.77359">
        <ele>126.59999847412</ele>
        <time>2019-08-08T10:59:14.000Z</time>
      </trkpt>
      <trkpt lat="49.66705" lon="-1.7734">
        <ele>127.19999694824</ele>
        <time>2019-08-08T10:59:23.000Z</time>
      </trkpt>
      <trkpt lat="49.66704" lon="-1.7734">
        <ele>127.19999694824</ele>
        <time>2019-08-08T10:59:26.000Z</time>
      </trkpt>
      <trkpt lat="49.66699" lon="-1.77338">
        <ele>127.40000152588</ele>
        <time>2019-08-08T11:01:20.000Z</time>
      </trkpt>
      <trkpt lat="49.66684" lon="-1.7733">
        <ele>127.80000305176</ele>
        <time>2019-08-08T11:01:26.000Z</time>
      </trkpt>
      <trkpt lat="49.66671" lon="-1.77323">
        <ele>128.19999694824</ele>
        <time>2019-08-08T11:01:31.000Z</time>
      </trkpt>
      <trkpt lat="49.6666" lon="-1.77316">
        <ele>128.39999389648</ele>
        <time>2019-08-08T11:01:35.000Z</time>
      </trkpt>
      <trkpt lat="49.66645" lon="-1.77308">
        <ele>128.80000305176</ele>
        <time>2019-08-08T11:01:41.000Z</time>
      </trkpt>
      <trkpt lat="49.66636" lon="-1.77302">
        <ele>129</ele>
        <time>2019-08-08T11:01:46.000Z</time>
      </trkpt>
      <trkpt lat="49.66633" lon="-1.77301">
        <ele>129</ele>
        <time>2019-08-08T11:01:48.000Z</time>
      </trkpt>
      <trkpt lat="49.66627" lon="-1.77287">
        <ele>129</ele>
        <time>2019-08-08T11:01:54.000Z</time>
      </trkpt>
      <trkpt lat="49.66633" lon="-1.77271">
        <ele>128.39999389648</ele>
        <time>2019-08-08T11:02:00.000Z</time>
      </trkpt>
      <trkpt lat="49.66645" lon="-1.77237">
        <ele>127</ele>
        <time>2019-08-08T11:02:07.000Z</time>
      </trkpt>
      <trkpt lat="49.66652" lon="-1.77215">
        <ele>126.19999694824</ele>
        <time>2019-08-08T11:02:10.000Z</time>
      </trkpt>
      <trkpt lat="49.66666" lon="-1.77173">
        <ele>124.40000152588</ele>
        <time>2019-08-08T11:02:15.000Z</time>
      </trkpt>
      <trkpt lat="49.66676" lon="-1.77146">
        <ele>123</ele>
        <time>2019-08-08T11:02:18.000Z</time>
      </trkpt>
      <trkpt lat="49.66691" lon="-1.77097">
        <ele>121</ele>
        <time>2019-08-08T11:02:22.000Z</time>
      </trkpt>
      <trkpt lat="49.66706" lon="-1.77024">
        <ele>117.19999694824</ele>
        <time>2019-08-08T11:02:29.000Z</time>
      </trkpt>
      <trkpt lat="49.66722" lon="-1.76948">
        <ele>114</ele>
        <time>2019-08-08T11:02:35.000Z</time>
      </trkpt>
      <trkpt lat="49.66745" lon="-1.76877">
        <ele>111.59999847412</ele>
        <time>2019-08-08T11:02:41.000Z</time>
      </trkpt>
      <trkpt lat="49.66767" lon="-1.76836">
        <ele>110.80000305176</ele>
        <time>2019-08-08T11:02:45.000Z</time>
      </trkpt>
      <trkpt lat="49.66781" lon="-1.7682">
        <ele>110.59999847412</ele>
        <time>2019-08-08T11:02:47.000Z</time>
      </trkpt>
      <trkpt lat="49.66832" lon="-1.76794">
        <ele>110.19999694824</ele>
        <time>2019-08-08T11:02:53.000Z</time>
      </trkpt>
      <trkpt lat="49.66839" lon="-1.76788">
        <ele>110</ele>
        <time>2019-08-08T11:02:54.000Z</time>
      </trkpt>
      <trkpt lat="49.66852" lon="-1.76772">
        <ele>109.59999847412</ele>
        <time>2019-08-08T11:02:56.000Z</time>
      </trkpt>
      <trkpt lat="49.66861" lon="-1.76755">
        <ele>109.40000152588</ele>
        <time>2019-08-08T11:02:58.000Z</time>
      </trkpt>
      <trkpt lat="49.66886" lon="-1.76694">
        <ele>108.40000152588</ele>
        <time>2019-08-08T11:03:06.000Z</time>
      </trkpt>
      <trkpt lat="49.66912" lon="-1.76633">
        <ele>107.80000305176</ele>
        <time>2019-08-08T11:03:15.000Z</time>
      </trkpt>
      <trkpt lat="49.66929" lon="-1.76605">
        <ele>107.80000305176</ele>
        <time>2019-08-08T11:03:19.000Z</time>
      </trkpt>
      <trkpt lat="49.66947" lon="-1.7659">
        <ele>108</ele>
        <time>2019-08-08T11:03:22.000Z</time>
      </trkpt>
      <trkpt lat="49.66992" lon="-1.76575">
        <ele>107.19999694824</ele>
        <time>2019-08-08T11:03:28.000Z</time>
      </trkpt>
      <trkpt lat="49.67038" lon="-1.76561">
        <ele>105.59999847412</ele>
        <time>2019-08-08T11:03:34.000Z</time>
      </trkpt>
      <trkpt lat="49.67076" lon="-1.76532">
        <ele>103.19999694824</ele>
        <time>2019-08-08T11:03:39.000Z</time>
      </trkpt>
      <trkpt lat="49.67111" lon="-1.7648">
        <ele>100</ele>
        <time>2019-08-08T11:03:44.000Z</time>
      </trkpt>
      <trkpt lat="49.67136" lon="-1.76439">
        <ele>97.800003051758</ele>
        <time>2019-08-08T11:03:48.000Z</time>
      </trkpt>
      <trkpt lat="49.67176" lon="-1.76401">
        <ele>95.599998474121</ele>
        <time>2019-08-08T11:03:53.000Z</time>
      </trkpt>
      <trkpt lat="49.6722" lon="-1.76364">
        <ele>93.199996948242</ele>
        <time>2019-08-08T11:03:58.000Z</time>
      </trkpt>
      <trkpt lat="49.67262" lon="-1.76331">
        <ele>90.400001525879</ele>
        <time>2019-08-08T11:04:03.000Z</time>
      </trkpt>
      <trkpt lat="49.67304" lon="-1.76304">
        <ele>87.800003051758</ele>
        <time>2019-08-08T11:04:08.000Z</time>
      </trkpt>
      <trkpt lat="49.67351" lon="-1.76292">
        <ele>84.400001525879</ele>
        <time>2019-08-08T11:04:12.000Z</time>
      </trkpt>
      <trkpt lat="49.67396" lon="-1.76284">
        <ele>80.400001525879</ele>
        <time>2019-08-08T11:04:16.000Z</time>
      </trkpt>
      <trkpt lat="49.6743" lon="-1.76274">
        <ele>77.599998474121</ele>
        <time>2019-08-08T11:04:20.000Z</time>
      </trkpt>
      <trkpt lat="49.67453" lon="-1.76259">
        <ele>75.800003051758</ele>
        <time>2019-08-08T11:04:22.000Z</time>
      </trkpt>
      <trkpt lat="49.67492" lon="-1.76212">
        <ele>71.800003051758</ele>
        <time>2019-08-08T11:04:30.000Z</time>
      </trkpt>
      <trkpt lat="49.67502" lon="-1.76205">
        <ele>71</ele>
        <time>2019-08-08T11:04:31.000Z</time>
      </trkpt>
      <trkpt lat="49.67519" lon="-1.76198">
        <ele>69.800003051758</ele>
        <time>2019-08-08T11:04:35.000Z</time>
      </trkpt>
      <trkpt lat="49.67552" lon="-1.762">
        <ele>67.400001525879</ele>
        <time>2019-08-08T11:04:40.000Z</time>
      </trkpt>
      <trkpt lat="49.67597" lon="-1.76229">
        <ele>62.599998474121</ele>
        <time>2019-08-08T11:04:46.000Z</time>
      </trkpt>
      <trkpt lat="49.67614" lon="-1.7623">
        <ele>60.799999237061</ele>
        <time>2019-08-08T11:04:48.000Z</time>
      </trkpt>
      <trkpt lat="49.67637" lon="-1.76227">
        <ele>58.400001525879</ele>
        <time>2019-08-08T11:04:51.000Z</time>
      </trkpt>
      <trkpt lat="49.6765" lon="-1.76231">
        <ele>56</ele>
        <time>2019-08-08T11:04:53.000Z</time>
      </trkpt>
      <trkpt lat="49.67662" lon="-1.76241">
        <ele>54.200000762939</ele>
        <time>2019-08-08T11:04:55.000Z</time>
      </trkpt>
      <trkpt lat="49.67678" lon="-1.76261">
        <ele>53.599998474121</ele>
        <time>2019-08-08T11:04:57.000Z</time>
      </trkpt>
      <trkpt lat="49.67698" lon="-1.7629">
        <ele>48.599998474121</ele>
        <time>2019-08-08T11:05:04.000Z</time>
      </trkpt>
      <trkpt lat="49.67703" lon="-1.76284">
        <ele>47.400001525879</ele>
        <time>2019-08-08T11:05:07.000Z</time>
      </trkpt>
      <trkpt lat="49.67712" lon="-1.76255">
        <ele>45.400001525879</ele>
        <time>2019-08-08T11:05:13.000Z</time>
      </trkpt>
      <trkpt lat="49.67741" lon="-1.76201">
        <ele>41</ele>
        <time>2019-08-08T11:05:20.000Z</time>
      </trkpt>
      <trkpt lat="49.67765" lon="-1.76145">
        <ele>38.400001525879</ele>
        <time>2019-08-08T11:05:25.000Z</time>
      </trkpt>
      <trkpt lat="49.67775" lon="-1.76065">
        <ele>35.599998474121</ele>
        <time>2019-08-08T11:05:31.000Z</time>
      </trkpt>
      <trkpt lat="49.67778" lon="-1.75986">
        <ele>28.39999961853</ele>
        <time>2019-08-08T11:05:37.000Z</time>
      </trkpt>
      <trkpt lat="49.67774" lon="-1.75917">
        <ele>24.60000038147</ele>
        <time>2019-08-08T11:05:42.000Z</time>
      </trkpt>
      <trkpt lat="49.67765" lon="-1.75828">
        <ele>21.60000038147</ele>
        <time>2019-08-08T11:05:49.000Z</time>
      </trkpt>
      <trkpt lat="49.67743" lon="-1.75763">
        <ele>22.39999961853</ele>
        <time>2019-08-08T11:05:56.000Z</time>
      </trkpt>
      <trkpt lat="49.67721" lon="-1.75698">
        <ele>23.799999237061</ele>
        <time>2019-08-08T11:06:04.000Z</time>
      </trkpt>
      <trkpt lat="49.67705" lon="-1.75651">
        <ele>24.60000038147</ele>
        <time>2019-08-08T11:06:10.000Z</time>
      </trkpt>
      <trkpt lat="49.67698" lon="-1.75628">
        <ele>25</ele>
        <time>2019-08-08T11:06:13.000Z</time>
      </trkpt>
      <trkpt lat="49.67692" lon="-1.75614">
        <ele>25.60000038147</ele>
        <time>2019-08-08T11:06:15.000Z</time>
      </trkpt>
      <trkpt lat="49.6769" lon="-1.75607">
        <ele>25.799999237061</ele>
        <time>2019-08-08T11:06:16.000Z</time>
      </trkpt>
      <trkpt lat="49.67682" lon="-1.75581">
        <ele>26.60000038147</ele>
        <time>2019-08-08T11:06:20.000Z</time>
      </trkpt>
      <trkpt lat="49.6768" lon="-1.75575">
        <ele>26.799999237061</ele>
        <time>2019-08-08T11:06:21.000Z</time>
      </trkpt>
      <trkpt lat="49.67676" lon="-1.75564">
        <ele>27.200000762939</ele>
        <time>2019-08-08T11:06:23.000Z</time>
      </trkpt>
      <trkpt lat="49.67674" lon="-1.75558">
        <ele>27.39999961853</ele>
        <time>2019-08-08T11:06:24.000Z</time>
      </trkpt>
      <trkpt lat="49.67673" lon="-1.75553">
        <ele>27.799999237061</ele>
        <time>2019-08-08T11:06:25.000Z</time>
      </trkpt>
      <trkpt lat="49.67671" lon="-1.75548">
        <ele>28.200000762939</ele>
        <time>2019-08-08T11:06:26.000Z</time>
      </trkpt>
      <trkpt lat="49.67669" lon="-1.75543">
        <ele>28.39999961853</ele>
        <time>2019-08-08T11:06:27.000Z</time>
      </trkpt>
      <trkpt lat="49.67662" lon="-1.75523">
        <ele>30</ele>
        <time>2019-08-08T11:06:31.000Z</time>
      </trkpt>
      <trkpt lat="49.67646" lon="-1.75456">
        <ele>35.599998474121</ele>
        <time>2019-08-08T11:06:44.000Z</time>
      </trkpt>
      <trkpt lat="49.67643" lon="-1.75384">
        <ele>35.200000762939</ele>
        <time>2019-08-08T11:06:55.000Z</time>
      </trkpt>
      <trkpt lat="49.67646" lon="-1.75308">
        <ele>31.39999961853</ele>
        <time>2019-08-08T11:07:03.000Z</time>
      </trkpt>
      <trkpt lat="49.67651" lon="-1.75278">
        <ele>28.39999961853</ele>
        <time>2019-08-08T11:07:08.000Z</time>
      </trkpt>
      <trkpt lat="49.67656" lon="-1.75274">
        <ele>27</ele>
        <time>2019-08-08T11:07:10.000Z</time>
      </trkpt>
      <trkpt lat="49.67703" lon="-1.75255">
        <ele>14.39999961853</ele>
        <time>2019-08-08T11:07:21.000Z</time>
      </trkpt>
      <trkpt lat="49.6775" lon="-1.75234">
        <ele>10</ele>
        <time>2019-08-08T11:07:28.000Z</time>
      </trkpt>
      <trkpt lat="49.67797" lon="-1.75215">
        <ele>6.1999998092651</ele>
        <time>2019-08-08T11:07:37.000Z</time>
      </trkpt>
      <trkpt lat="49.67816" lon="-1.75211">
        <ele>5.1999998092651</ele>
        <time>2019-08-08T11:07:48.000Z</time>
      </trkpt>
      <trkpt lat="49.67826" lon="-1.75204">
        <ele>4.5999999046326</ele>
        <time>2019-08-08T11:07:57.000Z</time>
      </trkpt>
      <trkpt lat="49.67837" lon="-1.75207">
        <ele>4</ele>
        <time>2019-08-08T11:46:30.000Z</time>
      </trkpt>
      <trkpt lat="49.67823" lon="-1.75203">
        <ele>4.8000001907349</ele>
        <time>2019-08-08T11:46:36.000Z</time>
      </trkpt>
      <trkpt lat="49.67795" lon="-1.75216">
        <ele>6.4000000953674</ele>
        <time>2019-08-08T11:49:24.000Z</time>
      </trkpt>
      <trkpt lat="49.67793" lon="-1.75217">
        <ele>6.4000000953674</ele>
        <time>2019-08-08T11:49:25.000Z</time>
      </trkpt>
      <trkpt lat="49.67778" lon="-1.75226">
        <ele>7.5999999046326</ele>
        <time>2019-08-08T11:49:31.000Z</time>
      </trkpt>
      <trkpt lat="49.67767" lon="-1.75229">
        <ele>8.6000003814697</ele>
        <time>2019-08-08T11:49:35.000Z</time>
      </trkpt>
      <trkpt lat="49.67761" lon="-1.75232">
        <ele>9</ele>
        <time>2019-08-08T11:49:37.000Z</time>
      </trkpt>
      <trkpt lat="49.67758" lon="-1.75233">
        <ele>9.3999996185303</ele>
        <time>2019-08-08T11:49:38.000Z</time>
      </trkpt>
      <trkpt lat="49.67739" lon="-1.75242">
        <ele>11.199999809265</ele>
        <time>2019-08-08T11:49:45.000Z</time>
      </trkpt>
      <trkpt lat="49.67733" lon="-1.75245">
        <ele>11.60000038147</ele>
        <time>2019-08-08T11:49:47.000Z</time>
      </trkpt>
      <trkpt lat="49.67724" lon="-1.75249">
        <ele>12.39999961853</ele>
        <time>2019-08-08T11:49:50.000Z</time>
      </trkpt>
      <trkpt lat="49.67719" lon="-1.75252">
        <ele>13</ele>
        <time>2019-08-08T11:49:52.000Z</time>
      </trkpt>
      <trkpt lat="49.67714" lon="-1.75255">
        <ele>13.39999961853</ele>
        <time>2019-08-08T11:49:54.000Z</time>
      </trkpt>
      <trkpt lat="49.67699" lon="-1.75263">
        <ele>15.800000190735</ele>
        <time>2019-08-08T11:50:00.000Z</time>
      </trkpt>
      <trkpt lat="49.67686" lon="-1.75269">
        <ele>19.60000038147</ele>
        <time>2019-08-08T11:50:05.000Z</time>
      </trkpt>
      <trkpt lat="49.67682" lon="-1.75271">
        <ele>20.60000038147</ele>
        <time>2019-08-08T11:50:06.000Z</time>
      </trkpt>
      <trkpt lat="49.67679" lon="-1.75272">
        <ele>21.60000038147</ele>
        <time>2019-08-08T11:50:07.000Z</time>
      </trkpt>
      <trkpt lat="49.67662" lon="-1.75277">
        <ele>26</ele>
        <time>2019-08-08T11:50:11.000Z</time>
      </trkpt>
      <trkpt lat="49.67657" lon="-1.75277">
        <ele>27.200000762939</ele>
        <time>2019-08-08T11:50:13.000Z</time>
      </trkpt>
      <trkpt lat="49.67655" lon="-1.75277">
        <ele>27.60000038147</ele>
        <time>2019-08-08T11:50:17.000Z</time>
      </trkpt>
      <trkpt lat="49.6765" lon="-1.75268">
        <ele>27.799999237061</ele>
        <time>2019-08-08T11:50:23.000Z</time>
      </trkpt>
      <trkpt lat="49.6765" lon="-1.75265">
        <ele>27.39999961853</ele>
        <time>2019-08-08T11:50:24.000Z</time>
      </trkpt>
      <trkpt lat="49.6765" lon="-1.75261">
        <ele>27.200000762939</ele>
        <time>2019-08-08T11:50:25.000Z</time>
      </trkpt>
      <trkpt lat="49.6765" lon="-1.75259">
        <ele>26.799999237061</ele>
        <time>2019-08-08T11:50:26.000Z</time>
      </trkpt>
      <trkpt lat="49.67653" lon="-1.75247">
        <ele>25.200000762939</ele>
        <time>2019-08-08T11:50:30.000Z</time>
      </trkpt>
      <trkpt lat="49.6766" lon="-1.75177">
        <ele>19.799999237061</ele>
        <time>2019-08-08T11:50:44.000Z</time>
      </trkpt>
      <trkpt lat="49.67655" lon="-1.75106">
        <ele>17</ele>
        <time>2019-08-08T11:50:53.000Z</time>
      </trkpt>
      <trkpt lat="49.6764" lon="-1.75035">
        <ele>17.39999961853</ele>
        <time>2019-08-08T11:51:02.000Z</time>
      </trkpt>
      <trkpt lat="49.67619" lon="-1.74967">
        <ele>17.799999237061</ele>
        <time>2019-08-08T11:51:12.000Z</time>
      </trkpt>
      <trkpt lat="49.676" lon="-1.74901">
        <ele>19.200000762939</ele>
        <time>2019-08-08T11:51:22.000Z</time>
      </trkpt>
      <trkpt lat="49.67582" lon="-1.74833">
        <ele>20.60000038147</ele>
        <time>2019-08-08T11:51:32.000Z</time>
      </trkpt>
      <trkpt lat="49.6757" lon="-1.74793">
        <ele>20.60000038147</ele>
        <time>2019-08-08T11:51:38.000Z</time>
      </trkpt>
      <trkpt lat="49.67566" lon="-1.74779">
        <ele>20.799999237061</ele>
        <time>2019-08-08T11:51:40.000Z</time>
      </trkpt>
      <trkpt lat="49.6756" lon="-1.74759">
        <ele>21.60000038147</ele>
        <time>2019-08-08T11:51:43.000Z</time>
      </trkpt>
      <trkpt lat="49.67558" lon="-1.74753">
        <ele>21.799999237061</ele>
        <time>2019-08-08T11:51:44.000Z</time>
      </trkpt>
      <trkpt lat="49.67538" lon="-1.74707">
        <ele>23.39999961853</ele>
        <time>2019-08-08T11:51:52.000Z</time>
      </trkpt>
      <trkpt lat="49.67533" lon="-1.74696">
        <ele>23.799999237061</ele>
        <time>2019-08-08T11:51:54.000Z</time>
      </trkpt>
      <trkpt lat="49.67531" lon="-1.7469">
        <ele>24.200000762939</ele>
        <time>2019-08-08T11:51:55.000Z</time>
      </trkpt>
      <trkpt lat="49.67526" lon="-1.74677">
        <ele>24.799999237061</ele>
        <time>2019-08-08T11:51:57.000Z</time>
      </trkpt>
      <trkpt lat="49.67524" lon="-1.7467">
        <ele>25.200000762939</ele>
        <time>2019-08-08T11:51:58.000Z</time>
      </trkpt>
      <trkpt lat="49.67522" lon="-1.74663">
        <ele>25.200000762939</ele>
        <time>2019-08-08T11:51:59.000Z</time>
      </trkpt>
      <trkpt lat="49.6752" lon="-1.74656">
        <ele>25.39999961853</ele>
        <time>2019-08-08T11:52:00.000Z</time>
      </trkpt>
      <trkpt lat="49.67517" lon="-1.74641">
        <ele>25.39999961853</ele>
        <time>2019-08-08T11:52:02.000Z</time>
      </trkpt>
      <trkpt lat="49.67515" lon="-1.74633">
        <ele>25.200000762939</ele>
        <time>2019-08-08T11:52:03.000Z</time>
      </trkpt>
      <trkpt lat="49.67514" lon="-1.74626">
        <ele>25.200000762939</ele>
        <time>2019-08-08T11:52:04.000Z</time>
      </trkpt>
      <trkpt lat="49.67512" lon="-1.74617">
        <ele>25</ele>
        <time>2019-08-08T11:52:05.000Z</time>
      </trkpt>
      <trkpt lat="49.67499" lon="-1.74545">
        <ele>22.799999237061</ele>
        <time>2019-08-08T11:52:14.000Z</time>
      </trkpt>
      <trkpt lat="49.67495" lon="-1.7453">
        <ele>23</ele>
        <time>2019-08-08T11:52:16.000Z</time>
      </trkpt>
      <trkpt lat="49.67474" lon="-1.74462">
        <ele>19.200000762939</ele>
        <time>2019-08-08T11:52:26.000Z</time>
      </trkpt>
      <trkpt lat="49.67453" lon="-1.74399">
        <ele>16.799999237061</ele>
        <time>2019-08-08T11:52:37.000Z</time>
      </trkpt>
      <trkpt lat="49.67441" lon="-1.74372">
        <ele>17.200000762939</ele>
        <time>2019-08-08T11:52:42.000Z</time>
      </trkpt>
      <trkpt lat="49.67431" lon="-1.74352">
        <ele>17.60000038147</ele>
        <time>2019-08-08T11:52:46.000Z</time>
      </trkpt>
      <trkpt lat="49.67411" lon="-1.74341">
        <ele>18</ele>
        <time>2019-08-08T11:52:53.000Z</time>
      </trkpt>
      <trkpt lat="49.67393" lon="-1.7435">
        <ele>19.200000762939</ele>
        <time>2019-08-08T11:52:59.000Z</time>
      </trkpt>
      <trkpt lat="49.67373" lon="-1.74356">
        <ele>20.39999961853</ele>
        <time>2019-08-08T11:53:05.000Z</time>
      </trkpt>
      <trkpt lat="49.67337" lon="-1.74368">
        <ele>22.60000038147</ele>
        <time>2019-08-08T11:53:16.000Z</time>
      </trkpt>
      <trkpt lat="49.67324" lon="-1.74376">
        <ele>23.60000038147</ele>
        <time>2019-08-08T11:53:24.000Z</time>
      </trkpt>
      <trkpt lat="49.67318" lon="-1.74372">
        <ele>23.60000038147</ele>
        <time>2019-08-08T11:53:50.000Z</time>
      </trkpt>
      <trkpt lat="49.67305" lon="-1.74345">
        <ele>26.799999237061</ele>
        <time>2019-08-08T11:53:59.000Z</time>
      </trkpt>
      <trkpt lat="49.67304" lon="-1.74332">
        <ele>27.799999237061</ele>
        <time>2019-08-08T11:54:02.000Z</time>
      </trkpt>
      <trkpt lat="49.67287" lon="-1.74272">
        <ele>30.39999961853</ele>
        <time>2019-08-08T11:54:17.000Z</time>
      </trkpt>
      <trkpt lat="49.67286" lon="-1.74268">
        <ele>30.39999961853</ele>
        <time>2019-08-08T11:54:18.000Z</time>
      </trkpt>
      <trkpt lat="49.67285" lon="-1.74263">
        <ele>30.60000038147</ele>
        <time>2019-08-08T11:54:19.000Z</time>
      </trkpt>
      <trkpt lat="49.6728" lon="-1.74244">
        <ele>31.39999961853</ele>
        <time>2019-08-08T11:54:23.000Z</time>
      </trkpt>
      <trkpt lat="49.67278" lon="-1.74234">
        <ele>32</ele>
        <time>2019-08-08T11:54:25.000Z</time>
      </trkpt>
      <trkpt lat="49.67277" lon="-1.74229">
        <ele>32.400001525879</ele>
        <time>2019-08-08T11:54:26.000Z</time>
      </trkpt>
      <trkpt lat="49.67272" lon="-1.74204">
        <ele>33.200000762939</ele>
        <time>2019-08-08T11:54:31.000Z</time>
      </trkpt>
      <trkpt lat="49.67271" lon="-1.74188">
        <ele>33.200000762939</ele>
        <time>2019-08-08T11:54:34.000Z</time>
      </trkpt>
      <trkpt lat="49.67268" lon="-1.74156">
        <ele>34</ele>
        <time>2019-08-08T11:54:42.000Z</time>
      </trkpt>
      <trkpt lat="49.67269" lon="-1.74153">
        <ele>33.599998474121</ele>
        <time>2019-08-08T11:54:43.000Z</time>
      </trkpt>
      <trkpt lat="49.67274" lon="-1.74151">
        <ele>32</ele>
        <time>2019-08-08T11:54:45.000Z</time>
      </trkpt>
      <trkpt lat="49.67319" lon="-1.74152">
        <ele>24.799999237061</ele>
        <time>2019-08-08T11:54:56.000Z</time>
      </trkpt>
      <trkpt lat="49.67346" lon="-1.74153">
        <ele>22.200000762939</ele>
        <time>2019-08-08T11:55:01.000Z</time>
      </trkpt>
      <trkpt lat="49.67365" lon="-1.74155">
        <ele>20.60000038147</ele>
        <time>2019-08-08T11:55:05.000Z</time>
      </trkpt>
      <trkpt lat="49.67382" lon="-1.74153">
        <ele>19.200000762939</ele>
        <time>2019-08-08T11:55:12.000Z</time>
      </trkpt>
      <trkpt lat="49.67409" lon="-1.74177">
        <ele>17</ele>
        <time>2019-08-08T11:55:27.000Z</time>
      </trkpt>
      <trkpt lat="49.67419" lon="-1.74174">
        <ele>16.60000038147</ele>
        <time>2019-08-08T11:55:42.000Z</time>
      </trkpt>
      <trkpt lat="49.67462" lon="-1.74151">
        <ele>14.60000038147</ele>
        <time>2019-08-08T11:55:52.000Z</time>
      </trkpt>
      <trkpt lat="49.67499" lon="-1.74132">
        <ele>13.39999961853</ele>
        <time>2019-08-08T11:55:59.000Z</time>
      </trkpt>
      <trkpt lat="49.67545" lon="-1.7411">
        <ele>11.800000190735</ele>
        <time>2019-08-08T11:56:07.000Z</time>
      </trkpt>
      <trkpt lat="49.67567" lon="-1.74099">
        <ele>11.199999809265</ele>
        <time>2019-08-08T11:56:11.000Z</time>
      </trkpt>
      <trkpt lat="49.67572" lon="-1.74096">
        <ele>11.199999809265</ele>
        <time>2019-08-08T11:56:12.000Z</time>
      </trkpt>
      <trkpt lat="49.67614" lon="-1.74074">
        <ele>10.199999809265</ele>
        <time>2019-08-08T11:56:20.000Z</time>
      </trkpt>
      <trkpt lat="49.67624" lon="-1.74067">
        <ele>9.8000001907349</ele>
        <time>2019-08-08T11:56:22.000Z</time>
      </trkpt>
      <trkpt lat="49.67638" lon="-1.7406">
        <ele>9.3999996185303</ele>
        <time>2019-08-08T11:56:25.000Z</time>
      </trkpt>
      <trkpt lat="49.67658" lon="-1.74052">
        <ele>8.6000003814697</ele>
        <time>2019-08-08T11:56:29.000Z</time>
      </trkpt>
      <trkpt lat="49.67663" lon="-1.74049">
        <ele>8.3999996185303</ele>
        <time>2019-08-08T11:56:30.000Z</time>
      </trkpt>
      <trkpt lat="49.67668" lon="-1.74047">
        <ele>8.1999998092651</ele>
        <time>2019-08-08T11:56:31.000Z</time>
      </trkpt>
      <trkpt lat="49.67673" lon="-1.74045">
        <ele>8</ele>
        <time>2019-08-08T11:56:32.000Z</time>
      </trkpt>
      <trkpt lat="49.67678" lon="-1.74044">
        <ele>7.8000001907349</ele>
        <time>2019-08-08T11:56:33.000Z</time>
      </trkpt>
      <trkpt lat="49.67713" lon="-1.74027">
        <ele>6.8000001907349</ele>
        <time>2019-08-08T11:56:41.000Z</time>
      </trkpt>
      <trkpt lat="49.67713" lon="-1.74024">
        <ele>6.8000001907349</ele>
        <time>2019-08-08T11:56:42.000Z</time>
      </trkpt>
      <trkpt lat="49.67713" lon="-1.74021">
        <ele>6.8000001907349</ele>
        <time>2019-08-08T11:56:43.000Z</time>
      </trkpt>
      <trkpt lat="49.67705" lon="-1.73995">
        <ele>7</ele>
        <time>2019-08-08T11:56:48.000Z</time>
      </trkpt>
      <trkpt lat="49.67696" lon="-1.7395">
        <ele>6.8000001907349</ele>
        <time>2019-08-08T11:56:54.000Z</time>
      </trkpt>
      <trkpt lat="49.67686" lon="-1.7391">
        <ele>6.4000000953674</ele>
        <time>2019-08-08T11:56:59.000Z</time>
      </trkpt>
      <trkpt lat="49.67683" lon="-1.73901">
        <ele>6.4000000953674</ele>
        <time>2019-08-08T11:57:00.000Z</time>
      </trkpt>
      <trkpt lat="49.67676" lon="-1.73869">
        <ele>6.5999999046326</ele>
        <time>2019-08-08T11:57:04.000Z</time>
      </trkpt>
      <trkpt lat="49.67671" lon="-1.73848">
        <ele>6.8000001907349</ele>
        <time>2019-08-08T11:57:07.000Z</time>
      </trkpt>
      <trkpt lat="49.67669" lon="-1.73834">
        <ele>6.5999999046326</ele>
        <time>2019-08-08T11:57:09.000Z</time>
      </trkpt>
      <trkpt lat="49.67668" lon="-1.73827">
        <ele>6.5999999046326</ele>
        <time>2019-08-08T11:57:10.000Z</time>
      </trkpt>
      <trkpt lat="49.67666" lon="-1.73804">
        <ele>6.4000000953674</ele>
        <time>2019-08-08T11:57:13.000Z</time>
      </trkpt>
      <trkpt lat="49.67676" lon="-1.73731">
        <ele>6.4000000953674</ele>
        <time>2019-08-08T11:57:22.000Z</time>
      </trkpt>
      <trkpt lat="49.67678" lon="-1.73714">
        <ele>6.4000000953674</ele>
        <time>2019-08-08T11:57:24.000Z</time>
      </trkpt>
      <trkpt lat="49.67678" lon="-1.73706">
        <ele>6.4000000953674</ele>
        <time>2019-08-08T11:57:25.000Z</time>
      </trkpt>
      <trkpt lat="49.67678" lon="-1.73699">
        <ele>6.4000000953674</ele>
        <time>2019-08-08T11:57:26.000Z</time>
      </trkpt>
      <trkpt lat="49.67677" lon="-1.73683">
        <ele>6.4000000953674</ele>
        <time>2019-08-08T11:57:28.000Z</time>
      </trkpt>
      <trkpt lat="49.67671" lon="-1.73642">
        <ele>6.4000000953674</ele>
        <time>2019-08-08T11:57:37.000Z</time>
      </trkpt>
      <trkpt lat="49.67672" lon="-1.7364">
        <ele>6.4000000953674</ele>
        <time>2019-08-08T11:57:38.000Z</time>
      </trkpt>
      <trkpt lat="49.67693" lon="-1.73622">
        <ele>6.1999998092651</ele>
        <time>2019-08-08T11:57:46.000Z</time>
      </trkpt>
      <trkpt lat="49.67714" lon="-1.73589">
        <ele>6</ele>
        <time>2019-08-08T11:57:56.000Z</time>
      </trkpt>
      <trkpt lat="49.67711" lon="-1.73516">
        <ele>4.8000001907349</ele>
        <time>2019-08-08T11:58:07.000Z</time>
      </trkpt>
      <trkpt lat="49.67708" lon="-1.73447">
        <ele>4</ele>
        <time>2019-08-08T11:58:17.000Z</time>
      </trkpt>
      <trkpt lat="49.67708" lon="-1.73377">
        <ele>4</ele>
        <time>2019-08-08T11:58:28.000Z</time>
      </trkpt>
      <trkpt lat="49.67705" lon="-1.73311">
        <ele>4</ele>
        <time>2019-08-08T11:58:38.000Z</time>
      </trkpt>
      <trkpt lat="49.67703" lon="-1.73239">
        <ele>4</ele>
        <time>2019-08-08T11:58:48.000Z</time>
      </trkpt>
      <trkpt lat="49.67703" lon="-1.732">
        <ele>4.4000000953674</ele>
        <time>2019-08-08T11:58:53.000Z</time>
      </trkpt>
      <trkpt lat="49.67704" lon="-1.73149">
        <ele>5</ele>
        <time>2019-08-08T11:59:00.000Z</time>
      </trkpt>
      <trkpt lat="49.67708" lon="-1.73077">
        <ele>5</ele>
        <time>2019-08-08T11:59:11.000Z</time>
      </trkpt>
      <trkpt lat="49.67708" lon="-1.7307">
        <ele>5</ele>
        <time>2019-08-08T11:59:12.000Z</time>
      </trkpt>
      <trkpt lat="49.6771" lon="-1.72997">
        <ele>5</ele>
        <time>2019-08-08T11:59:25.000Z</time>
      </trkpt>
      <trkpt lat="49.67713" lon="-1.72922">
        <ele>2.5999999046326</ele>
        <time>2019-08-08T11:59:37.000Z</time>
      </trkpt>
      <trkpt lat="49.6772" lon="-1.72853">
        <ele>1.7999999523163</ele>
        <time>2019-08-08T11:59:49.000Z</time>
      </trkpt>
      <trkpt lat="49.67731" lon="-1.72783">
        <ele>2</ele>
        <time>2019-08-08T12:00:00.000Z</time>
      </trkpt>
      <trkpt lat="49.67742" lon="-1.72712">
        <ele>2.2000000476837</ele>
        <time>2019-08-08T12:00:12.000Z</time>
      </trkpt>
      <trkpt lat="49.67753" lon="-1.72642">
        <ele>2</ele>
        <time>2019-08-08T12:00:23.000Z</time>
      </trkpt>
      <trkpt lat="49.67764" lon="-1.72574">
        <ele>1.7999999523163</ele>
        <time>2019-08-08T12:00:33.000Z</time>
      </trkpt>
      <trkpt lat="49.67775" lon="-1.72503">
        <ele>2.5999999046326</ele>
        <time>2019-08-08T12:00:43.000Z</time>
      </trkpt>
      <trkpt lat="49.6779" lon="-1.72432">
        <ele>2.4000000953674</ele>
        <time>2019-08-08T12:00:54.000Z</time>
      </trkpt>
      <trkpt lat="49.67802" lon="-1.72385">
        <ele>2.5999999046326</ele>
        <time>2019-08-08T12:01:02.000Z</time>
      </trkpt>
      <trkpt lat="49.6782" lon="-1.72322">
        <ele>3.2000000476837</ele>
        <time>2019-08-08T12:01:13.000Z</time>
      </trkpt>
      <trkpt lat="49.67837" lon="-1.72257">
        <ele>2.5999999046326</ele>
        <time>2019-08-08T12:01:26.000Z</time>
      </trkpt>
      <trkpt lat="49.67841" lon="-1.72241">
        <ele>2.5999999046326</ele>
        <time>2019-08-08T12:01:31.000Z</time>
      </trkpt>
      <trkpt lat="49.67842" lon="-1.72238">
        <ele>2.5999999046326</ele>
        <time>2019-08-08T12:01:33.000Z</time>
      </trkpt>
      <trkpt lat="49.67849" lon="-1.72239">
        <ele>2.7999999523163</ele>
        <time>2019-08-08T12:01:37.000Z</time>
      </trkpt>
      <trkpt lat="49.67865" lon="-1.72241">
        <ele>3</ele>
        <time>2019-08-08T12:01:42.000Z</time>
      </trkpt>
      <trkpt lat="49.67903" lon="-1.72239">
        <ele>3.4000000953674</ele>
        <time>2019-08-08T12:01:59.000Z</time>
      </trkpt>
      <trkpt lat="49.67901" lon="-1.72247">
        <ele>3.5999999046326</ele>
        <time>2019-08-08T12:02:02.000Z</time>
      </trkpt>
      <trkpt lat="49.67901" lon="-1.7225">
        <ele>3.5999999046326</ele>
        <time>2019-08-08T12:02:05.000Z</time>
      </trkpt>
      <trkpt lat="49.67896" lon="-1.72233">
        <ele>3.4000000953674</ele>
        <time>2019-08-08T12:03:14.000Z</time>
      </trkpt>
      <trkpt lat="49.67863" lon="-1.72246">
        <ele>3</ele>
        <time>2019-08-08T12:03:25.000Z</time>
      </trkpt>
      <trkpt lat="49.67844" lon="-1.72236">
        <ele>2.7999999523163</ele>
        <time>2019-08-08T12:03:33.000Z</time>
      </trkpt>
      <trkpt lat="49.67859" lon="-1.72169">
        <ele>4.5999999046326</ele>
        <time>2019-08-08T12:03:48.000Z</time>
      </trkpt>
      <trkpt lat="49.67888" lon="-1.7211">
        <ele>4.5999999046326</ele>
        <time>2019-08-08T12:04:00.000Z</time>
      </trkpt>
      <trkpt lat="49.67915" lon="-1.72054">
        <ele>4.5999999046326</ele>
        <time>2019-08-08T12:04:11.000Z</time>
      </trkpt>
      <trkpt lat="49.67942" lon="-1.71996">
        <ele>4.8000001907349</ele>
        <time>2019-08-08T12:04:25.000Z</time>
      </trkpt>
      <trkpt lat="49.67955" lon="-1.71938">
        <ele>4.4000000953674</ele>
        <time>2019-08-08T12:04:37.000Z</time>
      </trkpt>
      <trkpt lat="49.67961" lon="-1.71868">
        <ele>3.5999999046326</ele>
        <time>2019-08-08T12:04:48.000Z</time>
      </trkpt>
      <trkpt lat="49.67964" lon="-1.71807">
        <ele>2.7999999523163</ele>
        <time>2019-08-08T12:04:57.000Z</time>
      </trkpt>
      <trkpt lat="49.67962" lon="-1.71788">
        <ele>2.5999999046326</ele>
        <time>2019-08-08T12:05:00.000Z</time>
      </trkpt>
      <trkpt lat="49.67948" lon="-1.71715">
        <ele>1.3999999761581</ele>
        <time>2019-08-08T12:05:11.000Z</time>
      </trkpt>
      <trkpt lat="49.67946" lon="-1.71709">
        <ele>1.3999999761581</ele>
        <time>2019-08-08T12:05:12.000Z</time>
      </trkpt>
      <trkpt lat="49.67913" lon="-1.71657">
        <ele>0.60000002384186</ele>
        <time>2019-08-08T12:05:23.000Z</time>
      </trkpt>
      <trkpt lat="49.67911" lon="-1.71652">
        <ele>0.60000002384186</ele>
        <time>2019-08-08T12:05:24.000Z</time>
      </trkpt>
      <trkpt lat="49.67897" lon="-1.71603">
        <ele>1.2000000476837</ele>
        <time>2019-08-08T12:05:33.000Z</time>
      </trkpt>
      <trkpt lat="49.67886" lon="-1.71534">
        <ele>2.5999999046326</ele>
        <time>2019-08-08T12:05:45.000Z</time>
      </trkpt>
      <trkpt lat="49.6788" lon="-1.71501">
        <ele>3.5999999046326</ele>
        <time>2019-08-08T12:05:51.000Z</time>
      </trkpt>
      <trkpt lat="49.67877" lon="-1.71499">
        <ele>3.5999999046326</ele>
        <time>2019-08-08T12:05:52.000Z</time>
      </trkpt>
      <trkpt lat="49.6783" lon="-1.71507">
        <ele>3.2000000476837</ele>
        <time>2019-08-08T12:06:05.000Z</time>
      </trkpt>
      <trkpt lat="49.67783" lon="-1.71523">
        <ele>2.5999999046326</ele>
        <time>2019-08-08T12:06:16.000Z</time>
      </trkpt>
      <trkpt lat="49.67761" lon="-1.71532">
        <ele>2.4000000953674</ele>
        <time>2019-08-08T12:06:21.000Z</time>
      </trkpt>
      <trkpt lat="49.67745" lon="-1.71538">
        <ele>2.4000000953674</ele>
        <time>2019-08-08T12:06:25.000Z</time>
      </trkpt>
      <trkpt lat="49.67738" lon="-1.71541">
        <ele>2.4000000953674</ele>
        <time>2019-08-08T12:06:27.000Z</time>
      </trkpt>
      <trkpt lat="49.67727" lon="-1.71544">
        <ele>2.2000000476837</ele>
        <time>2019-08-08T12:06:30.000Z</time>
      </trkpt>
      <trkpt lat="49.6772" lon="-1.71538">
        <ele>2.2000000476837</ele>
        <time>2019-08-08T12:06:33.000Z</time>
      </trkpt>
      <trkpt lat="49.67716" lon="-1.71522">
        <ele>2.2000000476837</ele>
        <time>2019-08-08T12:06:37.000Z</time>
      </trkpt>
      <trkpt lat="49.67714" lon="-1.71514">
        <ele>2.2000000476837</ele>
        <time>2019-08-08T12:06:39.000Z</time>
      </trkpt>
      <trkpt lat="49.67713" lon="-1.7151">
        <ele>2.2000000476837</ele>
        <time>2019-08-08T12:06:40.000Z</time>
      </trkpt>
      <trkpt lat="49.67707" lon="-1.7148">
        <ele>2</ele>
        <time>2019-08-08T12:06:46.000Z</time>
      </trkpt>
      <trkpt lat="49.677" lon="-1.71451">
        <ele>2</ele>
        <time>2019-08-08T12:06:51.000Z</time>
      </trkpt>
      <trkpt lat="49.67692" lon="-1.71422">
        <ele>2.2000000476837</ele>
        <time>2019-08-08T12:06:56.000Z</time>
      </trkpt>
      <trkpt lat="49.67674" lon="-1.71353">
        <ele>2.4000000953674</ele>
        <time>2019-08-08T12:07:09.000Z</time>
      </trkpt>
      <trkpt lat="49.67658" lon="-1.71286">
        <ele>3</ele>
        <time>2019-08-08T12:07:20.000Z</time>
      </trkpt>
      <trkpt lat="49.67641" lon="-1.7122">
        <ele>3</ele>
        <time>2019-08-08T12:07:31.000Z</time>
      </trkpt>
      <trkpt lat="49.6763" lon="-1.71185">
        <ele>3</ele>
        <time>2019-08-08T12:07:39.000Z</time>
      </trkpt>
      <trkpt lat="49.67585" lon="-1.71182">
        <ele>3.4000000953674</ele>
        <time>2019-08-08T12:07:54.000Z</time>
      </trkpt>
      <trkpt lat="49.6754" lon="-1.71157">
        <ele>3</ele>
        <time>2019-08-08T12:08:07.000Z</time>
      </trkpt>
      <trkpt lat="49.67501" lon="-1.71121">
        <ele>3</ele>
        <time>2019-08-08T12:08:21.000Z</time>
      </trkpt>
      <trkpt lat="49.67461" lon="-1.71086">
        <ele>4.5999999046326</ele>
        <time>2019-08-08T12:08:36.000Z</time>
      </trkpt>
      <trkpt lat="49.67436" lon="-1.71055">
        <ele>4.1999998092651</ele>
        <time>2019-08-08T12:08:45.000Z</time>
      </trkpt>
      <trkpt lat="49.67428" lon="-1.71044">
        <ele>3.7999999523163</ele>
        <time>2019-08-08T12:08:48.000Z</time>
      </trkpt>
      <trkpt lat="49.67426" lon="-1.7104">
        <ele>3.5999999046326</ele>
        <time>2019-08-08T12:08:49.000Z</time>
      </trkpt>
      <trkpt lat="49.67421" lon="-1.71033">
        <ele>3.2000000476837</ele>
        <time>2019-08-08T12:08:51.000Z</time>
      </trkpt>
      <trkpt lat="49.67388" lon="-1.70985">
        <ele>2.7999999523163</ele>
        <time>2019-08-08T12:09:05.000Z</time>
      </trkpt>
      <trkpt lat="49.67357" lon="-1.70965">
        <ele>3</ele>
        <time>2019-08-08T12:09:14.000Z</time>
      </trkpt>
      <trkpt lat="49.67318" lon="-1.70951">
        <ele>3</ele>
        <time>2019-08-08T12:09:24.000Z</time>
      </trkpt>
      <trkpt lat="49.67277" lon="-1.70918">
        <ele>3.2000000476837</ele>
        <time>2019-08-08T12:09:35.000Z</time>
      </trkpt>
      <trkpt lat="49.67254" lon="-1.70894">
        <ele>2.7999999523163</ele>
        <time>2019-08-08T12:09:43.000Z</time>
      </trkpt>
      <trkpt lat="49.67237" lon="-1.70852">
        <ele>2.4000000953674</ele>
        <time>2019-08-08T12:09:53.000Z</time>
      </trkpt>
      <trkpt lat="49.6721" lon="-1.70796">
        <ele>2.2000000476837</ele>
        <time>2019-08-08T12:10:06.000Z</time>
      </trkpt>
      <trkpt lat="49.67174" lon="-1.70752">
        <ele>2.5999999046326</ele>
        <time>2019-08-08T12:10:19.000Z</time>
      </trkpt>
      <trkpt lat="49.67161" lon="-1.70733">
        <ele>3</ele>
        <time>2019-08-08T12:10:24.000Z</time>
      </trkpt>
      <trkpt lat="49.67143" lon="-1.70669">
        <ele>3.5999999046326</ele>
        <time>2019-08-08T12:10:35.000Z</time>
      </trkpt>
      <trkpt lat="49.67124" lon="-1.70605">
        <ele>4.5999999046326</ele>
        <time>2019-08-08T12:10:47.000Z</time>
      </trkpt>
      <trkpt lat="49.67105" lon="-1.70538">
        <ele>4.4000000953674</ele>
        <time>2019-08-08T12:11:00.000Z</time>
      </trkpt>
      <trkpt lat="49.67083" lon="-1.70473">
        <ele>4.4000000953674</ele>
        <time>2019-08-08T12:11:13.000Z</time>
      </trkpt>
      <trkpt lat="49.6706" lon="-1.7041">
        <ele>6</ele>
        <time>2019-08-08T12:11:25.000Z</time>
      </trkpt>
      <trkpt lat="49.67055" lon="-1.70387">
        <ele>6.5999999046326</ele>
        <time>2019-08-08T12:11:29.000Z</time>
      </trkpt>
      <trkpt lat="49.6705" lon="-1.7036">
        <ele>6.4000000953674</ele>
        <time>2019-08-08T12:11:34.000Z</time>
      </trkpt>
      <trkpt lat="49.67049" lon="-1.70355">
        <ele>6.1999998092651</ele>
        <time>2019-08-08T12:11:35.000Z</time>
      </trkpt>
      <trkpt lat="49.67048" lon="-1.70351">
        <ele>6.1999998092651</ele>
        <time>2019-08-08T12:11:36.000Z</time>
      </trkpt>
      <trkpt lat="49.67047" lon="-1.70346">
        <ele>6.1999998092651</ele>
        <time>2019-08-08T12:11:37.000Z</time>
      </trkpt>
      <trkpt lat="49.67046" lon="-1.70342">
        <ele>6.1999998092651</ele>
        <time>2019-08-08T12:11:38.000Z</time>
      </trkpt>
      <trkpt lat="49.67039" lon="-1.70318">
        <ele>6</ele>
        <time>2019-08-08T12:11:43.000Z</time>
      </trkpt>
      <trkpt lat="49.67037" lon="-1.70313">
        <ele>5.8000001907349</ele>
        <time>2019-08-08T12:11:44.000Z</time>
      </trkpt>
      <trkpt lat="49.67033" lon="-1.70297">
        <ele>5.4000000953674</ele>
        <time>2019-08-08T12:11:47.000Z</time>
      </trkpt>
      <trkpt lat="49.67031" lon="-1.70287">
        <ele>5.1999998092651</ele>
        <time>2019-08-08T12:11:49.000Z</time>
      </trkpt>
      <trkpt lat="49.67028" lon="-1.70276">
        <ele>5</ele>
        <time>2019-08-08T12:11:51.000Z</time>
      </trkpt>
      <trkpt lat="49.67021" lon="-1.70251">
        <ele>4.5999999046326</ele>
        <time>2019-08-08T12:11:56.000Z</time>
      </trkpt>
      <trkpt lat="49.67017" lon="-1.70231">
        <ele>4.8000001907349</ele>
        <time>2019-08-08T12:12:00.000Z</time>
      </trkpt>
      <trkpt lat="49.67011" lon="-1.70209">
        <ele>5.1999998092651</ele>
        <time>2019-08-08T12:12:04.000Z</time>
      </trkpt>
      <trkpt lat="49.67007" lon="-1.70193">
        <ele>5.5999999046326</ele>
        <time>2019-08-08T12:12:07.000Z</time>
      </trkpt>
      <trkpt lat="49.67006" lon="-1.70188">
        <ele>5.5999999046326</ele>
        <time>2019-08-08T12:12:08.000Z</time>
      </trkpt>
      <trkpt lat="49.67005" lon="-1.70183">
        <ele>5.8000001907349</ele>
        <time>2019-08-08T12:12:09.000Z</time>
      </trkpt>
      <trkpt lat="49.67004" lon="-1.70178">
        <ele>5.5999999046326</ele>
        <time>2019-08-08T12:12:10.000Z</time>
      </trkpt>
      <trkpt lat="49.67001" lon="-1.70169">
        <ele>5.4000000953674</ele>
        <time>2019-08-08T12:12:12.000Z</time>
      </trkpt>
      <trkpt lat="49.67" lon="-1.70164">
        <ele>5.1999998092651</ele>
        <time>2019-08-08T12:12:13.000Z</time>
      </trkpt>
      <trkpt lat="49.67" lon="-1.70159">
        <ele>5.1999998092651</ele>
        <time>2019-08-08T12:12:14.000Z</time>
      </trkpt>
      <trkpt lat="49.66999" lon="-1.70154">
        <ele>5</ele>
        <time>2019-08-08T12:12:15.000Z</time>
      </trkpt>
      <trkpt lat="49.66997" lon="-1.70144">
        <ele>5</ele>
        <time>2019-08-08T12:12:17.000Z</time>
      </trkpt>
      <trkpt lat="49.66996" lon="-1.70139">
        <ele>5</ele>
        <time>2019-08-08T12:12:18.000Z</time>
      </trkpt>
      <trkpt lat="49.66995" lon="-1.70134">
        <ele>5</ele>
        <time>2019-08-08T12:12:19.000Z</time>
      </trkpt>
      <trkpt lat="49.66995" lon="-1.70129">
        <ele>5</ele>
        <time>2019-08-08T12:12:20.000Z</time>
      </trkpt>
      <trkpt lat="49.66993" lon="-1.70119">
        <ele>5</ele>
        <time>2019-08-08T12:12:22.000Z</time>
      </trkpt>
      <trkpt lat="49.6699" lon="-1.70104">
        <ele>5.1999998092651</ele>
        <time>2019-08-08T12:12:25.000Z</time>
      </trkpt>
      <trkpt lat="49.66988" lon="-1.70088">
        <ele>5.4000000953674</ele>
        <time>2019-08-08T12:12:28.000Z</time>
      </trkpt>
      <trkpt lat="49.66986" lon="-1.70072">
        <ele>5.5999999046326</ele>
        <time>2019-08-08T12:12:31.000Z</time>
      </trkpt>
      <trkpt lat="49.66985" lon="-1.70066">
        <ele>6</ele>
        <time>2019-08-08T12:12:32.000Z</time>
      </trkpt>
      <trkpt lat="49.66982" lon="-1.70038">
        <ele>6</ele>
        <time>2019-08-08T12:12:37.000Z</time>
      </trkpt>
      <trkpt lat="49.66981" lon="-1.70026">
        <ele>6</ele>
        <time>2019-08-08T12:12:39.000Z</time>
      </trkpt>
      <trkpt lat="49.66979" lon="-1.70009">
        <ele>6</ele>
        <time>2019-08-08T12:12:42.000Z</time>
      </trkpt>
      <trkpt lat="49.66975" lon="-1.69958">
        <ele>6</ele>
        <time>2019-08-08T12:12:52.000Z</time>
      </trkpt>
      <trkpt lat="49.66969" lon="-1.69886">
        <ele>5.8000001907349</ele>
        <time>2019-08-08T12:13:06.000Z</time>
      </trkpt>
      <trkpt lat="49.66963" lon="-1.69816">
        <ele>5</ele>
        <time>2019-08-08T12:13:18.000Z</time>
      </trkpt>
      <trkpt lat="49.66959" lon="-1.69765">
        <ele>5</ele>
        <time>2019-08-08T12:13:27.000Z</time>
      </trkpt>
      <trkpt lat="49.66959" lon="-1.69702">
        <ele>5</ele>
        <time>2019-08-08T12:13:38.000Z</time>
      </trkpt>
      <trkpt lat="49.66973" lon="-1.69639">
        <ele>5</ele>
        <time>2019-08-08T12:13:52.000Z</time>
      </trkpt>
      <trkpt lat="49.66993" lon="-1.69578">
        <ele>5.4000000953674</ele>
        <time>2019-08-08T12:14:05.000Z</time>
      </trkpt>
      <trkpt lat="49.66997" lon="-1.6955">
        <ele>4.4000000953674</ele>
        <time>2019-08-08T12:14:10.000Z</time>
      </trkpt>
      <trkpt lat="49.67012" lon="-1.69483">
        <ele>3.2000000476837</ele>
        <time>2019-08-08T12:14:22.000Z</time>
      </trkpt>
      <trkpt lat="49.67024" lon="-1.69438">
        <ele>3.2000000476837</ele>
        <time>2019-08-08T12:14:30.000Z</time>
      </trkpt>
      <trkpt lat="49.67048" lon="-1.69377">
        <ele>3.2000000476837</ele>
        <time>2019-08-08T12:14:44.000Z</time>
      </trkpt>
      <trkpt lat="49.67074" lon="-1.69317">
        <ele>3.7999999523163</ele>
        <time>2019-08-08T12:14:56.000Z</time>
      </trkpt>
      <trkpt lat="49.67093" lon="-1.69272">
        <ele>4</ele>
        <time>2019-08-08T12:15:05.000Z</time>
      </trkpt>
      <trkpt lat="49.67116" lon="-1.69212">
        <ele>4.4000000953674</ele>
        <time>2019-08-08T12:15:16.000Z</time>
      </trkpt>
      <trkpt lat="49.6712" lon="-1.692">
        <ele>4.4000000953674</ele>
        <time>2019-08-08T12:15:18.000Z</time>
      </trkpt>
      <trkpt lat="49.6714" lon="-1.69136">
        <ele>4.1999998092651</ele>
        <time>2019-08-08T12:15:29.000Z</time>
      </trkpt>
      <trkpt lat="49.67162" lon="-1.69068">
        <ele>3.5999999046326</ele>
        <time>2019-08-08T12:15:40.000Z</time>
      </trkpt>
      <trkpt lat="49.67174" lon="-1.69031">
        <ele>4.4000000953674</ele>
        <time>2019-08-08T12:15:47.000Z</time>
      </trkpt>
      <trkpt lat="49.67182" lon="-1.69006">
        <ele>5</ele>
        <time>2019-08-08T12:15:52.000Z</time>
      </trkpt>
      <trkpt lat="49.67199" lon="-1.68949">
        <ele>6</ele>
        <time>2019-08-08T12:16:02.000Z</time>
      </trkpt>
      <trkpt lat="49.67223" lon="-1.68886">
        <ele>6</ele>
        <time>2019-08-08T12:16:15.000Z</time>
      </trkpt>
      <trkpt lat="49.6725" lon="-1.68831">
        <ele>4.8000001907349</ele>
        <time>2019-08-08T12:16:27.000Z</time>
      </trkpt>
      <trkpt lat="49.67264" lon="-1.68799">
        <ele>4.1999998092651</ele>
        <time>2019-08-08T12:16:34.000Z</time>
      </trkpt>
      <trkpt lat="49.67267" lon="-1.68795">
        <ele>4.1999998092651</ele>
        <time>2019-08-08T12:16:35.000Z</time>
      </trkpt>
      <trkpt lat="49.67269" lon="-1.6879">
        <ele>4.1999998092651</ele>
        <time>2019-08-08T12:16:36.000Z</time>
      </trkpt>
      <trkpt lat="49.67271" lon="-1.68786">
        <ele>4.1999998092651</ele>
        <time>2019-08-08T12:16:37.000Z</time>
      </trkpt>
      <trkpt lat="49.67275" lon="-1.68778">
        <ele>4</ele>
        <time>2019-08-08T12:16:39.000Z</time>
      </trkpt>
      <trkpt lat="49.673" lon="-1.68739">
        <ele>3.7999999523163</ele>
        <time>2019-08-08T12:16:49.000Z</time>
      </trkpt>
      <trkpt lat="49.673" lon="-1.68733">
        <ele>3.7999999523163</ele>
        <time>2019-08-08T12:16:50.000Z</time>
      </trkpt>
      <trkpt lat="49.67291" lon="-1.68707">
        <ele>4</ele>
        <time>2019-08-08T12:16:56.000Z</time>
      </trkpt>
      <trkpt lat="49.67254" lon="-1.68658">
        <ele>4.4000000953674</ele>
        <time>2019-08-08T12:17:10.000Z</time>
      </trkpt>
      <trkpt lat="49.67227" lon="-1.68618">
        <ele>4.8000001907349</ele>
        <time>2019-08-08T12:17:21.000Z</time>
      </trkpt>
      <trkpt lat="49.67225" lon="-1.68614">
        <ele>4.8000001907349</ele>
        <time>2019-08-08T12:17:22.000Z</time>
      </trkpt>
      <trkpt lat="49.67222" lon="-1.6861">
        <ele>4.8000001907349</ele>
        <time>2019-08-08T12:17:23.000Z</time>
      </trkpt>
      <trkpt lat="49.67206" lon="-1.68589">
        <ele>4.1999998092651</ele>
        <time>2019-08-08T12:17:29.000Z</time>
      </trkpt>
      <trkpt lat="49.67187" lon="-1.68571">
        <ele>4</ele>
        <time>2019-08-08T12:17:35.000Z</time>
      </trkpt>
      <trkpt lat="49.67167" lon="-1.68558">
        <ele>4.1999998092651</ele>
        <time>2019-08-08T12:17:42.000Z</time>
      </trkpt>
      <trkpt lat="49.67155" lon="-1.68553">
        <ele>4.1999998092651</ele>
        <time>2019-08-08T12:17:46.000Z</time>
      </trkpt>
      <trkpt lat="49.67137" lon="-1.68548">
        <ele>4.1999998092651</ele>
        <time>2019-08-08T12:17:51.000Z</time>
      </trkpt>
      <trkpt lat="49.67118" lon="-1.68487">
        <ele>4</ele>
        <time>2019-08-08T12:18:03.000Z</time>
      </trkpt>
      <trkpt lat="49.67106" lon="-1.68414">
        <ele>2.4000000953674</ele>
        <time>2019-08-08T12:18:16.000Z</time>
      </trkpt>
      <trkpt lat="49.67092" lon="-1.68371">
        <ele>2.5999999046326</ele>
        <time>2019-08-08T12:18:25.000Z</time>
      </trkpt>
      <trkpt lat="49.6709" lon="-1.68366">
        <ele>2.5999999046326</ele>
        <time>2019-08-08T12:18:26.000Z</time>
      </trkpt>
      <trkpt lat="49.67088" lon="-1.68361">
        <ele>2.5999999046326</ele>
        <time>2019-08-08T12:18:27.000Z</time>
      </trkpt>
      <trkpt lat="49.67086" lon="-1.68356">
        <ele>2.5999999046326</ele>
        <time>2019-08-08T12:18:28.000Z</time>
      </trkpt>
      <trkpt lat="49.67078" lon="-1.68339">
        <ele>2.4000000953674</ele>
        <time>2019-08-08T12:18:32.000Z</time>
      </trkpt>
      <trkpt lat="49.67055" lon="-1.68304">
        <ele>2.7999999523163</ele>
        <time>2019-08-08T12:18:41.000Z</time>
      </trkpt>
      <trkpt lat="49.67045" lon="-1.68288">
        <ele>3.2000000476837</ele>
        <time>2019-08-08T12:18:45.000Z</time>
      </trkpt>
      <trkpt lat="49.67036" lon="-1.68278">
        <ele>3.5999999046326</ele>
        <time>2019-08-08T12:18:48.000Z</time>
      </trkpt>
      <trkpt lat="49.67024" lon="-1.68264">
        <ele>3.7999999523163</ele>
        <time>2019-08-08T12:18:52.000Z</time>
      </trkpt>
      <trkpt lat="49.67018" lon="-1.68258">
        <ele>4</ele>
        <time>2019-08-08T12:18:54.000Z</time>
      </trkpt>
      <trkpt lat="49.67011" lon="-1.68254">
        <ele>4.1999998092651</ele>
        <time>2019-08-08T12:18:56.000Z</time>
      </trkpt>
      <trkpt lat="49.67008" lon="-1.68252">
        <ele>4.4000000953674</ele>
        <time>2019-08-08T12:18:57.000Z</time>
      </trkpt>
      <trkpt lat="49.66974" lon="-1.68231">
        <ele>5.4000000953674</ele>
        <time>2019-08-08T12:19:07.000Z</time>
      </trkpt>
      <trkpt lat="49.6693" lon="-1.68214">
        <ele>3.7999999523163</ele>
        <time>2019-08-08T12:19:21.000Z</time>
      </trkpt>
      <trkpt lat="49.66917" lon="-1.6818">
        <ele>1.6000000238419</ele>
        <time>2019-08-08T12:19:32.000Z</time>
      </trkpt>
      <trkpt lat="49.66919" lon="-1.68176">
        <ele>1.6000000238419</ele>
        <time>2019-08-08T12:19:34.000Z</time>
      </trkpt>
      <trkpt lat="49.6692" lon="-1.68176">
        <ele>1.6000000238419</ele>
        <time>2019-08-08T12:19:37.000Z</time>
      </trkpt>
      <trkpt lat="49.66922" lon="-1.68183">
        <ele>1.7999999523163</ele>
        <time>2019-08-08T12:22:37.000Z</time>
      </trkpt>
      <trkpt lat="49.66922" lon="-1.68186">
        <ele>1.7999999523163</ele>
        <time>2019-08-08T12:22:38.000Z</time>
      </trkpt>
      <trkpt lat="49.66923" lon="-1.68207">
        <ele>3.2000000476837</ele>
        <time>2019-08-08T12:22:45.000Z</time>
      </trkpt>
      <trkpt lat="49.66938" lon="-1.68214">
        <ele>4.1999998092651</ele>
        <time>2019-08-08T12:22:51.000Z</time>
      </trkpt>
      <trkpt lat="49.66948" lon="-1.68215">
        <ele>4.5999999046326</ele>
        <time>2019-08-08T12:22:55.000Z</time>
      </trkpt>
      <trkpt lat="49.66958" lon="-1.68219">
        <ele>5.1999998092651</ele>
        <time>2019-08-08T12:22:59.000Z</time>
      </trkpt>
      <trkpt lat="49.66963" lon="-1.68222">
        <ele>5.4000000953674</ele>
        <time>2019-08-08T12:23:01.000Z</time>
      </trkpt>
      <trkpt lat="49.66968" lon="-1.68224">
        <ele>5.5999999046326</ele>
        <time>2019-08-08T12:23:03.000Z</time>
      </trkpt>
      <trkpt lat="49.6697" lon="-1.68226">
        <ele>5.5999999046326</ele>
        <time>2019-08-08T12:23:04.000Z</time>
      </trkpt>
      <trkpt lat="49.66973" lon="-1.68227">
        <ele>5.5999999046326</ele>
        <time>2019-08-08T12:23:05.000Z</time>
      </trkpt>
      <trkpt lat="49.66975" lon="-1.68229">
        <ele>5.4000000953674</ele>
        <time>2019-08-08T12:23:06.000Z</time>
      </trkpt>
      <trkpt lat="49.67004" lon="-1.68247">
        <ele>4.5999999046326</ele>
        <time>2019-08-08T12:23:15.000Z</time>
      </trkpt>
      <trkpt lat="49.6702" lon="-1.68256">
        <ele>4</ele>
        <time>2019-08-08T12:23:19.000Z</time>
      </trkpt>
      <trkpt lat="49.67031" lon="-1.68265">
        <ele>3.7999999523163</ele>
        <time>2019-08-08T12:23:22.000Z</time>
      </trkpt>
      <trkpt lat="49.67044" lon="-1.68281">
        <ele>3.2000000476837</ele>
        <time>2019-08-08T12:23:26.000Z</time>
      </trkpt>
      <trkpt lat="49.67049" lon="-1.68288">
        <ele>3</ele>
        <time>2019-08-08T12:23:28.000Z</time>
      </trkpt>
      <trkpt lat="49.67055" lon="-1.68296">
        <ele>2.7999999523163</ele>
        <time>2019-08-08T12:23:30.000Z</time>
      </trkpt>
      <trkpt lat="49.67072" lon="-1.68317">
        <ele>2.2000000476837</ele>
        <time>2019-08-08T12:23:36.000Z</time>
      </trkpt>
      <trkpt lat="49.67077" lon="-1.68324">
        <ele>2.2000000476837</ele>
        <time>2019-08-08T12:23:38.000Z</time>
      </trkpt>
      <trkpt lat="49.6709" lon="-1.68342">
        <ele>2.2000000476837</ele>
        <time>2019-08-08T12:23:43.000Z</time>
      </trkpt>
      <trkpt lat="49.67108" lon="-1.68409">
        <ele>2.4000000953674</ele>
        <time>2019-08-08T12:23:58.000Z</time>
      </trkpt>
      <trkpt lat="49.67119" lon="-1.68477">
        <ele>3.7999999523163</ele>
        <time>2019-08-08T12:24:10.000Z</time>
      </trkpt>
      <trkpt lat="49.67134" lon="-1.68544">
        <ele>4.1999998092651</ele>
        <time>2019-08-08T12:24:24.000Z</time>
      </trkpt>
      <trkpt lat="49.67179" lon="-1.68565">
        <ele>4</ele>
        <time>2019-08-08T12:24:38.000Z</time>
      </trkpt>
      <trkpt lat="49.67218" lon="-1.68607">
        <ele>4.5999999046326</ele>
        <time>2019-08-08T12:24:51.000Z</time>
      </trkpt>
      <trkpt lat="49.67253" lon="-1.68659">
        <ele>4.4000000953674</ele>
        <time>2019-08-08T12:25:03.000Z</time>
      </trkpt>
      <trkpt lat="49.67279" lon="-1.68693">
        <ele>4</ele>
        <time>2019-08-08T12:25:12.000Z</time>
      </trkpt>
      <trkpt lat="49.67297" lon="-1.68716">
        <ele>4</ele>
        <time>2019-08-08T12:25:19.000Z</time>
      </trkpt>
      <trkpt lat="49.67334" lon="-1.68716">
        <ele>3.5999999046326</ele>
        <time>2019-08-08T12:25:31.000Z</time>
      </trkpt>
      <trkpt lat="49.67372" lon="-1.68729">
        <ele>3</ele>
        <time>2019-08-08T12:25:49.000Z</time>
      </trkpt>
      <trkpt lat="49.67362" lon="-1.68723">
        <ele>3.2000000476837</ele>
        <time>2019-08-08T12:29:40.000Z</time>
      </trkpt>
      <trkpt lat="49.6736" lon="-1.68722">
        <ele>3.2000000476837</ele>
        <time>2019-08-08T12:29:41.000Z</time>
      </trkpt>
      <trkpt lat="49.67326" lon="-1.68716">
        <ele>3.7999999523163</ele>
        <time>2019-08-08T12:29:52.000Z</time>
      </trkpt>
      <trkpt lat="49.67318" lon="-1.68716">
        <ele>3.7999999523163</ele>
        <time>2019-08-08T12:29:55.000Z</time>
      </trkpt>
      <trkpt lat="49.67306" lon="-1.68723">
        <ele>4</ele>
        <time>2019-08-08T12:30:00.000Z</time>
      </trkpt>
      <trkpt lat="49.67303" lon="-1.68729">
        <ele>3.7999999523163</ele>
        <time>2019-08-08T12:30:02.000Z</time>
      </trkpt>
      <trkpt lat="49.67301" lon="-1.68735">
        <ele>3.7999999523163</ele>
        <time>2019-08-08T12:30:04.000Z</time>
      </trkpt>
      <trkpt lat="49.673" lon="-1.68738">
        <ele>3.7999999523163</ele>
        <time>2019-08-08T12:30:05.000Z</time>
      </trkpt>
      <trkpt lat="49.67298" lon="-1.68747">
        <ele>3.7999999523163</ele>
        <time>2019-08-08T12:30:08.000Z</time>
      </trkpt>
      <trkpt lat="49.67298" lon="-1.6875">
        <ele>3.5999999046326</ele>
        <time>2019-08-08T12:30:09.000Z</time>
      </trkpt>
      <trkpt lat="49.67299" lon="-1.68753">
        <ele>3.5999999046326</ele>
        <time>2019-08-08T12:30:10.000Z</time>
      </trkpt>
      <trkpt lat="49.67298" lon="-1.68755">
        <ele>3.5999999046326</ele>
        <time>2019-08-08T12:30:11.000Z</time>
      </trkpt>
      <trkpt lat="49.67294" lon="-1.68759">
        <ele>3.5999999046326</ele>
        <time>2019-08-08T12:30:13.000Z</time>
      </trkpt>
      <trkpt lat="49.67284" lon="-1.68767">
        <ele>3.7999999523163</ele>
        <time>2019-08-08T12:30:17.000Z</time>
      </trkpt>
      <trkpt lat="49.6728" lon="-1.68773">
        <ele>3.7999999523163</ele>
        <time>2019-08-08T12:30:19.000Z</time>
      </trkpt>
      <trkpt lat="49.6727" lon="-1.68791">
        <ele>4.1999998092651</ele>
        <time>2019-08-08T12:30:24.000Z</time>
      </trkpt>
      <trkpt lat="49.67264" lon="-1.68803">
        <ele>4.1999998092651</ele>
        <time>2019-08-08T12:30:27.000Z</time>
      </trkpt>
      <trkpt lat="49.67252" lon="-1.68828">
        <ele>4.5999999046326</ele>
        <time>2019-08-08T12:30:33.000Z</time>
      </trkpt>
      <trkpt lat="49.67238" lon="-1.68855">
        <ele>5.1999998092651</ele>
        <time>2019-08-08T12:30:39.000Z</time>
      </trkpt>
      <trkpt lat="49.67232" lon="-1.68869">
        <ele>5.5999999046326</ele>
        <time>2019-08-08T12:30:42.000Z</time>
      </trkpt>
      <trkpt lat="49.67214" lon="-1.68906">
        <ele>6.1999998092651</ele>
        <time>2019-08-08T12:30:51.000Z</time>
      </trkpt>
      <trkpt lat="49.67212" lon="-1.6891">
        <ele>6.1999998092651</ele>
        <time>2019-08-08T12:30:52.000Z</time>
      </trkpt>
      <trkpt lat="49.67207" lon="-1.68922">
        <ele>6.1999998092651</ele>
        <time>2019-08-08T12:30:55.000Z</time>
      </trkpt>
      <trkpt lat="49.67205" lon="-1.68926">
        <ele>6.1999998092651</ele>
        <time>2019-08-08T12:30:56.000Z</time>
      </trkpt>
      <trkpt lat="49.67203" lon="-1.6893">
        <ele>6.4000000953674</ele>
        <time>2019-08-08T12:30:57.000Z</time>
      </trkpt>
      <trkpt lat="49.672" lon="-1.68939">
        <ele>6.1999998092651</ele>
        <time>2019-08-08T12:30:59.000Z</time>
      </trkpt>
      <trkpt lat="49.67196" lon="-1.68948">
        <ele>6</ele>
        <time>2019-08-08T12:31:01.000Z</time>
      </trkpt>
      <trkpt lat="49.67177" lon="-1.69015">
        <ele>4.8000001907349</ele>
        <time>2019-08-08T12:31:14.000Z</time>
      </trkpt>
      <trkpt lat="49.67158" lon="-1.69079">
        <ele>3.5999999046326</ele>
        <time>2019-08-08T12:31:26.000Z</time>
      </trkpt>
      <trkpt lat="49.67147" lon="-1.69111">
        <ele>4</ele>
        <time>2019-08-08T12:31:32.000Z</time>
      </trkpt>
      <trkpt lat="49.67144" lon="-1.69121">
        <ele>4.1999998092651</ele>
        <time>2019-08-08T12:31:34.000Z</time>
      </trkpt>
      <trkpt lat="49.67136" lon="-1.69146">
        <ele>4.1999998092651</ele>
        <time>2019-08-08T12:31:39.000Z</time>
      </trkpt>
      <trkpt lat="49.67118" lon="-1.69202">
        <ele>4.4000000953674</ele>
        <time>2019-08-08T12:31:50.000Z</time>
      </trkpt>
      <trkpt lat="49.67109" lon="-1.69229">
        <ele>4.1999998092651</ele>
        <time>2019-08-08T12:31:55.000Z</time>
      </trkpt>
      <trkpt lat="49.67098" lon="-1.69259">
        <ele>4.1999998092651</ele>
        <time>2019-08-08T12:32:01.000Z</time>
      </trkpt>
      <trkpt lat="49.67092" lon="-1.69274">
        <ele>4</ele>
        <time>2019-08-08T12:32:04.000Z</time>
      </trkpt>
      <trkpt lat="49.67085" lon="-1.69293">
        <ele>3.7999999523163</ele>
        <time>2019-08-08T12:32:08.000Z</time>
      </trkpt>
      <trkpt lat="49.67075" lon="-1.69322">
        <ele>3.5999999046326</ele>
        <time>2019-08-08T12:32:14.000Z</time>
      </trkpt>
      <trkpt lat="49.67069" lon="-1.69335">
        <ele>3.4000000953674</ele>
        <time>2019-08-08T12:32:17.000Z</time>
      </trkpt>
      <trkpt lat="49.67043" lon="-1.69397">
        <ele>3</ele>
        <time>2019-08-08T12:32:31.000Z</time>
      </trkpt>
      <trkpt lat="49.67021" lon="-1.6946">
        <ele>3</ele>
        <time>2019-08-08T12:32:46.000Z</time>
      </trkpt>
      <trkpt lat="49.67005" lon="-1.69526">
        <ele>3.5999999046326</ele>
        <time>2019-08-08T12:33:00.000Z</time>
      </trkpt>
      <trkpt lat="49.66998" lon="-1.69557">
        <ele>4.5999999046326</ele>
        <time>2019-08-08T12:33:06.000Z</time>
      </trkpt>
      <trkpt lat="49.66995" lon="-1.69578">
        <ele>5.4000000953674</ele>
        <time>2019-08-08T12:33:10.000Z</time>
      </trkpt>
      <trkpt lat="49.66976" lon="-1.69642">
        <ele>5</ele>
        <time>2019-08-08T12:33:23.000Z</time>
      </trkpt>
      <trkpt lat="49.66959" lon="-1.69703">
        <ele>5</ele>
        <time>2019-08-08T12:33:37.000Z</time>
      </trkpt>
      <trkpt lat="49.66959" lon="-1.69773">
        <ele>5</ele>
        <time>2019-08-08T12:33:50.000Z</time>
      </trkpt>
      <trkpt lat="49.66965" lon="-1.69844">
        <ele>5.1999998092651</ele>
        <time>2019-08-08T12:34:04.000Z</time>
      </trkpt>
      <trkpt lat="49.66973" lon="-1.69916">
        <ele>6</ele>
        <time>2019-08-08T12:34:18.000Z</time>
      </trkpt>
      <trkpt lat="49.66977" lon="-1.69986">
        <ele>6</ele>
        <time>2019-08-08T12:34:33.000Z</time>
      </trkpt>
      <trkpt lat="49.66981" lon="-1.70025">
        <ele>6</ele>
        <time>2019-08-08T12:34:41.000Z</time>
      </trkpt>
      <trkpt lat="49.6699" lon="-1.70097">
        <ele>5.1999998092651</ele>
        <time>2019-08-08T12:34:55.000Z</time>
      </trkpt>
      <trkpt lat="49.67001" lon="-1.70166">
        <ele>5.4000000953674</ele>
        <time>2019-08-08T12:35:08.000Z</time>
      </trkpt>
      <trkpt lat="49.67016" lon="-1.70232">
        <ele>4.8000001907349</ele>
        <time>2019-08-08T12:35:21.000Z</time>
      </trkpt>
      <trkpt lat="49.67033" lon="-1.70297">
        <ele>5.4000000953674</ele>
        <time>2019-08-08T12:35:34.000Z</time>
      </trkpt>
      <trkpt lat="49.6705" lon="-1.70367">
        <ele>6.4000000953674</ele>
        <time>2019-08-08T12:35:47.000Z</time>
      </trkpt>
      <trkpt lat="49.67067" lon="-1.70433">
        <ele>5.5999999046326</ele>
        <time>2019-08-08T12:36:00.000Z</time>
      </trkpt>
      <trkpt lat="49.67085" lon="-1.70478">
        <ele>4.4000000953674</ele>
        <time>2019-08-08T12:36:10.000Z</time>
      </trkpt>
      <trkpt lat="49.67091" lon="-1.70499">
        <ele>4</ele>
        <time>2019-08-08T12:36:15.000Z</time>
      </trkpt>
      <trkpt lat="49.67098" lon="-1.70518">
        <ele>4</ele>
        <time>2019-08-08T12:36:20.000Z</time>
      </trkpt>
      <trkpt lat="49.67118" lon="-1.70583">
        <ele>4.8000001907349</ele>
        <time>2019-08-08T12:36:34.000Z</time>
      </trkpt>
      <trkpt lat="49.67136" lon="-1.7065">
        <ele>4</ele>
        <time>2019-08-08T12:36:48.000Z</time>
      </trkpt>
      <trkpt lat="49.67159" lon="-1.70712">
        <ele>3</ele>
        <time>2019-08-08T12:37:03.000Z</time>
      </trkpt>
      <trkpt lat="49.67172" lon="-1.70753">
        <ele>2.5999999046326</ele>
        <time>2019-08-08T12:37:13.000Z</time>
      </trkpt>
      <trkpt lat="49.6719" lon="-1.7077">
        <ele>2.4000000953674</ele>
        <time>2019-08-08T12:37:19.000Z</time>
      </trkpt>
      <trkpt lat="49.67201" lon="-1.70779">
        <ele>2.4000000953674</ele>
        <time>2019-08-08T12:37:22.000Z</time>
      </trkpt>
      <trkpt lat="49.67231" lon="-1.70836">
        <ele>2.2000000476837</ele>
        <time>2019-08-08T12:37:35.000Z</time>
      </trkpt>
      <trkpt lat="49.67255" lon="-1.70895">
        <ele>3</ele>
        <time>2019-08-08T12:37:51.000Z</time>
      </trkpt>
      <trkpt lat="49.67296" lon="-1.70933">
        <ele>3</ele>
        <time>2019-08-08T12:38:06.000Z</time>
      </trkpt>
      <trkpt lat="49.67312" lon="-1.70949">
        <ele>3</ele>
        <time>2019-08-08T12:38:12.000Z</time>
      </trkpt>
      <trkpt lat="49.67358" lon="-1.70968">
        <ele>3</ele>
        <time>2019-08-08T12:38:25.000Z</time>
      </trkpt>
      <trkpt lat="49.67374" lon="-1.70975">
        <ele>2.7999999523163</ele>
        <time>2019-08-08T12:38:29.000Z</time>
      </trkpt>
      <trkpt lat="49.67394" lon="-1.70993">
        <ele>2.7999999523163</ele>
        <time>2019-08-08T12:38:35.000Z</time>
      </trkpt>
      <trkpt lat="49.67401" lon="-1.71001">
        <ele>2.7999999523163</ele>
        <time>2019-08-08T12:38:37.000Z</time>
      </trkpt>
      <trkpt lat="49.67433" lon="-1.71051">
        <ele>4</ele>
        <time>2019-08-08T12:38:47.000Z</time>
      </trkpt>
      <trkpt lat="49.67463" lon="-1.71088">
        <ele>4.4000000953674</ele>
        <time>2019-08-08T12:38:56.000Z</time>
      </trkpt>
      <trkpt lat="49.67472" lon="-1.71099">
        <ele>4</ele>
        <time>2019-08-08T12:38:59.000Z</time>
      </trkpt>
      <trkpt lat="49.67513" lon="-1.71134">
        <ele>3</ele>
        <time>2019-08-08T12:39:11.000Z</time>
      </trkpt>
      <trkpt lat="49.67524" lon="-1.71144">
        <ele>3</ele>
        <time>2019-08-08T12:39:14.000Z</time>
      </trkpt>
      <trkpt lat="49.67528" lon="-1.71147">
        <ele>3</ele>
        <time>2019-08-08T12:39:15.000Z</time>
      </trkpt>
      <trkpt lat="49.67539" lon="-1.71157">
        <ele>3</ele>
        <time>2019-08-08T12:39:18.000Z</time>
      </trkpt>
      <trkpt lat="49.67584" lon="-1.71184">
        <ele>3.4000000953674</ele>
        <time>2019-08-08T12:39:29.000Z</time>
      </trkpt>
      <trkpt lat="49.67629" lon="-1.7119">
        <ele>3</ele>
        <time>2019-08-08T12:39:42.000Z</time>
      </trkpt>
      <trkpt lat="49.67632" lon="-1.71191">
        <ele>3</ele>
        <time>2019-08-08T12:39:43.000Z</time>
      </trkpt>
      <trkpt lat="49.67648" lon="-1.71239">
        <ele>3</ele>
        <time>2019-08-08T12:39:53.000Z</time>
      </trkpt>
      <trkpt lat="49.67662" lon="-1.71291">
        <ele>2.7999999523163</ele>
        <time>2019-08-08T12:40:02.000Z</time>
      </trkpt>
      <trkpt lat="49.67679" lon="-1.71357">
        <ele>2.2000000476837</ele>
        <time>2019-08-08T12:40:13.000Z</time>
      </trkpt>
      <trkpt lat="49.67695" lon="-1.71422">
        <ele>2</ele>
        <time>2019-08-08T12:40:24.000Z</time>
      </trkpt>
      <trkpt lat="49.67708" lon="-1.71473">
        <ele>2</ele>
        <time>2019-08-08T12:40:33.000Z</time>
      </trkpt>
      <trkpt lat="49.67725" lon="-1.71539">
        <ele>2.2000000476837</ele>
        <time>2019-08-08T12:40:45.000Z</time>
      </trkpt>
      <trkpt lat="49.67684" lon="-1.71566">
        <ele>2</ele>
        <time>2019-08-08T12:41:00.000Z</time>
      </trkpt>
      <trkpt lat="49.67638" lon="-1.71587">
        <ele>2</ele>
        <time>2019-08-08T12:41:12.000Z</time>
      </trkpt>
      <trkpt lat="49.67593" lon="-1.71606">
        <ele>2.4000000953674</ele>
        <time>2019-08-08T12:41:23.000Z</time>
      </trkpt>
      <trkpt lat="49.67548" lon="-1.71626">
        <ele>2.5999999046326</ele>
        <time>2019-08-08T12:41:34.000Z</time>
      </trkpt>
      <trkpt lat="49.67504" lon="-1.71649">
        <ele>3</ele>
        <time>2019-08-08T12:41:45.000Z</time>
      </trkpt>
      <trkpt lat="49.6746" lon="-1.71671">
        <ele>2.7999999523163</ele>
        <time>2019-08-08T12:41:56.000Z</time>
      </trkpt>
      <trkpt lat="49.67416" lon="-1.7169">
        <ele>3.4000000953674</ele>
        <time>2019-08-08T12:42:07.000Z</time>
      </trkpt>
      <trkpt lat="49.67371" lon="-1.71693">
        <ele>3.4000000953674</ele>
        <time>2019-08-08T12:42:18.000Z</time>
      </trkpt>
      <trkpt lat="49.67322" lon="-1.71689">
        <ele>3.7999999523163</ele>
        <time>2019-08-08T12:42:30.000Z</time>
      </trkpt>
      <trkpt lat="49.67275" lon="-1.71679">
        <ele>4</ele>
        <time>2019-08-08T12:42:42.000Z</time>
      </trkpt>
      <trkpt lat="49.67227" lon="-1.71672">
        <ele>6</ele>
        <time>2019-08-08T12:42:54.000Z</time>
      </trkpt>
      <trkpt lat="49.6718" lon="-1.71667">
        <ele>7.8000001907349</ele>
        <time>2019-08-08T12:43:06.000Z</time>
      </trkpt>
      <trkpt lat="49.67155" lon="-1.71665">
        <ele>8.1999998092651</ele>
        <time>2019-08-08T12:43:12.000Z</time>
      </trkpt>
      <trkpt lat="49.67106" lon="-1.71669">
        <ele>9.6000003814697</ele>
        <time>2019-08-08T12:43:23.000Z</time>
      </trkpt>
      <trkpt lat="49.67093" lon="-1.71669">
        <ele>10</ele>
        <time>2019-08-08T12:43:26.000Z</time>
      </trkpt>
      <trkpt lat="49.67049" lon="-1.71662">
        <ele>10.800000190735</ele>
        <time>2019-08-08T12:43:37.000Z</time>
      </trkpt>
      <trkpt lat="49.67004" lon="-1.71637">
        <ele>11.39999961853</ele>
        <time>2019-08-08T12:43:48.000Z</time>
      </trkpt>
      <trkpt lat="49.6696" lon="-1.71613">
        <ele>11.800000190735</ele>
        <time>2019-08-08T12:43:59.000Z</time>
      </trkpt>
      <trkpt lat="49.66912" lon="-1.71612">
        <ele>15.39999961853</ele>
        <time>2019-08-08T12:44:10.000Z</time>
      </trkpt>
      <trkpt lat="49.66877" lon="-1.71644">
        <ele>19</ele>
        <time>2019-08-08T12:44:21.000Z</time>
      </trkpt>
      <trkpt lat="49.66872" lon="-1.71651">
        <ele>19.799999237061</ele>
        <time>2019-08-08T12:44:26.000Z</time>
      </trkpt>
      <trkpt lat="49.66868" lon="-1.71655">
        <ele>20.200000762939</ele>
        <time>2019-08-08T12:44:42.000Z</time>
      </trkpt>
      <trkpt lat="49.66845" lon="-1.71681">
        <ele>24</ele>
        <time>2019-08-08T12:44:51.000Z</time>
      </trkpt>
      <trkpt lat="49.6683" lon="-1.71701">
        <ele>26.60000038147</ele>
        <time>2019-08-08T12:44:57.000Z</time>
      </trkpt>
      <trkpt lat="49.66818" lon="-1.71713">
        <ele>28.60000038147</ele>
        <time>2019-08-08T12:45:02.000Z</time>
      </trkpt>
      <trkpt lat="49.66809" lon="-1.71716">
        <ele>29.60000038147</ele>
        <time>2019-08-08T12:45:05.000Z</time>
      </trkpt>
      <trkpt lat="49.66783" lon="-1.71698">
        <ele>29.39999961853</ele>
        <time>2019-08-08T12:45:14.000Z</time>
      </trkpt>
      <trkpt lat="49.66777" lon="-1.71692">
        <ele>29.200000762939</ele>
        <time>2019-08-08T12:45:16.000Z</time>
      </trkpt>
      <trkpt lat="49.66774" lon="-1.71689">
        <ele>29</ele>
        <time>2019-08-08T12:45:17.000Z</time>
      </trkpt>
      <trkpt lat="49.66769" lon="-1.71683">
        <ele>28.60000038147</ele>
        <time>2019-08-08T12:45:19.000Z</time>
      </trkpt>
      <trkpt lat="49.66766" lon="-1.7168">
        <ele>28.60000038147</ele>
        <time>2019-08-08T12:45:20.000Z</time>
      </trkpt>
      <trkpt lat="49.66763" lon="-1.71677">
        <ele>28.39999961853</ele>
        <time>2019-08-08T12:45:21.000Z</time>
      </trkpt>
      <trkpt lat="49.6676" lon="-1.71673">
        <ele>27.799999237061</ele>
        <time>2019-08-08T12:45:22.000Z</time>
      </trkpt>
      <trkpt lat="49.66758" lon="-1.71668">
        <ele>27.200000762939</ele>
        <time>2019-08-08T12:45:23.000Z</time>
      </trkpt>
      <trkpt lat="49.66755" lon="-1.71663">
        <ele>26.60000038147</ele>
        <time>2019-08-08T12:45:24.000Z</time>
      </trkpt>
      <trkpt lat="49.66729" lon="-1.71627">
        <ele>23.39999961853</ele>
        <time>2019-08-08T12:45:32.000Z</time>
      </trkpt>
      <trkpt lat="49.66724" lon="-1.71622">
        <ele>22.799999237061</ele>
        <time>2019-08-08T12:45:33.000Z</time>
      </trkpt>
      <trkpt lat="49.66719" lon="-1.71617">
        <ele>22</ele>
        <time>2019-08-08T12:45:34.000Z</time>
      </trkpt>
      <trkpt lat="49.66713" lon="-1.71611">
        <ele>21.200000762939</ele>
        <time>2019-08-08T12:45:35.000Z</time>
      </trkpt>
      <trkpt lat="49.66709" lon="-1.71605">
        <ele>20.200000762939</ele>
        <time>2019-08-08T12:45:36.000Z</time>
      </trkpt>
      <trkpt lat="49.66702" lon="-1.7159">
        <ele>18.39999961853</ele>
        <time>2019-08-08T12:45:38.000Z</time>
      </trkpt>
      <trkpt lat="49.667" lon="-1.71569">
        <ele>16</ele>
        <time>2019-08-08T12:45:40.000Z</time>
      </trkpt>
      <trkpt lat="49.66701" lon="-1.71531">
        <ele>14.199999809265</ele>
        <time>2019-08-08T12:45:43.000Z</time>
      </trkpt>
      <trkpt lat="49.66697" lon="-1.71509">
        <ele>13</ele>
        <time>2019-08-08T12:45:45.000Z</time>
      </trkpt>
      <trkpt lat="49.66689" lon="-1.71464">
        <ele>13.39999961853</ele>
        <time>2019-08-08T12:45:49.000Z</time>
      </trkpt>
      <trkpt lat="49.66689" lon="-1.71405">
        <ele>13.800000190735</ele>
        <time>2019-08-08T12:45:54.000Z</time>
      </trkpt>
      <trkpt lat="49.66689" lon="-1.71394">
        <ele>13.800000190735</ele>
        <time>2019-08-08T12:45:55.000Z</time>
      </trkpt>
      <trkpt lat="49.66691" lon="-1.71362">
        <ele>13.60000038147</ele>
        <time>2019-08-08T12:45:58.000Z</time>
      </trkpt>
      <trkpt lat="49.66692" lon="-1.71342">
        <ele>13.39999961853</ele>
        <time>2019-08-08T12:46:00.000Z</time>
      </trkpt>
      <trkpt lat="49.66697" lon="-1.71304">
        <ele>13</ele>
        <time>2019-08-08T12:46:04.000Z</time>
      </trkpt>
      <trkpt lat="49.66711" lon="-1.71251">
        <ele>12.39999961853</ele>
        <time>2019-08-08T12:46:11.000Z</time>
      </trkpt>
      <trkpt lat="49.66713" lon="-1.71236">
        <ele>12.60000038147</ele>
        <time>2019-08-08T12:46:14.000Z</time>
      </trkpt>
      <trkpt lat="49.66695" lon="-1.7122">
        <ele>14.39999961853</ele>
        <time>2019-08-08T12:46:21.000Z</time>
      </trkpt>
      <trkpt lat="49.66653" lon="-1.71197">
        <ele>21.200000762939</ele>
        <time>2019-08-08T12:46:36.000Z</time>
      </trkpt>
      <trkpt lat="49.66645" lon="-1.71192">
        <ele>22.200000762939</ele>
        <time>2019-08-08T12:46:39.000Z</time>
      </trkpt>
      <trkpt lat="49.66637" lon="-1.71187">
        <ele>23.200000762939</ele>
        <time>2019-08-08T12:46:42.000Z</time>
      </trkpt>
      <trkpt lat="49.66629" lon="-1.71182">
        <ele>24.39999961853</ele>
        <time>2019-08-08T12:46:45.000Z</time>
      </trkpt>
      <trkpt lat="49.66618" lon="-1.71175">
        <ele>26.200000762939</ele>
        <time>2019-08-08T12:46:49.000Z</time>
      </trkpt>
      <trkpt lat="49.66605" lon="-1.71166">
        <ele>30.60000038147</ele>
        <time>2019-08-08T12:46:54.000Z</time>
      </trkpt>
      <trkpt lat="49.6659" lon="-1.7115">
        <ele>33.599998474121</ele>
        <time>2019-08-08T12:47:00.000Z</time>
      </trkpt>
      <trkpt lat="49.6658" lon="-1.71131">
        <ele>35.799999237061</ele>
        <time>2019-08-08T12:47:05.000Z</time>
      </trkpt>
      <trkpt lat="49.66563" lon="-1.71098">
        <ele>38.799999237061</ele>
        <time>2019-08-08T12:47:14.000Z</time>
      </trkpt>
      <trkpt lat="49.66532" lon="-1.71047">
        <ele>45.400001525879</ele>
        <time>2019-08-08T12:47:31.000Z</time>
      </trkpt>
      <trkpt lat="49.66512" lon="-1.71018">
        <ele>50</ele>
        <time>2019-08-08T12:47:44.000Z</time>
      </trkpt>
      <trkpt lat="49.66484" lon="-1.71004">
        <ele>55.400001525879</ele>
        <time>2019-08-08T12:48:02.000Z</time>
      </trkpt>
      <trkpt lat="49.66465" lon="-1.71008">
        <ele>59.200000762939</ele>
        <time>2019-08-08T12:48:14.000Z</time>
      </trkpt>
      <trkpt lat="49.66448" lon="-1.71012">
        <ele>61.799999237061</ele>
        <time>2019-08-08T12:48:21.000Z</time>
      </trkpt>
      <trkpt lat="49.66403" lon="-1.71025">
        <ele>64.599998474121</ele>
        <time>2019-08-08T12:48:39.000Z</time>
      </trkpt>
      <trkpt lat="49.66363" lon="-1.7105">
        <ele>67.199996948242</ele>
        <time>2019-08-08T12:48:57.000Z</time>
      </trkpt>
      <trkpt lat="49.6633" lon="-1.71097">
        <ele>68.599998474121</ele>
        <time>2019-08-08T12:49:17.000Z</time>
      </trkpt>
      <trkpt lat="49.66329" lon="-1.71098">
        <ele>68.599998474121</ele>
        <time>2019-08-08T12:49:19.000Z</time>
      </trkpt>
      <trkpt lat="49.66331" lon="-1.71084">
        <ele>68.199996948242</ele>
        <time>2019-08-08T12:51:10.000Z</time>
      </trkpt>
      <trkpt lat="49.6633" lon="-1.71086">
        <ele>68.400001525879</ele>
        <time>2019-08-08T12:51:11.000Z</time>
      </trkpt>
      <trkpt lat="49.663" lon="-1.71135">
        <ele>70.199996948242</ele>
        <time>2019-08-08T12:51:37.000Z</time>
      </trkpt>
      <trkpt lat="49.66294" lon="-1.71142">
        <ele>70.599998474121</ele>
        <time>2019-08-08T12:51:42.000Z</time>
      </trkpt>
      <trkpt lat="49.66291" lon="-1.71145">
        <ele>70.599998474121</ele>
        <time>2019-08-08T12:51:44.000Z</time>
      </trkpt>
      <trkpt lat="49.66289" lon="-1.71147">
        <ele>70.800003051758</ele>
        <time>2019-08-08T12:51:45.000Z</time>
      </trkpt>
      <trkpt lat="49.66254" lon="-1.71183">
        <ele>69.400001525879</ele>
        <time>2019-08-08T12:52:03.000Z</time>
      </trkpt>
      <trkpt lat="49.66249" lon="-1.71182">
        <ele>69.199996948242</ele>
        <time>2019-08-08T12:52:05.000Z</time>
      </trkpt>
      <trkpt lat="49.66216" lon="-1.71216">
        <ele>67.599998474121</ele>
        <time>2019-08-08T12:52:19.000Z</time>
      </trkpt>
      <trkpt lat="49.66206" lon="-1.71238">
        <ele>67.199996948242</ele>
        <time>2019-08-08T12:52:23.000Z</time>
      </trkpt>
      <trkpt lat="49.66203" lon="-1.71244">
        <ele>67.199996948242</ele>
        <time>2019-08-08T12:52:24.000Z</time>
      </trkpt>
      <trkpt lat="49.66178" lon="-1.71299">
        <ele>69.599998474121</ele>
        <time>2019-08-08T12:52:34.000Z</time>
      </trkpt>
      <trkpt lat="49.66175" lon="-1.71303">
        <ele>69.800003051758</ele>
        <time>2019-08-08T12:52:35.000Z</time>
      </trkpt>
      <trkpt lat="49.66167" lon="-1.71318">
        <ele>70.400001525879</ele>
        <time>2019-08-08T12:52:38.000Z</time>
      </trkpt>
      <trkpt lat="49.66165" lon="-1.71322">
        <ele>70.599998474121</ele>
        <time>2019-08-08T12:52:39.000Z</time>
      </trkpt>
      <trkpt lat="49.66163" lon="-1.71327">
        <ele>70.599998474121</ele>
        <time>2019-08-08T12:52:40.000Z</time>
      </trkpt>
      <trkpt lat="49.6615" lon="-1.71347">
        <ele>71.199996948242</ele>
        <time>2019-08-08T12:52:45.000Z</time>
      </trkpt>
      <trkpt lat="49.66122" lon="-1.714">
        <ele>72.800003051758</ele>
        <time>2019-08-08T12:52:58.000Z</time>
      </trkpt>
      <trkpt lat="49.6609" lon="-1.71456">
        <ele>76.800003051758</ele>
        <time>2019-08-08T12:53:12.000Z</time>
      </trkpt>
      <trkpt lat="49.66057" lon="-1.71508">
        <ele>80</ele>
        <time>2019-08-08T12:53:26.000Z</time>
      </trkpt>
      <trkpt lat="49.66019" lon="-1.71551">
        <ele>81.800003051758</ele>
        <time>2019-08-08T12:53:40.000Z</time>
      </trkpt>
      <trkpt lat="49.6598" lon="-1.71589">
        <ele>82.800003051758</ele>
        <time>2019-08-08T12:53:53.000Z</time>
      </trkpt>
      <trkpt lat="49.6594" lon="-1.71624">
        <ele>83.599998474121</ele>
        <time>2019-08-08T12:54:06.000Z</time>
      </trkpt>
      <trkpt lat="49.65903" lon="-1.71666">
        <ele>84.199996948242</ele>
        <time>2019-08-08T12:54:19.000Z</time>
      </trkpt>
      <trkpt lat="49.65885" lon="-1.71678">
        <ele>84.199996948242</ele>
        <time>2019-08-08T12:54:24.000Z</time>
      </trkpt>
      <trkpt lat="49.65877" lon="-1.71677">
        <ele>84.199996948242</ele>
        <time>2019-08-08T12:54:26.000Z</time>
      </trkpt>
      <trkpt lat="49.6587" lon="-1.71673">
        <ele>84.199996948242</ele>
        <time>2019-08-08T12:54:28.000Z</time>
      </trkpt>
      <trkpt lat="49.65851" lon="-1.71649">
        <ele>84.400001525879</ele>
        <time>2019-08-08T12:54:34.000Z</time>
      </trkpt>
      <trkpt lat="49.65846" lon="-1.71638">
        <ele>84.400001525879</ele>
        <time>2019-08-08T12:54:36.000Z</time>
      </trkpt>
      <trkpt lat="49.65818" lon="-1.71582">
        <ele>83.800003051758</ele>
        <time>2019-08-08T12:54:47.000Z</time>
      </trkpt>
      <trkpt lat="49.65792" lon="-1.71531">
        <ele>84.400001525879</ele>
        <time>2019-08-08T12:54:57.000Z</time>
      </trkpt>
      <trkpt lat="49.65787" lon="-1.7152">
        <ele>84.599998474121</ele>
        <time>2019-08-08T12:54:59.000Z</time>
      </trkpt>
      <trkpt lat="49.65778" lon="-1.71506">
        <ele>84.599998474121</ele>
        <time>2019-08-08T12:55:02.000Z</time>
      </trkpt>
      <trkpt lat="49.65737" lon="-1.71498">
        <ele>84.199996948242</ele>
        <time>2019-08-08T12:55:15.000Z</time>
      </trkpt>
      <trkpt lat="49.65718" lon="-1.71508">
        <ele>84</ele>
        <time>2019-08-08T12:55:20.000Z</time>
      </trkpt>
      <trkpt lat="49.65711" lon="-1.71512">
        <ele>83.800003051758</ele>
        <time>2019-08-08T12:55:22.000Z</time>
      </trkpt>
      <trkpt lat="49.65707" lon="-1.71513">
        <ele>83.800003051758</ele>
        <time>2019-08-08T12:55:23.000Z</time>
      </trkpt>
      <trkpt lat="49.65704" lon="-1.71515">
        <ele>83.599998474121</ele>
        <time>2019-08-08T12:55:24.000Z</time>
      </trkpt>
      <trkpt lat="49.657" lon="-1.71517">
        <ele>83.599998474121</ele>
        <time>2019-08-08T12:55:25.000Z</time>
      </trkpt>
      <trkpt lat="49.65689" lon="-1.71523">
        <ele>83</ele>
        <time>2019-08-08T12:55:28.000Z</time>
      </trkpt>
      <trkpt lat="49.65678" lon="-1.71527">
        <ele>82.599998474121</ele>
        <time>2019-08-08T12:55:31.000Z</time>
      </trkpt>
      <trkpt lat="49.65666" lon="-1.71529">
        <ele>82.199996948242</ele>
        <time>2019-08-08T12:55:34.000Z</time>
      </trkpt>
      <trkpt lat="49.65652" lon="-1.7153">
        <ele>81.800003051758</ele>
        <time>2019-08-08T12:55:37.000Z</time>
      </trkpt>
      <trkpt lat="49.65637" lon="-1.71532">
        <ele>81.400001525879</ele>
        <time>2019-08-08T12:55:40.000Z</time>
      </trkpt>
      <trkpt lat="49.65632" lon="-1.71532">
        <ele>81.199996948242</ele>
        <time>2019-08-08T12:55:41.000Z</time>
      </trkpt>
      <trkpt lat="49.65621" lon="-1.71532">
        <ele>81</ele>
        <time>2019-08-08T12:55:43.000Z</time>
      </trkpt>
      <trkpt lat="49.65605" lon="-1.71534">
        <ele>80.599998474121</ele>
        <time>2019-08-08T12:55:46.000Z</time>
      </trkpt>
      <trkpt lat="49.65594" lon="-1.71537">
        <ele>80.199996948242</ele>
        <time>2019-08-08T12:55:48.000Z</time>
      </trkpt>
      <trkpt lat="49.65549" lon="-1.71553">
        <ele>78.599998474121</ele>
        <time>2019-08-08T12:55:55.000Z</time>
      </trkpt>
      <trkpt lat="49.65527" lon="-1.71561">
        <ele>78</ele>
        <time>2019-08-08T12:55:58.000Z</time>
      </trkpt>
      <trkpt lat="49.6552" lon="-1.71563">
        <ele>78</ele>
        <time>2019-08-08T12:55:59.000Z</time>
      </trkpt>
      <trkpt lat="49.65486" lon="-1.71561">
        <ele>78</ele>
        <time>2019-08-08T12:56:04.000Z</time>
      </trkpt>
      <trkpt lat="49.65458" lon="-1.71557">
        <ele>77.800003051758</ele>
        <time>2019-08-08T12:56:08.000Z</time>
      </trkpt>
      <trkpt lat="49.65444" lon="-1.71561">
        <ele>77.599998474121</ele>
        <time>2019-08-08T12:56:10.000Z</time>
      </trkpt>
      <trkpt lat="49.65402" lon="-1.71593">
        <ele>77.400001525879</ele>
        <time>2019-08-08T12:56:19.000Z</time>
      </trkpt>
      <trkpt lat="49.65363" lon="-1.71629">
        <ele>77</ele>
        <time>2019-08-08T12:56:29.000Z</time>
      </trkpt>
      <trkpt lat="49.65353" lon="-1.71639">
        <ele>76.800003051758</ele>
        <time>2019-08-08T12:56:32.000Z</time>
      </trkpt>
      <trkpt lat="49.6531" lon="-1.71682">
        <ele>75.400001525879</ele>
        <time>2019-08-08T12:56:42.000Z</time>
      </trkpt>
      <trkpt lat="49.65294" lon="-1.71696">
        <ele>75</ele>
        <time>2019-08-08T12:56:45.000Z</time>
      </trkpt>
      <trkpt lat="49.65274" lon="-1.71716">
        <ele>74.400001525879</ele>
        <time>2019-08-08T12:56:49.000Z</time>
      </trkpt>
      <trkpt lat="49.65269" lon="-1.71722">
        <ele>74.199996948242</ele>
        <time>2019-08-08T12:56:50.000Z</time>
      </trkpt>
      <trkpt lat="49.65243" lon="-1.71744">
        <ele>73.599998474121</ele>
        <time>2019-08-08T12:56:55.000Z</time>
      </trkpt>
      <trkpt lat="49.65213" lon="-1.7177">
        <ele>72.800003051758</ele>
        <time>2019-08-08T12:57:01.000Z</time>
      </trkpt>
      <trkpt lat="49.6518" lon="-1.71794">
        <ele>72.199996948242</ele>
        <time>2019-08-08T12:57:07.000Z</time>
      </trkpt>
      <trkpt lat="49.65133" lon="-1.71817">
        <ele>71.199996948242</ele>
        <time>2019-08-08T12:57:15.000Z</time>
      </trkpt>
      <trkpt lat="49.65086" lon="-1.71829">
        <ele>70.400001525879</ele>
        <time>2019-08-08T12:57:24.000Z</time>
      </trkpt>
      <trkpt lat="49.65061" lon="-1.71833">
        <ele>70</ele>
        <time>2019-08-08T12:57:29.000Z</time>
      </trkpt>
      <trkpt lat="49.65013" lon="-1.71846">
        <ele>68.599998474121</ele>
        <time>2019-08-08T12:57:39.000Z</time>
      </trkpt>
      <trkpt lat="49.64998" lon="-1.71859">
        <ele>68.199996948242</ele>
        <time>2019-08-08T12:57:42.000Z</time>
      </trkpt>
      <trkpt lat="49.64989" lon="-1.71873">
        <ele>68</ele>
        <time>2019-08-08T12:57:44.000Z</time>
      </trkpt>
      <trkpt lat="49.64971" lon="-1.71937">
        <ele>68.599998474121</ele>
        <time>2019-08-08T12:57:52.000Z</time>
      </trkpt>
      <trkpt lat="49.64962" lon="-1.71972">
        <ele>69</ele>
        <time>2019-08-08T12:57:57.000Z</time>
      </trkpt>
      <trkpt lat="49.64957" lon="-1.71984">
        <ele>69.199996948242</ele>
        <time>2019-08-08T12:57:59.000Z</time>
      </trkpt>
      <trkpt lat="49.64951" lon="-1.71992">
        <ele>69</ele>
        <time>2019-08-08T12:58:01.000Z</time>
      </trkpt>
      <trkpt lat="49.64939" lon="-1.71997">
        <ele>68.599998474121</ele>
        <time>2019-08-08T12:58:04.000Z</time>
      </trkpt>
      <trkpt lat="49.64931" lon="-1.71995">
        <ele>68.199996948242</ele>
        <time>2019-08-08T12:58:06.000Z</time>
      </trkpt>
      <trkpt lat="49.64889" lon="-1.7197">
        <ele>65.599998474121</ele>
        <time>2019-08-08T12:58:16.000Z</time>
      </trkpt>
      <trkpt lat="49.64846" lon="-1.71944">
        <ele>68</ele>
        <time>2019-08-08T12:58:25.000Z</time>
      </trkpt>
      <trkpt lat="49.64803" lon="-1.71919">
        <ele>69.800003051758</ele>
        <time>2019-08-08T12:58:34.000Z</time>
      </trkpt>
      <trkpt lat="49.64756" lon="-1.71892">
        <ele>71.400001525879</ele>
        <time>2019-08-08T12:58:44.000Z</time>
      </trkpt>
      <trkpt lat="49.64715" lon="-1.71874">
        <ele>72.800003051758</ele>
        <time>2019-08-08T12:58:52.000Z</time>
      </trkpt>
      <trkpt lat="49.64668" lon="-1.71885">
        <ele>74.599998474121</ele>
        <time>2019-08-08T12:59:03.000Z</time>
      </trkpt>
      <trkpt lat="49.64624" lon="-1.71909">
        <ele>77</ele>
        <time>2019-08-08T12:59:16.000Z</time>
      </trkpt>
      <trkpt lat="49.64579" lon="-1.71923">
        <ele>79.599998474121</ele>
        <time>2019-08-08T12:59:32.000Z</time>
      </trkpt>
      <trkpt lat="49.64559" lon="-1.71977">
        <ele>81.800003051758</ele>
        <time>2019-08-08T12:59:50.000Z</time>
      </trkpt>
      <trkpt lat="49.64546" lon="-1.72046">
        <ele>84</ele>
        <time>2019-08-08T13:00:09.000Z</time>
      </trkpt>
      <trkpt lat="49.6453" lon="-1.72112">
        <ele>86</ele>
        <time>2019-08-08T13:00:23.000Z</time>
      </trkpt>
      <trkpt lat="49.64518" lon="-1.72173">
        <ele>86.800003051758</ele>
        <time>2019-08-08T13:00:34.000Z</time>
      </trkpt>
      <trkpt lat="49.64507" lon="-1.7222">
        <ele>86.599998474121</ele>
        <time>2019-08-08T13:00:42.000Z</time>
      </trkpt>
      <trkpt lat="49.64504" lon="-1.72232">
        <ele>86.599998474121</ele>
        <time>2019-08-08T13:00:44.000Z</time>
      </trkpt>
      <trkpt lat="49.64499" lon="-1.72251">
        <ele>86.199996948242</ele>
        <time>2019-08-08T13:00:47.000Z</time>
      </trkpt>
      <trkpt lat="49.64493" lon="-1.72276">
        <ele>85.599998474121</ele>
        <time>2019-08-08T13:00:51.000Z</time>
      </trkpt>
      <trkpt lat="49.64485" lon="-1.72305">
        <ele>85</ele>
        <time>2019-08-08T13:00:56.000Z</time>
      </trkpt>
      <trkpt lat="49.64463" lon="-1.72374">
        <ele>82.400001525879</ele>
        <time>2019-08-08T13:01:06.000Z</time>
      </trkpt>
      <trkpt lat="49.64447" lon="-1.7244">
        <ele>80.400001525879</ele>
        <time>2019-08-08T13:01:12.000Z</time>
      </trkpt>
      <trkpt lat="49.64437" lon="-1.725">
        <ele>79.800003051758</ele>
        <time>2019-08-08T13:01:16.000Z</time>
      </trkpt>
      <trkpt lat="49.64428" lon="-1.7253">
        <ele>79.800003051758</ele>
        <time>2019-08-08T13:01:18.000Z</time>
      </trkpt>
      <trkpt lat="49.64393" lon="-1.72584">
        <ele>82.199996948242</ele>
        <time>2019-08-08T13:01:23.000Z</time>
      </trkpt>
      <trkpt lat="49.64355" lon="-1.72626">
        <ele>87.199996948242</ele>
        <time>2019-08-08T13:01:31.000Z</time>
      </trkpt>
      <trkpt lat="49.64323" lon="-1.72654">
        <ele>90.800003051758</ele>
        <time>2019-08-08T13:01:46.000Z</time>
      </trkpt>
      <trkpt lat="49.64322" lon="-1.72686">
        <ele>91.199996948242</ele>
        <time>2019-08-08T13:01:57.000Z</time>
      </trkpt>
      <trkpt lat="49.64347" lon="-1.72755">
        <ele>89.800003051758</ele>
        <time>2019-08-08T13:02:06.000Z</time>
      </trkpt>
      <trkpt lat="49.64375" lon="-1.72823">
        <ele>84.199996948242</ele>
        <time>2019-08-08T13:02:12.000Z</time>
      </trkpt>
      <trkpt lat="49.644" lon="-1.72886">
        <ele>79.599998474121</ele>
        <time>2019-08-08T13:02:19.000Z</time>
      </trkpt>
      <trkpt lat="49.64403" lon="-1.72893">
        <ele>79.400001525879</ele>
        <time>2019-08-08T13:02:20.000Z</time>
      </trkpt>
      <trkpt lat="49.64403" lon="-1.72908">
        <ele>79.400001525879</ele>
        <time>2019-08-08T13:02:22.000Z</time>
      </trkpt>
      <trkpt lat="49.64404" lon="-1.7294">
        <ele>78.199996948242</ele>
        <time>2019-08-08T13:02:28.000Z</time>
      </trkpt>
      <trkpt lat="49.64402" lon="-1.73011">
        <ele>80.599998474121</ele>
        <time>2019-08-08T13:02:43.000Z</time>
      </trkpt>
      <trkpt lat="49.64356" lon="-1.73038">
        <ele>81</ele>
        <time>2019-08-08T13:02:55.000Z</time>
      </trkpt>
      <trkpt lat="49.6433" lon="-1.73052">
        <ele>80.599998474121</ele>
        <time>2019-08-08T13:03:01.000Z</time>
      </trkpt>
      <trkpt lat="49.64312" lon="-1.7306">
        <ele>80.400001525879</ele>
        <time>2019-08-08T13:03:05.000Z</time>
      </trkpt>
      <trkpt lat="49.64307" lon="-1.73062">
        <ele>80.400001525879</ele>
        <time>2019-08-08T13:03:06.000Z</time>
      </trkpt>
      <trkpt lat="49.64303" lon="-1.73065">
        <ele>80.400001525879</ele>
        <time>2019-08-08T13:03:07.000Z</time>
      </trkpt>
      <trkpt lat="49.6427" lon="-1.73085">
        <ele>80.599998474121</ele>
        <time>2019-08-08T13:03:14.000Z</time>
      </trkpt>
      <trkpt lat="49.64266" lon="-1.73088">
        <ele>80.599998474121</ele>
        <time>2019-08-08T13:03:15.000Z</time>
      </trkpt>
      <trkpt lat="49.64262" lon="-1.73091">
        <ele>80.800003051758</ele>
        <time>2019-08-08T13:03:16.000Z</time>
      </trkpt>
      <trkpt lat="49.64257" lon="-1.73094">
        <ele>81</ele>
        <time>2019-08-08T13:03:17.000Z</time>
      </trkpt>
      <trkpt lat="49.64249" lon="-1.73101">
        <ele>81.199996948242</ele>
        <time>2019-08-08T13:03:19.000Z</time>
      </trkpt>
      <trkpt lat="49.64233" lon="-1.73115">
        <ele>81.800003051758</ele>
        <time>2019-08-08T13:03:23.000Z</time>
      </trkpt>
      <trkpt lat="49.64229" lon="-1.73119">
        <ele>82</ele>
        <time>2019-08-08T13:03:24.000Z</time>
      </trkpt>
      <trkpt lat="49.64225" lon="-1.73124">
        <ele>82.199996948242</ele>
        <time>2019-08-08T13:03:25.000Z</time>
      </trkpt>
      <trkpt lat="49.6421" lon="-1.73142">
        <ele>82.599998474121</ele>
        <time>2019-08-08T13:03:29.000Z</time>
      </trkpt>
      <trkpt lat="49.64192" lon="-1.73165">
        <ele>83.400001525879</ele>
        <time>2019-08-08T13:03:34.000Z</time>
      </trkpt>
      <trkpt lat="49.64186" lon="-1.73175">
        <ele>83.599998474121</ele>
        <time>2019-08-08T13:03:36.000Z</time>
      </trkpt>
      <trkpt lat="49.64167" lon="-1.73203">
        <ele>84.599998474121</ele>
        <time>2019-08-08T13:03:43.000Z</time>
      </trkpt>
      <trkpt lat="49.64163" lon="-1.73209">
        <ele>84.800003051758</ele>
        <time>2019-08-08T13:03:45.000Z</time>
      </trkpt>
      <trkpt lat="49.64161" lon="-1.73213">
        <ele>85</ele>
        <time>2019-08-08T13:03:46.000Z</time>
      </trkpt>
      <trkpt lat="49.64159" lon="-1.73216">
        <ele>85</ele>
        <time>2019-08-08T13:03:47.000Z</time>
      </trkpt>
      <trkpt lat="49.64157" lon="-1.73219">
        <ele>85.199996948242</ele>
        <time>2019-08-08T13:03:48.000Z</time>
      </trkpt>
      <trkpt lat="49.64155" lon="-1.73223">
        <ele>85.199996948242</ele>
        <time>2019-08-08T13:03:49.000Z</time>
      </trkpt>
      <trkpt lat="49.64152" lon="-1.7323">
        <ele>85.400001525879</ele>
        <time>2019-08-08T13:03:51.000Z</time>
      </trkpt>
      <trkpt lat="49.6415" lon="-1.73238">
        <ele>85.599998474121</ele>
        <time>2019-08-08T13:03:53.000Z</time>
      </trkpt>
      <trkpt lat="49.64148" lon="-1.73243">
        <ele>85.599998474121</ele>
        <time>2019-08-08T13:03:54.000Z</time>
      </trkpt>
      <trkpt lat="49.64144" lon="-1.7326">
        <ele>85.800003051758</ele>
        <time>2019-08-08T13:03:58.000Z</time>
      </trkpt>
      <trkpt lat="49.6413" lon="-1.73327">
        <ele>86.599998474121</ele>
        <time>2019-08-08T13:04:10.000Z</time>
      </trkpt>
      <trkpt lat="49.6412" lon="-1.73375">
        <ele>85.400001525879</ele>
        <time>2019-08-08T13:04:18.000Z</time>
      </trkpt>
      <trkpt lat="49.64118" lon="-1.73389">
        <ele>85.199996948242</ele>
        <time>2019-08-08T13:04:20.000Z</time>
      </trkpt>
      <trkpt lat="49.64114" lon="-1.73429">
        <ele>85.599998474121</ele>
        <time>2019-08-08T13:04:25.000Z</time>
      </trkpt>
      <trkpt lat="49.64107" lon="-1.735">
        <ele>87.400001525879</ele>
        <time>2019-08-08T13:04:34.000Z</time>
      </trkpt>
      <trkpt lat="49.64103" lon="-1.7357">
        <ele>89</ele>
        <time>2019-08-08T13:04:43.000Z</time>
      </trkpt>
      <trkpt lat="49.641" lon="-1.73616">
        <ele>91.400001525879</ele>
        <time>2019-08-08T13:04:49.000Z</time>
      </trkpt>
      <trkpt lat="49.64097" lon="-1.73665">
        <ele>93.400001525879</ele>
        <time>2019-08-08T13:04:56.000Z</time>
      </trkpt>
      <trkpt lat="49.64095" lon="-1.73696">
        <ele>93.800003051758</ele>
        <time>2019-08-08T13:05:01.000Z</time>
      </trkpt>
      <trkpt lat="49.64096" lon="-1.73703">
        <ele>93.599998474121</ele>
        <time>2019-08-08T13:05:02.000Z</time>
      </trkpt>
      <trkpt lat="49.64096" lon="-1.73716">
        <ele>93.400001525879</ele>
        <time>2019-08-08T13:05:04.000Z</time>
      </trkpt>
      <trkpt lat="49.64096" lon="-1.73733">
        <ele>93.199996948242</ele>
        <time>2019-08-08T13:05:07.000Z</time>
      </trkpt>
      <trkpt lat="49.64097" lon="-1.73745">
        <ele>93.199996948242</ele>
        <time>2019-08-08T13:05:09.000Z</time>
      </trkpt>
      <trkpt lat="49.64096" lon="-1.7377">
        <ele>93.599998474121</ele>
        <time>2019-08-08T13:05:13.000Z</time>
      </trkpt>
      <trkpt lat="49.64094" lon="-1.73794">
        <ele>93.599998474121</ele>
        <time>2019-08-08T13:05:17.000Z</time>
      </trkpt>
      <trkpt lat="49.64094" lon="-1.73812">
        <ele>93.400001525879</ele>
        <time>2019-08-08T13:05:20.000Z</time>
      </trkpt>
      <trkpt lat="49.64095" lon="-1.73842">
        <ele>92.800003051758</ele>
        <time>2019-08-08T13:05:25.000Z</time>
      </trkpt>
      <trkpt lat="49.6409" lon="-1.73913">
        <ele>96</ele>
        <time>2019-08-08T13:05:36.000Z</time>
      </trkpt>
      <trkpt lat="49.64088" lon="-1.73986">
        <ele>99.599998474121</ele>
        <time>2019-08-08T13:05:47.000Z</time>
      </trkpt>
      <trkpt lat="49.64087" lon="-1.7404">
        <ele>101.19999694824</ele>
        <time>2019-08-08T13:05:55.000Z</time>
      </trkpt>
      <trkpt lat="49.64086" lon="-1.74113">
        <ele>100.19999694824</ele>
        <time>2019-08-08T13:06:06.000Z</time>
      </trkpt>
      <trkpt lat="49.64079" lon="-1.74186">
        <ele>97.199996948242</ele>
        <time>2019-08-08T13:06:17.000Z</time>
      </trkpt>
      <trkpt lat="49.64075" lon="-1.74257">
        <ele>95</ele>
        <time>2019-08-08T13:06:28.000Z</time>
      </trkpt>
      <trkpt lat="49.64072" lon="-1.74315">
        <ele>94.199996948242</ele>
        <time>2019-08-08T13:06:37.000Z</time>
      </trkpt>
      <trkpt lat="49.64067" lon="-1.7439">
        <ele>96.199996948242</ele>
        <time>2019-08-08T13:06:49.000Z</time>
      </trkpt>
      <trkpt lat="49.64058" lon="-1.7446">
        <ele>96.800003051758</ele>
        <time>2019-08-08T13:07:00.000Z</time>
      </trkpt>
      <trkpt lat="49.6405" lon="-1.7453">
        <ele>98</ele>
        <time>2019-08-08T13:07:12.000Z</time>
      </trkpt>
      <trkpt lat="49.64042" lon="-1.74601">
        <ele>99.599998474121</ele>
        <time>2019-08-08T13:07:25.000Z</time>
      </trkpt>
      <trkpt lat="49.64031" lon="-1.74657">
        <ele>101.19999694824</ele>
        <time>2019-08-08T13:07:36.000Z</time>
      </trkpt>
      <trkpt lat="49.64014" lon="-1.74724">
        <ele>104.59999847412</ele>
        <time>2019-08-08T13:07:50.000Z</time>
      </trkpt>
      <trkpt lat="49.63998" lon="-1.74792">
        <ele>106.80000305176</ele>
        <time>2019-08-08T13:08:04.000Z</time>
      </trkpt>
      <trkpt lat="49.63977" lon="-1.74858">
        <ele>108.19999694824</ele>
        <time>2019-08-08T13:08:19.000Z</time>
      </trkpt>
      <trkpt lat="49.63959" lon="-1.74912">
        <ele>109.59999847412</ele>
        <time>2019-08-08T13:08:31.000Z</time>
      </trkpt>
      <trkpt lat="49.63956" lon="-1.74921">
        <ele>109.80000305176</ele>
        <time>2019-08-08T13:08:33.000Z</time>
      </trkpt>
      <trkpt lat="49.63954" lon="-1.74925">
        <ele>109.80000305176</ele>
        <time>2019-08-08T13:08:34.000Z</time>
      </trkpt>
      <trkpt lat="49.63929" lon="-1.74984">
        <ele>114.19999694824</ele>
        <time>2019-08-08T13:08:49.000Z</time>
      </trkpt>
      <trkpt lat="49.63917" lon="-1.75012">
        <ele>115.40000152588</ele>
        <time>2019-08-08T13:08:56.000Z</time>
      </trkpt>
      <trkpt lat="49.63914" lon="-1.75021">
        <ele>115.59999847412</ele>
        <time>2019-08-08T13:08:58.000Z</time>
      </trkpt>
      <trkpt lat="49.63951" lon="-1.75056">
        <ele>113.80000305176</ele>
        <time>2019-08-08T13:09:11.000Z</time>
      </trkpt>
      <trkpt lat="49.63997" lon="-1.75091">
        <ele>117.19999694824</ele>
        <time>2019-08-08T13:09:20.000Z</time>
      </trkpt>
      <trkpt lat="49.64037" lon="-1.75115">
        <ele>119.59999847412</ele>
        <time>2019-08-08T13:09:26.000Z</time>
      </trkpt>
      <trkpt lat="49.64083" lon="-1.75128">
        <ele>119</ele>
        <time>2019-08-08T13:09:34.000Z</time>
      </trkpt>
      <trkpt lat="49.6412" lon="-1.75144">
        <ele>118</ele>
        <time>2019-08-08T13:09:43.000Z</time>
      </trkpt>
      <trkpt lat="49.64166" lon="-1.7515">
        <ele>119</ele>
        <time>2019-08-08T13:09:57.000Z</time>
      </trkpt>
      <trkpt lat="49.64212" lon="-1.75158">
        <ele>120.80000305176</ele>
        <time>2019-08-08T13:10:14.000Z</time>
      </trkpt>
      <trkpt lat="49.64253" lon="-1.75172">
        <ele>124.19999694824</ele>
        <time>2019-08-08T13:10:29.000Z</time>
      </trkpt>
      <trkpt lat="49.64267" lon="-1.75177">
        <ele>125.40000152588</ele>
        <time>2019-08-08T13:10:34.000Z</time>
      </trkpt>
      <trkpt lat="49.64312" lon="-1.75193">
        <ele>128</ele>
        <time>2019-08-08T13:10:49.000Z</time>
      </trkpt>
      <trkpt lat="49.64357" lon="-1.75207">
        <ele>130.39999389648</ele>
        <time>2019-08-08T13:11:02.000Z</time>
      </trkpt>
      <trkpt lat="49.64371" lon="-1.75211">
        <ele>131</ele>
        <time>2019-08-08T13:11:06.000Z</time>
      </trkpt>
      <trkpt lat="49.64396" lon="-1.75216">
        <ele>131.19999694824</ele>
        <time>2019-08-08T13:11:12.000Z</time>
      </trkpt>
      <trkpt lat="49.64442" lon="-1.75231">
        <ele>132.60000610352</ele>
        <time>2019-08-08T13:11:23.000Z</time>
      </trkpt>
      <trkpt lat="49.64466" lon="-1.75252">
        <ele>132.80000305176</ele>
        <time>2019-08-08T13:11:39.000Z</time>
      </trkpt>
      <trkpt lat="49.64463" lon="-1.75306">
        <ele>132.80000305176</ele>
        <time>2019-08-08T13:11:52.000Z</time>
      </trkpt>
      <trkpt lat="49.64453" lon="-1.75375">
        <ele>133</ele>
        <time>2019-08-08T13:12:04.000Z</time>
      </trkpt>
      <trkpt lat="49.64446" lon="-1.75445">
        <ele>134.80000305176</ele>
        <time>2019-08-08T13:12:16.000Z</time>
      </trkpt>
      <trkpt lat="49.64437" lon="-1.75517">
        <ele>136.80000305176</ele>
        <time>2019-08-08T13:12:29.000Z</time>
      </trkpt>
      <trkpt lat="49.64426" lon="-1.75586">
        <ele>137.19999694824</ele>
        <time>2019-08-08T13:12:42.000Z</time>
      </trkpt>
      <trkpt lat="49.64415" lon="-1.75655">
        <ele>139</ele>
        <time>2019-08-08T13:12:55.000Z</time>
      </trkpt>
      <trkpt lat="49.64406" lon="-1.75726">
        <ele>142</ele>
        <time>2019-08-08T13:13:09.000Z</time>
      </trkpt>
      <trkpt lat="49.64406" lon="-1.75755">
        <ele>143.39999389648</ele>
        <time>2019-08-08T13:13:15.000Z</time>
      </trkpt>
      <trkpt lat="49.64414" lon="-1.75824">
        <ele>146.80000305176</ele>
        <time>2019-08-08T13:13:29.000Z</time>
      </trkpt>
      <trkpt lat="49.64423" lon="-1.75893">
        <ele>145.80000305176</ele>
        <time>2019-08-08T13:13:40.000Z</time>
      </trkpt>
      <trkpt lat="49.64426" lon="-1.7592">
        <ele>145.39999389648</ele>
        <time>2019-08-08T13:13:44.000Z</time>
      </trkpt>
      <trkpt lat="49.64436" lon="-1.75986">
        <ele>145.19999694824</ele>
        <time>2019-08-08T13:13:54.000Z</time>
      </trkpt>
      <trkpt lat="49.64446" lon="-1.76056">
        <ele>145.80000305176</ele>
        <time>2019-08-08T13:14:05.000Z</time>
      </trkpt>
      <trkpt lat="49.64457" lon="-1.7613">
        <ele>146.80000305176</ele>
        <time>2019-08-08T13:14:16.000Z</time>
      </trkpt>
      <trkpt lat="49.64472" lon="-1.76201">
        <ele>147.39999389648</ele>
        <time>2019-08-08T13:14:27.000Z</time>
      </trkpt>
      <trkpt lat="49.64491" lon="-1.76269">
        <ele>148.39999389648</ele>
        <time>2019-08-08T13:14:38.000Z</time>
      </trkpt>
      <trkpt lat="49.64508" lon="-1.76334">
        <ele>148.60000610352</ele>
        <time>2019-08-08T13:14:48.000Z</time>
      </trkpt>
      <trkpt lat="49.64526" lon="-1.76403">
        <ele>147.60000610352</ele>
        <time>2019-08-08T13:14:58.000Z</time>
      </trkpt>
      <trkpt lat="49.64541" lon="-1.76453">
        <ele>146.80000305176</ele>
        <time>2019-08-08T13:15:05.000Z</time>
      </trkpt>
      <trkpt lat="49.64553" lon="-1.765">
        <ele>146.39999389648</ele>
        <time>2019-08-08T13:15:11.000Z</time>
      </trkpt>
      <trkpt lat="49.64556" lon="-1.76543">
        <ele>146.39999389648</ele>
        <time>2019-08-08T13:15:16.000Z</time>
      </trkpt>
      <trkpt lat="49.64557" lon="-1.76569">
        <ele>146.60000610352</ele>
        <time>2019-08-08T13:15:19.000Z</time>
      </trkpt>
      <trkpt lat="49.64558" lon="-1.76626">
        <ele>147.80000305176</ele>
        <time>2019-08-08T13:15:26.000Z</time>
      </trkpt>
      <trkpt lat="49.64559" lon="-1.76699">
        <ele>148.60000610352</ele>
        <time>2019-08-08T13:15:35.000Z</time>
      </trkpt>
      <trkpt lat="49.64561" lon="-1.76773">
        <ele>149.39999389648</ele>
        <time>2019-08-08T13:15:45.000Z</time>
      </trkpt>
      <trkpt lat="49.64563" lon="-1.76845">
        <ele>149.39999389648</ele>
        <time>2019-08-08T13:15:55.000Z</time>
      </trkpt>
      <trkpt lat="49.64564" lon="-1.7692">
        <ele>149</ele>
        <time>2019-08-08T13:16:06.000Z</time>
      </trkpt>
      <trkpt lat="49.64564" lon="-1.76943">
        <ele>149</ele>
        <time>2019-08-08T13:16:09.000Z</time>
      </trkpt>
      <trkpt lat="49.64565" lon="-1.77016">
        <ele>149</ele>
        <time>2019-08-08T13:16:19.000Z</time>
      </trkpt>
      <trkpt lat="49.64567" lon="-1.7706">
        <ele>149.19999694824</ele>
        <time>2019-08-08T13:16:25.000Z</time>
      </trkpt>
      <trkpt lat="49.64568" lon="-1.77083">
        <ele>149.19999694824</ele>
        <time>2019-08-08T13:16:28.000Z</time>
      </trkpt>
      <trkpt lat="49.64566" lon="-1.77097">
        <ele>149.39999389648</ele>
        <time>2019-08-08T13:16:30.000Z</time>
      </trkpt>
      <trkpt lat="49.64563" lon="-1.77112">
        <ele>149.39999389648</ele>
        <time>2019-08-08T13:16:32.000Z</time>
      </trkpt>
      <trkpt lat="49.64562" lon="-1.77127">
        <ele>149.60000610352</ele>
        <time>2019-08-08T13:16:34.000Z</time>
      </trkpt>
      <trkpt lat="49.64581" lon="-1.77193">
        <ele>151.60000610352</ele>
        <time>2019-08-08T13:16:50.000Z</time>
      </trkpt>
      <trkpt lat="49.646" lon="-1.77259">
        <ele>152</ele>
        <time>2019-08-08T13:17:10.000Z</time>
      </trkpt>
      <trkpt lat="49.64616" lon="-1.77325">
        <ele>153</ele>
        <time>2019-08-08T13:17:25.000Z</time>
      </trkpt>
      <trkpt lat="49.64628" lon="-1.77362">
        <ele>153.39999389648</ele>
        <time>2019-08-08T13:17:33.000Z</time>
      </trkpt>
      <trkpt lat="49.64657" lon="-1.77414">
        <ele>152.60000610352</ele>
        <time>2019-08-08T13:17:45.000Z</time>
      </trkpt>
      <trkpt lat="49.64682" lon="-1.77478">
        <ele>150.19999694824</ele>
        <time>2019-08-08T13:17:54.000Z</time>
      </trkpt>
      <trkpt lat="49.64692" lon="-1.77518">
        <ele>148.39999389648</ele>
        <time>2019-08-08T13:17:58.000Z</time>
      </trkpt>
      <trkpt lat="49.64696" lon="-1.77527">
        <ele>147.80000305176</ele>
        <time>2019-08-08T13:17:59.000Z</time>
      </trkpt>
      <trkpt lat="49.64702" lon="-1.77535">
        <ele>147.39999389648</ele>
        <time>2019-08-08T13:18:00.000Z</time>
      </trkpt>
      <trkpt lat="49.64709" lon="-1.77542">
        <ele>147</ele>
        <time>2019-08-08T13:18:01.000Z</time>
      </trkpt>
      <trkpt lat="49.64716" lon="-1.77548">
        <ele>146.60000610352</ele>
        <time>2019-08-08T13:18:02.000Z</time>
      </trkpt>
      <trkpt lat="49.64738" lon="-1.77566">
        <ele>146.19999694824</ele>
        <time>2019-08-08T13:18:05.000Z</time>
      </trkpt>
      <trkpt lat="49.64745" lon="-1.77574">
        <ele>146</ele>
        <time>2019-08-08T13:18:06.000Z</time>
      </trkpt>
      <trkpt lat="49.64751" lon="-1.77583">
        <ele>145.80000305176</ele>
        <time>2019-08-08T13:18:07.000Z</time>
      </trkpt>
      <trkpt lat="49.64755" lon="-1.77594">
        <ele>145.39999389648</ele>
        <time>2019-08-08T13:18:08.000Z</time>
      </trkpt>
      <trkpt lat="49.64756" lon="-1.77608">
        <ele>145</ele>
        <time>2019-08-08T13:18:09.000Z</time>
      </trkpt>
      <trkpt lat="49.64756" lon="-1.77622">
        <ele>144.60000610352</ele>
        <time>2019-08-08T13:18:10.000Z</time>
      </trkpt>
      <trkpt lat="49.6475" lon="-1.77678">
        <ele>143.19999694824</ele>
        <time>2019-08-08T13:18:14.000Z</time>
      </trkpt>
      <trkpt lat="49.64748" lon="-1.77708">
        <ele>142.60000610352</ele>
        <time>2019-08-08T13:18:16.000Z</time>
      </trkpt>
      <trkpt lat="49.64749" lon="-1.77722">
        <ele>142.19999694824</ele>
        <time>2019-08-08T13:18:17.000Z</time>
      </trkpt>
      <trkpt lat="49.64751" lon="-1.77736">
        <ele>141.80000305176</ele>
        <time>2019-08-08T13:18:18.000Z</time>
      </trkpt>
      <trkpt lat="49.64757" lon="-1.77762">
        <ele>142</ele>
        <time>2019-08-08T13:18:20.000Z</time>
      </trkpt>
      <trkpt lat="49.64781" lon="-1.77814">
        <ele>140.39999389648</ele>
        <time>2019-08-08T13:18:25.000Z</time>
      </trkpt>
      <trkpt lat="49.64786" lon="-1.77823">
        <ele>140</ele>
        <time>2019-08-08T13:18:26.000Z</time>
      </trkpt>
      <trkpt lat="49.64791" lon="-1.77832">
        <ele>140.19999694824</ele>
        <time>2019-08-08T13:18:27.000Z</time>
      </trkpt>
      <trkpt lat="49.64796" lon="-1.7784">
        <ele>140.19999694824</ele>
        <time>2019-08-08T13:18:28.000Z</time>
      </trkpt>
      <trkpt lat="49.64802" lon="-1.77847">
        <ele>140.19999694824</ele>
        <time>2019-08-08T13:18:29.000Z</time>
      </trkpt>
      <trkpt lat="49.64807" lon="-1.77855">
        <ele>140.19999694824</ele>
        <time>2019-08-08T13:18:30.000Z</time>
      </trkpt>
      <trkpt lat="49.64823" lon="-1.77874">
        <ele>140.19999694824</ele>
        <time>2019-08-08T13:18:33.000Z</time>
      </trkpt>
      <trkpt lat="49.64841" lon="-1.77899">
        <ele>138.80000305176</ele>
        <time>2019-08-08T13:18:37.000Z</time>
      </trkpt>
      <trkpt lat="49.64845" lon="-1.77904">
        <ele>138.39999389648</ele>
        <time>2019-08-08T13:18:38.000Z</time>
      </trkpt>
      <trkpt lat="49.64852" lon="-1.77913">
        <ele>138</ele>
        <time>2019-08-08T13:18:40.000Z</time>
      </trkpt>
      <trkpt lat="49.64855" lon="-1.77917">
        <ele>137.60000610352</ele>
        <time>2019-08-08T13:18:41.000Z</time>
      </trkpt>
      <trkpt lat="49.64858" lon="-1.7792">
        <ele>137.39999389648</ele>
        <time>2019-08-08T13:18:42.000Z</time>
      </trkpt>
      <trkpt lat="49.6486" lon="-1.77924">
        <ele>137.39999389648</ele>
        <time>2019-08-08T13:18:43.000Z</time>
      </trkpt>
      <trkpt lat="49.64864" lon="-1.77929">
        <ele>137</ele>
        <time>2019-08-08T13:18:45.000Z</time>
      </trkpt>
      <trkpt lat="49.64878" lon="-1.77931">
        <ele>136</ele>
        <time>2019-08-08T13:18:49.000Z</time>
      </trkpt>
      <trkpt lat="49.64895" lon="-1.77921">
        <ele>135</ele>
        <time>2019-08-08T13:18:53.000Z</time>
      </trkpt>
      <trkpt lat="49.64901" lon="-1.77919">
        <ele>134.60000610352</ele>
        <time>2019-08-08T13:18:54.000Z</time>
      </trkpt>
      <trkpt lat="49.64906" lon="-1.77918">
        <ele>134.19999694824</ele>
        <time>2019-08-08T13:18:55.000Z</time>
      </trkpt>
      <trkpt lat="49.64917" lon="-1.77918">
        <ele>133.39999389648</ele>
        <time>2019-08-08T13:18:57.000Z</time>
      </trkpt>
      <trkpt lat="49.64922" lon="-1.77918">
        <ele>133</ele>
        <time>2019-08-08T13:18:58.000Z</time>
      </trkpt>
      <trkpt lat="49.64949" lon="-1.77924">
        <ele>132</ele>
        <time>2019-08-08T13:19:03.000Z</time>
      </trkpt>
      <trkpt lat="49.64959" lon="-1.77931">
        <ele>132.19999694824</ele>
        <time>2019-08-08T13:19:05.000Z</time>
      </trkpt>
      <trkpt lat="49.65" lon="-1.77973">
        <ele>132.80000305176</ele>
        <time>2019-08-08T13:19:14.000Z</time>
      </trkpt>
      <trkpt lat="49.65005" lon="-1.77977">
        <ele>132.60000610352</ele>
        <time>2019-08-08T13:19:15.000Z</time>
      </trkpt>
      <trkpt lat="49.65014" lon="-1.77982">
        <ele>132</ele>
        <time>2019-08-08T13:19:17.000Z</time>
      </trkpt>
      <trkpt lat="49.65023" lon="-1.77983">
        <ele>131.60000610352</ele>
        <time>2019-08-08T13:19:19.000Z</time>
      </trkpt>
      <trkpt lat="49.65071" lon="-1.77982">
        <ele>131.60000610352</ele>
        <time>2019-08-08T13:19:32.000Z</time>
      </trkpt>
      <trkpt lat="49.65117" lon="-1.77978">
        <ele>132.39999389648</ele>
        <time>2019-08-08T13:19:41.000Z</time>
      </trkpt>
      <trkpt lat="49.65161" lon="-1.77958">
        <ele>131.39999389648</ele>
        <time>2019-08-08T13:19:48.000Z</time>
      </trkpt>
      <trkpt lat="49.65206" lon="-1.77925">
        <ele>129.39999389648</ele>
        <time>2019-08-08T13:19:55.000Z</time>
      </trkpt>
      <trkpt lat="49.65244" lon="-1.77902">
        <ele>128</ele>
        <time>2019-08-08T13:20:02.000Z</time>
      </trkpt>
      <trkpt lat="49.65259" lon="-1.77902">
        <ele>128</ele>
        <time>2019-08-08T13:20:05.000Z</time>
      </trkpt>
      <trkpt lat="49.65292" lon="-1.77931">
        <ele>129.80000305176</ele>
        <time>2019-08-08T13:20:19.000Z</time>
      </trkpt>
      <trkpt lat="49.65328" lon="-1.77976">
        <ele>133.60000610352</ele>
        <time>2019-08-08T13:20:34.000Z</time>
      </trkpt>
      <trkpt lat="49.65358" lon="-1.78016">
        <ele>135.39999389648</ele>
        <time>2019-08-08T13:20:48.000Z</time>
      </trkpt>
      <trkpt lat="49.65368" lon="-1.78026">
        <ele>135.39999389648</ele>
        <time>2019-08-08T13:20:52.000Z</time>
      </trkpt>
      <trkpt lat="49.65379" lon="-1.78032">
        <ele>136</ele>
        <time>2019-08-08T13:20:56.000Z</time>
      </trkpt>
      <trkpt lat="49.65405" lon="-1.78031">
        <ele>137.19999694824</ele>
        <time>2019-08-08T13:21:04.000Z</time>
      </trkpt>
      <trkpt lat="49.65421" lon="-1.78029">
        <ele>138</ele>
        <time>2019-08-08T13:21:09.000Z</time>
      </trkpt>
      <trkpt lat="49.65453" lon="-1.78032">
        <ele>140</ele>
        <time>2019-08-08T13:21:20.000Z</time>
      </trkpt>
      <trkpt lat="49.65497" lon="-1.78055">
        <ele>142.19999694824</ele>
        <time>2019-08-08T13:21:34.000Z</time>
      </trkpt>
      <trkpt lat="49.65506" lon="-1.78061">
        <ele>142.60000610352</ele>
        <time>2019-08-08T13:21:37.000Z</time>
      </trkpt>
      <trkpt lat="49.65538" lon="-1.78081">
        <ele>144.39999389648</ele>
        <time>2019-08-08T13:21:48.000Z</time>
      </trkpt>
      <trkpt lat="49.65536" lon="-1.78152">
        <ele>146</ele>
        <time>2019-08-08T13:22:01.000Z</time>
      </trkpt>
      <trkpt lat="49.65535" lon="-1.78158">
        <ele>146</ele>
        <time>2019-08-08T13:22:02.000Z</time>
      </trkpt>
      <trkpt lat="49.65527" lon="-1.78229">
        <ele>147.19999694824</ele>
        <time>2019-08-08T13:22:13.000Z</time>
      </trkpt>
      <trkpt lat="49.65524" lon="-1.78261">
        <ele>146.80000305176</ele>
        <time>2019-08-08T13:22:18.000Z</time>
      </trkpt>
      <trkpt lat="49.65525" lon="-1.78304">
        <ele>145.80000305176</ele>
        <time>2019-08-08T13:22:24.000Z</time>
      </trkpt>
      <trkpt lat="49.65528" lon="-1.78376">
        <ele>144.80000305176</ele>
        <time>2019-08-08T13:22:33.000Z</time>
      </trkpt>
      <trkpt lat="49.65538" lon="-1.7845">
        <ele>146.19999694824</ele>
        <time>2019-08-08T13:22:42.000Z</time>
      </trkpt>
      <trkpt lat="49.65545" lon="-1.78507">
        <ele>147.39999389648</ele>
        <time>2019-08-08T13:22:50.000Z</time>
      </trkpt>
      <trkpt lat="49.65545" lon="-1.78581">
        <ele>147.39999389648</ele>
        <time>2019-08-08T13:23:02.000Z</time>
      </trkpt>
      <trkpt lat="49.65542" lon="-1.78593">
        <ele>147.19999694824</ele>
        <time>2019-08-08T13:23:04.000Z</time>
      </trkpt>
      <trkpt lat="49.65511" lon="-1.78644">
        <ele>147</ele>
        <time>2019-08-08T13:23:14.000Z</time>
      </trkpt>
      <trkpt lat="49.65508" lon="-1.78649">
        <ele>147</ele>
        <time>2019-08-08T13:23:15.000Z</time>
      </trkpt>
      <trkpt lat="49.65494" lon="-1.78678">
        <ele>146.80000305176</ele>
        <time>2019-08-08T13:23:20.000Z</time>
      </trkpt>
      <trkpt lat="49.65474" lon="-1.78741">
        <ele>146.60000610352</ele>
        <time>2019-08-08T13:23:30.000Z</time>
      </trkpt>
      <trkpt lat="49.65469" lon="-1.78752">
        <ele>146.60000610352</ele>
        <time>2019-08-08T13:23:32.000Z</time>
      </trkpt>
      <trkpt lat="49.65466" lon="-1.78764">
        <ele>146.60000610352</ele>
        <time>2019-08-08T13:23:34.000Z</time>
      </trkpt>
      <trkpt lat="49.65463" lon="-1.78777">
        <ele>146.80000305176</ele>
        <time>2019-08-08T13:23:36.000Z</time>
      </trkpt>
      <trkpt lat="49.65455" lon="-1.78851">
        <ele>148.19999694824</ele>
        <time>2019-08-08T13:23:46.000Z</time>
      </trkpt>
      <trkpt lat="49.65439" lon="-1.7892">
        <ele>150.60000610352</ele>
        <time>2019-08-08T13:23:56.000Z</time>
      </trkpt>
      <trkpt lat="49.65423" lon="-1.78985">
        <ele>152.60000610352</ele>
        <time>2019-08-08T13:24:06.000Z</time>
      </trkpt>
      <trkpt lat="49.65411" lon="-1.79055">
        <ele>154.80000305176</ele>
        <time>2019-08-08T13:24:18.000Z</time>
      </trkpt>
      <trkpt lat="49.65384" lon="-1.79112">
        <ele>156.19999694824</ele>
        <time>2019-08-08T13:24:30.000Z</time>
      </trkpt>
      <trkpt lat="49.65349" lon="-1.7916">
        <ele>157</ele>
        <time>2019-08-08T13:24:42.000Z</time>
      </trkpt>
      <trkpt lat="49.65316" lon="-1.79209">
        <ele>157</ele>
        <time>2019-08-08T13:24:54.000Z</time>
      </trkpt>
      <trkpt lat="49.65279" lon="-1.79258">
        <ele>157</ele>
        <time>2019-08-08T13:25:07.000Z</time>
      </trkpt>
      <trkpt lat="49.6524" lon="-1.79302">
        <ele>156.39999389648</ele>
        <time>2019-08-08T13:25:19.000Z</time>
      </trkpt>
      <trkpt lat="49.65199" lon="-1.79339">
        <ele>155.60000610352</ele>
        <time>2019-08-08T13:25:29.000Z</time>
      </trkpt>
      <trkpt lat="49.65165" lon="-1.7937">
        <ele>154</ele>
        <time>2019-08-08T13:25:38.000Z</time>
      </trkpt>
      <trkpt lat="49.65159" lon="-1.79382">
        <ele>153.60000610352</ele>
        <time>2019-08-08T13:25:40.000Z</time>
      </trkpt>
      <trkpt lat="49.65155" lon="-1.79397">
        <ele>153.39999389648</ele>
        <time>2019-08-08T13:25:42.000Z</time>
      </trkpt>
      <trkpt lat="49.65156" lon="-1.79414">
        <ele>153.39999389648</ele>
        <time>2019-08-08T13:25:44.000Z</time>
      </trkpt>
      <trkpt lat="49.6516" lon="-1.79429">
        <ele>153.39999389648</ele>
        <time>2019-08-08T13:25:46.000Z</time>
      </trkpt>
      <trkpt lat="49.65185" lon="-1.79492">
        <ele>155.19999694824</ele>
        <time>2019-08-08T13:25:55.000Z</time>
      </trkpt>
      <trkpt lat="49.65208" lon="-1.79553">
        <ele>157</ele>
        <time>2019-08-08T13:26:06.000Z</time>
      </trkpt>
      <trkpt lat="49.65232" lon="-1.79613">
        <ele>158.39999389648</ele>
        <time>2019-08-08T13:26:17.000Z</time>
      </trkpt>
      <trkpt lat="49.65259" lon="-1.79676">
        <ele>158.80000305176</ele>
        <time>2019-08-08T13:26:28.000Z</time>
      </trkpt>
      <trkpt lat="49.6527" lon="-1.79704">
        <ele>159.39999389648</ele>
        <time>2019-08-08T13:26:33.000Z</time>
      </trkpt>
      <trkpt lat="49.65295" lon="-1.79767">
        <ele>160.19999694824</ele>
        <time>2019-08-08T13:26:44.000Z</time>
      </trkpt>
      <trkpt lat="49.65319" lon="-1.79831">
        <ele>162.19999694824</ele>
        <time>2019-08-08T13:26:55.000Z</time>
      </trkpt>
      <trkpt lat="49.65343" lon="-1.79896">
        <ele>164.39999389648</ele>
        <time>2019-08-08T13:27:06.000Z</time>
      </trkpt>
      <trkpt lat="49.65366" lon="-1.79957">
        <ele>165</ele>
        <time>2019-08-08T13:27:16.000Z</time>
      </trkpt>
      <trkpt lat="49.65391" lon="-1.80022">
        <ele>164.80000305176</ele>
        <time>2019-08-08T13:27:27.000Z</time>
      </trkpt>
      <trkpt lat="49.65412" lon="-1.8008">
        <ele>164.39999389648</ele>
        <time>2019-08-08T13:27:36.000Z</time>
      </trkpt>
      <trkpt lat="49.65431" lon="-1.80137">
        <ele>164.19999694824</ele>
        <time>2019-08-08T13:27:46.000Z</time>
      </trkpt>
      <trkpt lat="49.65433" lon="-1.80149">
        <ele>164.19999694824</ele>
        <time>2019-08-08T13:27:48.000Z</time>
      </trkpt>
      <trkpt lat="49.65433" lon="-1.80162">
        <ele>164.19999694824</ele>
        <time>2019-08-08T13:27:50.000Z</time>
      </trkpt>
      <trkpt lat="49.65428" lon="-1.80187">
        <ele>164.39999389648</ele>
        <time>2019-08-08T13:27:54.000Z</time>
      </trkpt>
      <trkpt lat="49.6542" lon="-1.80202">
        <ele>164.60000610352</ele>
        <time>2019-08-08T13:27:57.000Z</time>
      </trkpt>
      <trkpt lat="49.65377" lon="-1.8024">
        <ele>165</ele>
        <time>2019-08-08T13:28:07.000Z</time>
      </trkpt>
      <trkpt lat="49.65334" lon="-1.8027">
        <ele>164.19999694824</ele>
        <time>2019-08-08T13:28:17.000Z</time>
      </trkpt>
      <trkpt lat="49.65312" lon="-1.80283">
        <ele>164</ele>
        <time>2019-08-08T13:28:23.000Z</time>
      </trkpt>
      <trkpt lat="49.65309" lon="-1.80284">
        <ele>163.80000305176</ele>
        <time>2019-08-08T13:28:24.000Z</time>
      </trkpt>
      <trkpt lat="49.65306" lon="-1.80286">
        <ele>163.80000305176</ele>
        <time>2019-08-08T13:28:25.000Z</time>
      </trkpt>
      <trkpt lat="49.653" lon="-1.80288">
        <ele>163.80000305176</ele>
        <time>2019-08-08T13:28:26.000Z</time>
      </trkpt>
      <trkpt lat="49.653" lon="-1.80288">
        <ele>163.80000305176</ele>
        <time>2019-08-08T13:28:27.000Z</time>
      </trkpt>
      <trkpt lat="49.65293" lon="-1.8029">
        <ele>163.80000305176</ele>
        <time>2019-08-08T13:28:29.000Z</time>
      </trkpt>
      <trkpt lat="49.6527" lon="-1.80302">
        <ele>163.39999389648</ele>
        <time>2019-08-08T13:28:37.000Z</time>
      </trkpt>
      <trkpt lat="49.65271" lon="-1.80311">
        <ele>163.19999694824</ele>
        <time>2019-08-08T13:28:39.000Z</time>
      </trkpt>
      <trkpt lat="49.65276" lon="-1.80317">
        <ele>163.19999694824</ele>
        <time>2019-08-08T13:28:41.000Z</time>
      </trkpt>
      <trkpt lat="49.65287" lon="-1.80317">
        <ele>163.19999694824</ele>
        <time>2019-08-08T13:28:44.000Z</time>
      </trkpt>
      <trkpt lat="49.65295" lon="-1.80315">
        <ele>163.19999694824</ele>
        <time>2019-08-08T13:28:46.000Z</time>
      </trkpt>
      <trkpt lat="49.65316" lon="-1.80311">
        <ele>163.80000305176</ele>
        <time>2019-08-08T13:28:51.000Z</time>
      </trkpt>
      <trkpt lat="49.65325" lon="-1.80313">
        <ele>164</ele>
        <time>2019-08-08T13:28:53.000Z</time>
      </trkpt>
      <trkpt lat="49.65339" lon="-1.80319">
        <ele>164.19999694824</ele>
        <time>2019-08-08T13:28:56.000Z</time>
      </trkpt>
      <trkpt lat="49.65348" lon="-1.80326">
        <ele>164.39999389648</ele>
        <time>2019-08-08T13:28:58.000Z</time>
      </trkpt>
      <trkpt lat="49.65356" lon="-1.80336">
        <ele>164.39999389648</ele>
        <time>2019-08-08T13:29:00.000Z</time>
      </trkpt>
      <trkpt lat="49.65386" lon="-1.80389">
        <ele>162.39999389648</ele>
        <time>2019-08-08T13:29:10.000Z</time>
      </trkpt>
      <trkpt lat="49.65412" lon="-1.80451">
        <ele>161</ele>
        <time>2019-08-08T13:29:20.000Z</time>
      </trkpt>
      <trkpt lat="49.65435" lon="-1.80517">
        <ele>160.60000610352</ele>
        <time>2019-08-08T13:29:30.000Z</time>
      </trkpt>
      <trkpt lat="49.65449" lon="-1.80557">
        <ele>160.19999694824</ele>
        <time>2019-08-08T13:29:36.000Z</time>
      </trkpt>
      <trkpt lat="49.65468" lon="-1.80623">
        <ele>158.39999389648</ele>
        <time>2019-08-08T13:29:44.000Z</time>
      </trkpt>
      <trkpt lat="49.65479" lon="-1.80663">
        <ele>157.39999389648</ele>
        <time>2019-08-08T13:29:48.000Z</time>
      </trkpt>
      <trkpt lat="49.65502" lon="-1.80736">
        <ele>156.39999389648</ele>
        <time>2019-08-08T13:29:55.000Z</time>
      </trkpt>
      <trkpt lat="49.65511" lon="-1.80762">
        <ele>156.19999694824</ele>
        <time>2019-08-08T13:29:58.000Z</time>
      </trkpt>
      <trkpt lat="49.65513" lon="-1.8077">
        <ele>156.19999694824</ele>
        <time>2019-08-08T13:29:59.000Z</time>
      </trkpt>
      <trkpt lat="49.65518" lon="-1.80784">
        <ele>156</ele>
        <time>2019-08-08T13:30:01.000Z</time>
      </trkpt>
      <trkpt lat="49.65537" lon="-1.8084">
        <ele>156</ele>
        <time>2019-08-08T13:30:10.000Z</time>
      </trkpt>
      <trkpt lat="49.65542" lon="-1.80859">
        <ele>156.19999694824</ele>
        <time>2019-08-08T13:30:13.000Z</time>
      </trkpt>
      <trkpt lat="49.65543" lon="-1.80866">
        <ele>156.19999694824</ele>
        <time>2019-08-08T13:30:14.000Z</time>
      </trkpt>
      <trkpt lat="49.65547" lon="-1.80886">
        <ele>156.39999389648</ele>
        <time>2019-08-08T13:30:17.000Z</time>
      </trkpt>
      <trkpt lat="49.6555" lon="-1.80901">
        <ele>156.39999389648</ele>
        <time>2019-08-08T13:30:19.000Z</time>
      </trkpt>
      <trkpt lat="49.65551" lon="-1.80908">
        <ele>156.39999389648</ele>
        <time>2019-08-08T13:30:20.000Z</time>
      </trkpt>
      <trkpt lat="49.65552" lon="-1.80916">
        <ele>156.39999389648</ele>
        <time>2019-08-08T13:30:21.000Z</time>
      </trkpt>
      <trkpt lat="49.65557" lon="-1.80938">
        <ele>156.39999389648</ele>
        <time>2019-08-08T13:30:24.000Z</time>
      </trkpt>
      <trkpt lat="49.65564" lon="-1.80951">
        <ele>156.60000610352</ele>
        <time>2019-08-08T13:30:26.000Z</time>
      </trkpt>
      <trkpt lat="49.65568" lon="-1.80953">
        <ele>156.80000305176</ele>
        <time>2019-08-08T13:30:28.000Z</time>
      </trkpt>
      <trkpt lat="49.65572" lon="-1.80953">
        <ele>156.80000305176</ele>
        <time>2019-08-08T13:30:29.000Z</time>
      </trkpt>
      <trkpt lat="49.65576" lon="-1.80951">
        <ele>157</ele>
        <time>2019-08-08T13:30:30.000Z</time>
      </trkpt>
      <trkpt lat="49.65588" lon="-1.80944">
        <ele>157.19999694824</ele>
        <time>2019-08-08T13:30:33.000Z</time>
      </trkpt>
      <trkpt lat="49.65598" lon="-1.80938">
        <ele>157.39999389648</ele>
        <time>2019-08-08T13:30:36.000Z</time>
      </trkpt>
      <trkpt lat="49.65601" lon="-1.80936">
        <ele>157.60000610352</ele>
        <time>2019-08-08T13:30:37.000Z</time>
      </trkpt>
      <trkpt lat="49.65603" lon="-1.80935">
        <ele>157.60000610352</ele>
        <time>2019-08-08T13:30:38.000Z</time>
      </trkpt>
      <trkpt lat="49.65606" lon="-1.80935">
        <ele>157.60000610352</ele>
        <time>2019-08-08T13:30:39.000Z</time>
      </trkpt>
      <trkpt lat="49.65608" lon="-1.80935">
        <ele>157.80000305176</ele>
        <time>2019-08-08T13:30:40.000Z</time>
      </trkpt>
      <trkpt lat="49.65614" lon="-1.80939">
        <ele>157.80000305176</ele>
        <time>2019-08-08T13:30:43.000Z</time>
      </trkpt>
      <trkpt lat="49.65619" lon="-1.80945">
        <ele>158</ele>
        <time>2019-08-08T13:30:46.000Z</time>
      </trkpt>
      <trkpt lat="49.65623" lon="-1.80951">
        <ele>158.19999694824</ele>
        <time>2019-08-08T13:30:48.000Z</time>
      </trkpt>
      <trkpt lat="49.65625" lon="-1.80954">
        <ele>158.19999694824</ele>
        <time>2019-08-08T13:30:49.000Z</time>
      </trkpt>
      <trkpt lat="49.6563" lon="-1.80964">
        <ele>158.39999389648</ele>
        <time>2019-08-08T13:30:52.000Z</time>
      </trkpt>
      <trkpt lat="49.65649" lon="-1.81003">
        <ele>159.39999389648</ele>
        <time>2019-08-08T13:31:04.000Z</time>
      </trkpt>
      <trkpt lat="49.65658" lon="-1.81021">
        <ele>160.19999694824</ele>
        <time>2019-08-08T13:31:09.000Z</time>
      </trkpt>
      <trkpt lat="49.65663" lon="-1.8103">
        <ele>160.60000610352</ele>
        <time>2019-08-08T13:31:12.000Z</time>
      </trkpt>
      <trkpt lat="49.65671" lon="-1.81036">
        <ele>160.80000305176</ele>
        <time>2019-08-08T13:31:15.000Z</time>
      </trkpt>
      <trkpt lat="49.65693" lon="-1.81025">
        <ele>161.19999694824</ele>
        <time>2019-08-08T13:31:23.000Z</time>
      </trkpt>
      <trkpt lat="49.65722" lon="-1.81009">
        <ele>161.80000305176</ele>
        <time>2019-08-08T13:31:32.000Z</time>
      </trkpt>
      <trkpt lat="49.65763" lon="-1.80983">
        <ele>162.39999389648</ele>
        <time>2019-08-08T13:31:45.000Z</time>
      </trkpt>
      <trkpt lat="49.65783" lon="-1.80972">
        <ele>163</ele>
        <time>2019-08-08T13:31:52.000Z</time>
      </trkpt>
      <trkpt lat="49.65805" lon="-1.80958">
        <ele>163</ele>
        <time>2019-08-08T13:31:58.000Z</time>
      </trkpt>
      <trkpt lat="49.65823" lon="-1.80949">
        <ele>163</ele>
        <time>2019-08-08T13:32:02.000Z</time>
      </trkpt>
      <trkpt lat="49.65851" lon="-1.80935">
        <ele>162.80000305176</ele>
        <time>2019-08-08T13:32:08.000Z</time>
      </trkpt>
      <trkpt lat="49.65895" lon="-1.80914">
        <ele>162.19999694824</ele>
        <time>2019-08-08T13:32:17.000Z</time>
      </trkpt>
      <trkpt lat="49.65905" lon="-1.80909">
        <ele>162</ele>
        <time>2019-08-08T13:32:19.000Z</time>
      </trkpt>
      <trkpt lat="49.65953" lon="-1.80904">
        <ele>161</ele>
        <time>2019-08-08T13:32:28.000Z</time>
      </trkpt>
      <trkpt lat="49.65999" lon="-1.80903">
        <ele>160</ele>
        <time>2019-08-08T13:32:37.000Z</time>
      </trkpt>
      <trkpt lat="49.66015" lon="-1.80901">
        <ele>159.60000610352</ele>
        <time>2019-08-08T13:32:40.000Z</time>
      </trkpt>
      <trkpt lat="49.6602" lon="-1.80901">
        <ele>159.39999389648</ele>
        <time>2019-08-08T13:32:41.000Z</time>
      </trkpt>
      <trkpt lat="49.66036" lon="-1.809">
        <ele>159</ele>
        <time>2019-08-08T13:32:44.000Z</time>
      </trkpt>
      <trkpt lat="49.6606" lon="-1.80894">
        <ele>158.60000610352</ele>
        <time>2019-08-08T13:32:48.000Z</time>
      </trkpt>
      <trkpt lat="49.66071" lon="-1.80891">
        <ele>158.39999389648</ele>
        <time>2019-08-08T13:32:50.000Z</time>
      </trkpt>
      <trkpt lat="49.66087" lon="-1.80884">
        <ele>158</ele>
        <time>2019-08-08T13:32:53.000Z</time>
      </trkpt>
      <trkpt lat="49.66114" lon="-1.80873">
        <ele>157.60000610352</ele>
        <time>2019-08-08T13:32:58.000Z</time>
      </trkpt>
      <trkpt lat="49.66119" lon="-1.80872">
        <ele>157.39999389648</ele>
        <time>2019-08-08T13:32:59.000Z</time>
      </trkpt>
      <trkpt lat="49.66155" lon="-1.80863">
        <ele>156.60000610352</ele>
        <time>2019-08-08T13:33:07.000Z</time>
      </trkpt>
      <trkpt lat="49.66161" lon="-1.80868">
        <ele>156.39999389648</ele>
        <time>2019-08-08T13:33:09.000Z</time>
      </trkpt>
      <trkpt lat="49.66164" lon="-1.80873">
        <ele>156.39999389648</ele>
        <time>2019-08-08T13:33:11.000Z</time>
      </trkpt>
      <trkpt lat="49.66162" lon="-1.80882">
        <ele>156.39999389648</ele>
        <time>2019-08-08T13:33:17.000Z</time>
      </trkpt>
      <trkpt lat="49.6615" lon="-1.80923">
        <ele>156.39999389648</ele>
        <time>2019-08-08T13:33:28.000Z</time>
      </trkpt>
      <trkpt lat="49.66147" lon="-1.80932">
        <ele>156.39999389648</ele>
        <time>2019-08-08T13:33:30.000Z</time>
      </trkpt>
      <trkpt lat="49.66144" lon="-1.80941">
        <ele>156.19999694824</ele>
        <time>2019-08-08T13:33:32.000Z</time>
      </trkpt>
      <trkpt lat="49.66143" lon="-1.80945">
        <ele>156.19999694824</ele>
        <time>2019-08-08T13:33:33.000Z</time>
      </trkpt>
      <trkpt lat="49.66141" lon="-1.8095">
        <ele>156.19999694824</ele>
        <time>2019-08-08T13:33:34.000Z</time>
      </trkpt>
      <trkpt lat="49.6613" lon="-1.80963">
        <ele>156.19999694824</ele>
        <time>2019-08-08T13:33:38.000Z</time>
      </trkpt>
      <trkpt lat="49.66117" lon="-1.80982">
        <ele>156.19999694824</ele>
        <time>2019-08-08T13:33:43.000Z</time>
      </trkpt>
      <trkpt lat="49.66092" lon="-1.81045">
        <ele>156</ele>
        <time>2019-08-08T13:33:56.000Z</time>
      </trkpt>
      <trkpt lat="49.66069" lon="-1.81097">
        <ele>156</ele>
        <time>2019-08-08T13:34:06.000Z</time>
      </trkpt>
      <trkpt lat="49.66059" lon="-1.81121">
        <ele>155.80000305176</ele>
        <time>2019-08-08T13:34:10.000Z</time>
      </trkpt>
      <trkpt lat="49.66039" lon="-1.81185">
        <ele>156</ele>
        <time>2019-08-08T13:34:21.000Z</time>
      </trkpt>
      <trkpt lat="49.66027" lon="-1.81256">
        <ele>156.39999389648</ele>
        <time>2019-08-08T13:34:37.000Z</time>
      </trkpt>
      <trkpt lat="49.66004" lon="-1.81318">
        <ele>157.19999694824</ele>
        <time>2019-08-08T13:34:52.000Z</time>
      </trkpt>
      <trkpt lat="49.6598" lon="-1.81377">
        <ele>157.39999389648</ele>
        <time>2019-08-08T13:35:07.000Z</time>
      </trkpt>
      <trkpt lat="49.65955" lon="-1.81436">
        <ele>157.60000610352</ele>
        <time>2019-08-08T13:35:22.000Z</time>
      </trkpt>
      <trkpt lat="49.65931" lon="-1.81496">
        <ele>158.19999694824</ele>
        <time>2019-08-08T13:35:37.000Z</time>
      </trkpt>
      <trkpt lat="49.65905" lon="-1.81554">
        <ele>159</ele>
        <time>2019-08-08T13:35:55.000Z</time>
      </trkpt>
      <trkpt lat="49.65896" lon="-1.81571">
        <ele>159.39999389648</ele>
        <time>2019-08-08T13:36:05.000Z</time>
      </trkpt>
      <trkpt lat="49.65882" lon="-1.81572">
        <ele>160.19999694824</ele>
        <time>2019-08-08T13:36:12.000Z</time>
      </trkpt>
      <trkpt lat="49.65873" lon="-1.81572">
        <ele>160.80000305176</ele>
        <time>2019-08-08T13:36:16.000Z</time>
      </trkpt>
      <trkpt lat="49.65831" lon="-1.81596">
        <ele>161.80000305176</ele>
        <time>2019-08-08T13:36:34.000Z</time>
      </trkpt>
      <trkpt lat="49.65827" lon="-1.81615">
        <ele>162</ele>
        <time>2019-08-08T13:36:39.000Z</time>
      </trkpt>
      <trkpt lat="49.65819" lon="-1.81645">
        <ele>162.80000305176</ele>
        <time>2019-08-08T13:36:47.000Z</time>
      </trkpt>
      <trkpt lat="49.65821" lon="-1.81661">
        <ele>163</ele>
        <time>2019-08-08T13:36:51.000Z</time>
      </trkpt>
      <trkpt lat="49.65822" lon="-1.81665">
        <ele>163</ele>
        <time>2019-08-08T13:36:52.000Z</time>
      </trkpt>
      <trkpt lat="49.65824" lon="-1.8167">
        <ele>163</ele>
        <time>2019-08-08T13:36:53.000Z</time>
      </trkpt>
      <trkpt lat="49.65833" lon="-1.81699">
        <ele>163</ele>
        <time>2019-08-08T13:36:59.000Z</time>
      </trkpt>
      <trkpt lat="49.6585" lon="-1.81753">
        <ele>162.60000610352</ele>
        <time>2019-08-08T13:37:09.000Z</time>
      </trkpt>
      <trkpt lat="49.65857" lon="-1.81777">
        <ele>163</ele>
        <time>2019-08-08T13:37:13.000Z</time>
      </trkpt>
      <trkpt lat="49.65873" lon="-1.81832">
        <ele>163.60000610352</ele>
        <time>2019-08-08T13:37:21.000Z</time>
      </trkpt>
      <trkpt lat="49.65889" lon="-1.81882">
        <ele>162</ele>
        <time>2019-08-08T13:37:28.000Z</time>
      </trkpt>
      <trkpt lat="49.65891" lon="-1.81889">
        <ele>162</ele>
        <time>2019-08-08T13:37:29.000Z</time>
      </trkpt>
      <trkpt lat="49.65896" lon="-1.81903">
        <ele>161.80000305176</ele>
        <time>2019-08-08T13:37:31.000Z</time>
      </trkpt>
      <trkpt lat="49.65914" lon="-1.8196">
        <ele>161</ele>
        <time>2019-08-08T13:37:39.000Z</time>
      </trkpt>
      <trkpt lat="49.65918" lon="-1.81974">
        <ele>161</ele>
        <time>2019-08-08T13:37:41.000Z</time>
      </trkpt>
      <trkpt lat="49.65923" lon="-1.81988">
        <ele>161</ele>
        <time>2019-08-08T13:37:43.000Z</time>
      </trkpt>
      <trkpt lat="49.65925" lon="-1.81995">
        <ele>161</ele>
        <time>2019-08-08T13:37:44.000Z</time>
      </trkpt>
      <trkpt lat="49.65928" lon="-1.82002">
        <ele>160.80000305176</ele>
        <time>2019-08-08T13:37:45.000Z</time>
      </trkpt>
      <trkpt lat="49.6593" lon="-1.8201">
        <ele>160.80000305176</ele>
        <time>2019-08-08T13:37:46.000Z</time>
      </trkpt>
      <trkpt lat="49.6594" lon="-1.8204">
        <ele>161</ele>
        <time>2019-08-08T13:37:50.000Z</time>
      </trkpt>
      <trkpt lat="49.65942" lon="-1.82048">
        <ele>161</ele>
        <time>2019-08-08T13:37:51.000Z</time>
      </trkpt>
      <trkpt lat="49.65944" lon="-1.82056">
        <ele>161</ele>
        <time>2019-08-08T13:37:52.000Z</time>
      </trkpt>
      <trkpt lat="49.65949" lon="-1.8207">
        <ele>161</ele>
        <time>2019-08-08T13:37:54.000Z</time>
      </trkpt>
      <trkpt lat="49.65959" lon="-1.82103">
        <ele>161.80000305176</ele>
        <time>2019-08-08T13:37:59.000Z</time>
      </trkpt>
      <trkpt lat="49.65966" lon="-1.82123">
        <ele>162.19999694824</ele>
        <time>2019-08-08T13:38:02.000Z</time>
      </trkpt>
      <trkpt lat="49.65978" lon="-1.82163">
        <ele>162.39999389648</ele>
        <time>2019-08-08T13:38:08.000Z</time>
      </trkpt>
      <trkpt lat="49.65999" lon="-1.8223">
        <ele>162.19999694824</ele>
        <time>2019-08-08T13:38:18.000Z</time>
      </trkpt>
      <trkpt lat="49.66021" lon="-1.82298">
        <ele>160.60000610352</ele>
        <time>2019-08-08T13:38:28.000Z</time>
      </trkpt>
      <trkpt lat="49.6604" lon="-1.82361">
        <ele>160.39999389648</ele>
        <time>2019-08-08T13:38:38.000Z</time>
      </trkpt>
      <trkpt lat="49.66073" lon="-1.82409">
        <ele>160.80000305176</ele>
        <time>2019-08-08T13:38:55.000Z</time>
      </trkpt>
      <trkpt lat="49.66107" lon="-1.82455">
        <ele>161.60000610352</ele>
        <time>2019-08-08T13:39:05.000Z</time>
      </trkpt>
      <trkpt lat="49.66139" lon="-1.82508">
        <ele>162.19999694824</ele>
        <time>2019-08-08T13:39:18.000Z</time>
      </trkpt>
      <trkpt lat="49.66155" lon="-1.82544">
        <ele>162.80000305176</ele>
        <time>2019-08-08T13:39:26.000Z</time>
      </trkpt>
      <trkpt lat="49.6618" lon="-1.82604">
        <ele>164.39999389648</ele>
        <time>2019-08-08T13:39:39.000Z</time>
      </trkpt>
      <trkpt lat="49.66204" lon="-1.82669">
        <ele>165</ele>
        <time>2019-08-08T13:39:51.000Z</time>
      </trkpt>
      <trkpt lat="49.6621" lon="-1.82686">
        <ele>164.60000610352</ele>
        <time>2019-08-08T13:39:54.000Z</time>
      </trkpt>
      <trkpt lat="49.66215" lon="-1.82698">
        <ele>164.39999389648</ele>
        <time>2019-08-08T13:39:56.000Z</time>
      </trkpt>
      <trkpt lat="49.6622" lon="-1.8271">
        <ele>164.19999694824</ele>
        <time>2019-08-08T13:39:58.000Z</time>
      </trkpt>
      <trkpt lat="49.66227" lon="-1.82729">
        <ele>163.60000610352</ele>
        <time>2019-08-08T13:40:01.000Z</time>
      </trkpt>
      <trkpt lat="49.66248" lon="-1.82784">
        <ele>162.80000305176</ele>
        <time>2019-08-08T13:40:09.000Z</time>
      </trkpt>
      <trkpt lat="49.66268" lon="-1.82851">
        <ele>162.39999389648</ele>
        <time>2019-08-08T13:40:18.000Z</time>
      </trkpt>
      <trkpt lat="49.66282" lon="-1.82922">
        <ele>163.39999389648</ele>
        <time>2019-08-08T13:40:31.000Z</time>
      </trkpt>
      <trkpt lat="49.66293" lon="-1.82991">
        <ele>164.80000305176</ele>
        <time>2019-08-08T13:40:42.000Z</time>
      </trkpt>
      <trkpt lat="49.66303" lon="-1.83062">
        <ele>165.39999389648</ele>
        <time>2019-08-08T13:40:54.000Z</time>
      </trkpt>
      <trkpt lat="49.66308" lon="-1.83103">
        <ele>165.80000305176</ele>
        <time>2019-08-08T13:41:00.000Z</time>
      </trkpt>
      <trkpt lat="49.66315" lon="-1.83154">
        <ele>166</ele>
        <time>2019-08-08T13:41:08.000Z</time>
      </trkpt>
      <trkpt lat="49.66317" lon="-1.83172">
        <ele>165.60000610352</ele>
        <time>2019-08-08T13:41:11.000Z</time>
      </trkpt>
      <trkpt lat="49.66321" lon="-1.83196">
        <ele>165.19999694824</ele>
        <time>2019-08-08T13:41:15.000Z</time>
      </trkpt>
      <trkpt lat="49.66327" lon="-1.83227">
        <ele>165</ele>
        <time>2019-08-08T13:41:20.000Z</time>
      </trkpt>
      <trkpt lat="49.66332" lon="-1.83252">
        <ele>164.80000305176</ele>
        <time>2019-08-08T13:41:24.000Z</time>
      </trkpt>
      <trkpt lat="49.66336" lon="-1.83264">
        <ele>164.60000610352</ele>
        <time>2019-08-08T13:41:26.000Z</time>
      </trkpt>
      <trkpt lat="49.66343" lon="-1.83277">
        <ele>164.39999389648</ele>
        <time>2019-08-08T13:41:29.000Z</time>
      </trkpt>
      <trkpt lat="49.66365" lon="-1.83311">
        <ele>164</ele>
        <time>2019-08-08T13:41:41.000Z</time>
      </trkpt>
      <trkpt lat="49.66358" lon="-1.83322">
        <ele>164.19999694824</ele>
        <time>2019-08-08T13:41:47.000Z</time>
      </trkpt>
      <trkpt lat="49.66355" lon="-1.83323">
        <ele>164.19999694824</ele>
        <time>2019-08-08T13:42:01.000Z</time>
      </trkpt>
      <trkpt lat="49.66354" lon="-1.83325">
        <ele>164.19999694824</ele>
        <time>2019-08-08T13:42:02.000Z</time>
      </trkpt>
      <trkpt lat="49.66352" lon="-1.83328">
        <ele>164.39999389648</ele>
        <time>2019-08-08T13:42:03.000Z</time>
      </trkpt>
      <trkpt lat="49.66351" lon="-1.83339">
        <ele>164.60000610352</ele>
        <time>2019-08-08T13:42:06.000Z</time>
      </trkpt>
      <trkpt lat="49.66363" lon="-1.83379">
        <ele>164.80000305176</ele>
        <time>2019-08-08T13:42:14.000Z</time>
      </trkpt>
      <trkpt lat="49.66371" lon="-1.83403">
        <ele>165</ele>
        <time>2019-08-08T13:42:18.000Z</time>
      </trkpt>
      <trkpt lat="49.66379" lon="-1.83429">
        <ele>165.19999694824</ele>
        <time>2019-08-08T13:42:22.000Z</time>
      </trkpt>
      <trkpt lat="49.66388" lon="-1.8346">
        <ele>165.60000610352</ele>
        <time>2019-08-08T13:42:27.000Z</time>
      </trkpt>
      <trkpt lat="49.664" lon="-1.835">
        <ele>165.19999694824</ele>
        <time>2019-08-08T13:42:33.000Z</time>
      </trkpt>
      <trkpt lat="49.66401" lon="-1.83515">
        <ele>165.19999694824</ele>
        <time>2019-08-08T13:42:35.000Z</time>
      </trkpt>
      <trkpt lat="49.66398" lon="-1.83529">
        <ele>165.39999389648</ele>
        <time>2019-08-08T13:42:37.000Z</time>
      </trkpt>
      <trkpt lat="49.66381" lon="-1.8358">
        <ele>165.60000610352</ele>
        <time>2019-08-08T13:42:45.000Z</time>
      </trkpt>
      <trkpt lat="49.66376" lon="-1.83593">
        <ele>165.60000610352</ele>
        <time>2019-08-08T13:42:47.000Z</time>
      </trkpt>
      <trkpt lat="49.66366" lon="-1.83619">
        <ele>165.39999389648</ele>
        <time>2019-08-08T13:42:51.000Z</time>
      </trkpt>
      <trkpt lat="49.66349" lon="-1.83663">
        <ele>165</ele>
        <time>2019-08-08T13:42:58.000Z</time>
      </trkpt>
      <trkpt lat="49.66345" lon="-1.83676">
        <ele>165</ele>
        <time>2019-08-08T13:43:00.000Z</time>
      </trkpt>
      <trkpt lat="49.66343" lon="-1.83682">
        <ele>165</ele>
        <time>2019-08-08T13:43:01.000Z</time>
      </trkpt>
      <trkpt lat="49.66341" lon="-1.83689">
        <ele>165</ele>
        <time>2019-08-08T13:43:02.000Z</time>
      </trkpt>
      <trkpt lat="49.66338" lon="-1.83695">
        <ele>165</ele>
        <time>2019-08-08T13:43:03.000Z</time>
      </trkpt>
      <trkpt lat="49.66336" lon="-1.83702">
        <ele>165</ele>
        <time>2019-08-08T13:43:04.000Z</time>
      </trkpt>
      <trkpt lat="49.66331" lon="-1.83714">
        <ele>165</ele>
        <time>2019-08-08T13:43:06.000Z</time>
      </trkpt>
      <trkpt lat="49.66329" lon="-1.83721">
        <ele>165</ele>
        <time>2019-08-08T13:43:07.000Z</time>
      </trkpt>
      <trkpt lat="49.66321" lon="-1.83742">
        <ele>165</ele>
        <time>2019-08-08T13:43:11.000Z</time>
      </trkpt>
      <trkpt lat="49.66317" lon="-1.83755">
        <ele>165</ele>
        <time>2019-08-08T13:43:14.000Z</time>
      </trkpt>
      <trkpt lat="49.66316" lon="-1.83764">
        <ele>165</ele>
        <time>2019-08-08T13:43:16.000Z</time>
      </trkpt>
      <trkpt lat="49.66316" lon="-1.83768">
        <ele>165</ele>
        <time>2019-08-08T13:43:17.000Z</time>
      </trkpt>
      <trkpt lat="49.66315" lon="-1.83774">
        <ele>165</ele>
        <time>2019-08-08T13:43:19.000Z</time>
      </trkpt>
      <trkpt lat="49.66315" lon="-1.83777">
        <ele>165</ele>
        <time>2019-08-08T13:43:20.000Z</time>
      </trkpt>
      <trkpt lat="49.66315" lon="-1.83779">
        <ele>165</ele>
        <time>2019-08-08T13:43:21.000Z</time>
      </trkpt>
      <trkpt lat="49.66314" lon="-1.83784">
        <ele>165</ele>
        <time>2019-08-08T13:43:27.000Z</time>
      </trkpt>
      <trkpt lat="49.66305" lon="-1.83786">
        <ele>165</ele>
        <time>2019-08-08T13:43:41.000Z</time>
      </trkpt>
      <trkpt lat="49.66303" lon="-1.83785">
        <ele>165</ele>
        <time>2019-08-08T13:43:42.000Z</time>
      </trkpt>
      <trkpt lat="49.66298" lon="-1.83782">
        <ele>165</ele>
        <time>2019-08-08T13:43:44.000Z</time>
      </trkpt>
      <trkpt lat="49.66296" lon="-1.83781">
        <ele>165</ele>
        <time>2019-08-08T13:43:45.000Z</time>
      </trkpt>
      <trkpt lat="49.66284" lon="-1.83775">
        <ele>165</ele>
        <time>2019-08-08T13:43:51.000Z</time>
      </trkpt>
      <trkpt lat="49.66283" lon="-1.83775">
        <ele>165</ele>
        <time>2019-08-08T13:43:53.000Z</time>
      </trkpt>
      <trkpt lat="49.66288" lon="-1.83759">
        <ele>165</ele>
        <time>2019-08-08T13:47:50.000Z</time>
      </trkpt>
      <trkpt lat="49.6629" lon="-1.83759">
        <ele>165</ele>
        <time>2019-08-08T13:47:51.000Z</time>
      </trkpt>
      <trkpt lat="49.66294" lon="-1.83761">
        <ele>165</ele>
        <time>2019-08-08T13:47:53.000Z</time>
      </trkpt>
      <trkpt lat="49.66295" lon="-1.83762">
        <ele>165</ele>
        <time>2019-08-08T13:47:54.000Z</time>
      </trkpt>
      <trkpt lat="49.66296" lon="-1.83763">
        <ele>165</ele>
        <time>2019-08-08T13:47:55.000Z</time>
      </trkpt>
      <trkpt lat="49.663" lon="-1.83766">
        <ele>165</ele>
        <time>2019-08-08T13:47:58.000Z</time>
      </trkpt>
      <trkpt lat="49.66301" lon="-1.83767">
        <ele>165</ele>
        <time>2019-08-08T13:47:59.000Z</time>
      </trkpt>
      <trkpt lat="49.66304" lon="-1.83767">
        <ele>165</ele>
        <time>2019-08-08T13:48:01.000Z</time>
      </trkpt>
      <trkpt lat="49.66307" lon="-1.83766">
        <ele>165</ele>
        <time>2019-08-08T13:48:03.000Z</time>
      </trkpt>
      <trkpt lat="49.66309" lon="-1.83764">
        <ele>165</ele>
        <time>2019-08-08T13:48:04.000Z</time>
      </trkpt>
      <trkpt lat="49.6631" lon="-1.83759">
        <ele>165</ele>
        <time>2019-08-08T13:48:06.000Z</time>
      </trkpt>
      <trkpt lat="49.66311" lon="-1.83756">
        <ele>165</ele>
        <time>2019-08-08T13:48:07.000Z</time>
      </trkpt>
      <trkpt lat="49.66314" lon="-1.83746">
        <ele>165</ele>
        <time>2019-08-08T13:48:10.000Z</time>
      </trkpt>
      <trkpt lat="49.66322" lon="-1.83724">
        <ele>165</ele>
        <time>2019-08-08T13:48:15.000Z</time>
      </trkpt>
      <trkpt lat="49.66339" lon="-1.83679">
        <ele>165</ele>
        <time>2019-08-08T13:48:24.000Z</time>
      </trkpt>
      <trkpt lat="49.66347" lon="-1.83656">
        <ele>165</ele>
        <time>2019-08-08T13:48:28.000Z</time>
      </trkpt>
      <trkpt lat="49.66351" lon="-1.83644">
        <ele>165.19999694824</ele>
        <time>2019-08-08T13:48:30.000Z</time>
      </trkpt>
      <trkpt lat="49.66356" lon="-1.83632">
        <ele>165.19999694824</ele>
        <time>2019-08-08T13:48:32.000Z</time>
      </trkpt>
      <trkpt lat="49.66358" lon="-1.83626">
        <ele>165.39999389648</ele>
        <time>2019-08-08T13:48:33.000Z</time>
      </trkpt>
      <trkpt lat="49.6636" lon="-1.8362">
        <ele>165.39999389648</ele>
        <time>2019-08-08T13:48:34.000Z</time>
      </trkpt>
      <trkpt lat="49.66363" lon="-1.83614">
        <ele>165.39999389648</ele>
        <time>2019-08-08T13:48:35.000Z</time>
      </trkpt>
      <trkpt lat="49.66365" lon="-1.83608">
        <ele>165.60000610352</ele>
        <time>2019-08-08T13:48:36.000Z</time>
      </trkpt>
      <trkpt lat="49.66374" lon="-1.83583">
        <ele>165.80000305176</ele>
        <time>2019-08-08T13:48:40.000Z</time>
      </trkpt>
      <trkpt lat="49.66379" lon="-1.8357">
        <ele>165.80000305176</ele>
        <time>2019-08-08T13:48:42.000Z</time>
      </trkpt>
      <trkpt lat="49.66382" lon="-1.83563">
        <ele>165.80000305176</ele>
        <time>2019-08-08T13:48:43.000Z</time>
      </trkpt>
      <trkpt lat="49.66384" lon="-1.83557">
        <ele>165.60000610352</ele>
        <time>2019-08-08T13:48:44.000Z</time>
      </trkpt>
      <trkpt lat="49.66395" lon="-1.83525">
        <ele>165.39999389648</ele>
        <time>2019-08-08T13:48:49.000Z</time>
      </trkpt>
      <trkpt lat="49.66397" lon="-1.83519">
        <ele>165.39999389648</ele>
        <time>2019-08-08T13:48:50.000Z</time>
      </trkpt>
      <trkpt lat="49.66398" lon="-1.83505">
        <ele>165.39999389648</ele>
        <time>2019-08-08T13:48:52.000Z</time>
      </trkpt>
      <trkpt lat="49.66396" lon="-1.83493">
        <ele>165.39999389648</ele>
        <time>2019-08-08T13:48:54.000Z</time>
      </trkpt>
      <trkpt lat="49.66378" lon="-1.83433">
        <ele>165.39999389648</ele>
        <time>2019-08-08T13:49:04.000Z</time>
      </trkpt>
      <trkpt lat="49.66377" lon="-1.83427">
        <ele>165.19999694824</ele>
        <time>2019-08-08T13:49:05.000Z</time>
      </trkpt>
      <trkpt lat="49.66368" lon="-1.83397">
        <ele>165</ele>
        <time>2019-08-08T13:49:09.000Z</time>
      </trkpt>
      <trkpt lat="49.66352" lon="-1.83347">
        <ele>164.80000305176</ele>
        <time>2019-08-08T13:49:16.000Z</time>
      </trkpt>
      <trkpt lat="49.66349" lon="-1.83332">
        <ele>164.39999389648</ele>
        <time>2019-08-08T13:49:18.000Z</time>
      </trkpt>
      <trkpt lat="49.66352" lon="-1.8332">
        <ele>164.19999694824</ele>
        <time>2019-08-08T13:49:20.000Z</time>
      </trkpt>
      <trkpt lat="49.66362" lon="-1.83301">
        <ele>164</ele>
        <time>2019-08-08T13:49:24.000Z</time>
      </trkpt>
      <trkpt lat="49.66353" lon="-1.83296">
        <ele>164.19999694824</ele>
        <time>2019-08-08T13:49:28.000Z</time>
      </trkpt>
      <trkpt lat="49.66351" lon="-1.83303">
        <ele>164.19999694824</ele>
        <time>2019-08-08T13:49:30.000Z</time>
      </trkpt>
      <trkpt lat="49.66351" lon="-1.83305">
        <ele>164.19999694824</ele>
        <time>2019-08-08T13:49:32.000Z</time>
      </trkpt>
    </trkseg>
  </trk>
</gpx>